     2              OBSERVATION DATA    GPS                 RINEX VERSION / TYPE
teqc 2000Jul20 Karen Wendt 20020411 23:20:07UTC             PGM / RUN BY / DATE
                                                            COMMENT
L2: 1 -> 1; 150 -> 5; 250 -> 9                              COMMENT
L2: 1 -> 1; 150 -> 5; 250 -> 9                              COMMENT
L2: 1 -> 1; 150 -> 5; 250 -> 9                              COMMENT
L2: 1 -> 1; 150 -> 5; 250 -> 9                              COMMENT
L2: 1 -> 1; 150 -> 5; 250 -> 9                              COMMENT
L2: 1 -> 1; 150 -> 5; 250 -> 9                              COMMENT
L2: 1 -> 1; 150 -> 5; 250 -> 9                              COMMENT
L2: 1 -> 1; 150 -> 5; 250 -> 9                              COMMENT
L2: 1 -> 1; 150 -> 5; 250 -> 9                              COMMENT
L2: 1 -> 1; 150 -> 5; 250 -> 9                              COMMENT
L2: 1 -> 1; 150 -> 5; 250 -> 9                              COMMENT
L2: 1 -> 1; 150 -> 5; 250 -> 9                              COMMENT
L2: 1 -> 1; 150 -> 5; 250 -> 9                              COMMENT
L2: 1 -> 1; 150 -> 5; 250 -> 9                              COMMENT
Original Marker Name: flsh Flash_1940_1972_USC&GS           COMMENT
Campaign Name: USGS Mojave 2002                             COMMENT
4-Character Station Name: FLSH                              COMMENT
6-Character Antenna Code: DMRCHT                            COMMENT
Vertical Measurement Point: BCR                             COMMENT
Vertical Offset to Rinex Ref. Point: 0.0348                 COMMENT
Radial Measurement Point: ECF                               COMMENT
Radial Offset to Rinex Ref. Point: 0.1897                   COMMENT
Antenna Height from Field Measurement: 1.4090 m             COMMENT
Additional Antenna Identification Info.:                    COMMENT
Turborogue and Ashtech Choke Ring                           COMMENT
Original XYZ: -2381329.3797 -4670325.1751 3622404.8936      COMMENT
New XYZ position is based on association with SCEC monument COMMENT
E1F2O8R6+0011. Position of that monument is believed to be  COMMENT
valid to within 1 m horizontally; vertical accuracy         COMMENT
should be no worse than 3-times this value.                 COMMENT
                                                            COMMENT
Revised Rinex header created by UCSD GPS archive for        COMMENT
GSAC on 27-Jun-2003 (2003:178) 16:05:38 GMT                 COMMENT
For assistance contact dagnew@ucsd.edu                      COMMENT
or anderson@python.ucsd.edu                                 COMMENT
                                                            COMMENT
FLASH 1940 1972                                             MARKER NAME
CHS US GEOLOGICAL SURVEY                                    OBSERVER / AGENCY
LP019992809 ASHTECH Z-XII3 CD00                             REC # / TYPE / VERS
CR619992805 DORNE-MARGOL. TYPE T                            ANT # / TYPE
 -2381345.8126 -4670289.4223  3622381.8445                  APPROX POSITION XYZ
        1.3614        0.0000        0.0000                  ANTENNA: DELTA H/E/N
     1     1     0                                          WAVELENGTH FACT L1/2
     5    C1    L1    L2    P1    P2                        # / TYPES OF OBSERV
    30                                                      INTERVAL
  2002     4     5     0     1    0.000000                  TIME OF FIRST OBS
  2002     4     5    23    59   30.000000                  TIME OF LAST OBS
                                                            END OF HEADER
 02  4  5  0  1  0.0000000  0 10G 6G23G21G17G22G 3G15G26G18G29
  22907612.444   -16227839.19749 -12455721.50946  22907612.210    22907628.350
  23003970.504   -10514999.13249  -7655167.70946  23003969.893    23003982.456
  21898742.835   -19371532.92849 -15072238.35847  21898742.286    21898754.828
  20569071.530   -26162697.84849 -19926618.66647  20569070.948    20569081.764
  24548129.646    -3991391.01349  -3074407.22945  24548128.744    24548149.051
  23088562.750   -12226984.53249  -9501943.91846  23088562.391    23088576.334
  20382562.170   -27222227.88649 -20975186.25748  20382561.396    20382572.043
  22751499.032   -13835259.81649  -9914377.52546  22751499.005    22751511.384
  20390530.045   -26738372.97049 -20272619.40148  20390529.600    20390538.695
  20903963.841   -21040664.24249 -15194525.08847  20903963.607    20903974.345
 02  4  5  0  1 30.0000000  0 10G 6G23G21G17G22G 3G15G26G18G29
  22927153.441   -16125151.85449 -12375705.63046  22927153.172    22927169.252
  23018383.037   -10439261.20249  -7596151.20846  23018382.396    23018394.959
  21890653.171   -19414043.98849 -15105363.74547  21890652.627    21890665.146
  20570499.583   -26155193.31949 -19920770.97547  20570499.010    20570509.812
  24559729.887    -3930431.98749  -3026906.90345  24559728.864    24559749.395
  23073168.555   -12307880.98649  -9564979.96846  23073168.178    23073182.123
  20380665.770   -27232193.19849 -20982951.40148  20380665.019    20380675.652
  22766157.158   -13758230.79149  -9854354.94546  22766157.177    22766169.559
  20391932.978   -26731000.60249 -20266874.66748  20391932.509    20391941.601
  20895976.620   -21082637.22449 -15227231.22647  20895976.357    20895987.049
 02  4  5  0  2  0.0000000  0 10G 6G23G21G17G22G 3G15G26G18G29
  22946736.886   -16022241.00149 -12295515.60846  22946736.634    22946752.830
  23032804.488   -10363476.10149  -7537097.93246  23032803.861    23032816.421
  21882612.984   -19456295.05549 -15138286.54947  21882612.433    21882624.932
  20571976.246   -26147433.39849 -19914724.28147  20571975.677    20571986.482
  24571371.564    -3869255.21649  -2979236.90245  24571370.573    24571390.997
  23057839.459   -12388435.46849  -9627749.57946  23057839.100    23057852.936
  20378819.924   -27241893.11349 -20990509.74648  20378819.187    20378829.810
  22780904.880   -13680731.32549  -9793965.80346  22780904.908    22780917.284
  20393403.984   -26723270.19849 -20260850.95048  20393403.511    20393412.596
  20888088.378   -21124089.88149 -15259531.91947  20888088.118    20888098.794
 02  4  5  0  2 30.0000000  0 10G 6G23G21G17G22G 3G15G26G18G29
  22966362.283   -15919110.05849 -12215154.06046  22966361.968    22966378.210
  23047234.554   -10287646.01149  -7478009.61346  23047233.872    23047246.447
  21874622.072   -19498287.23149 -15171007.62347  21874621.525    21874633.972
  20573501.498   -26139418.11549 -19908478.61247  20573500.942    20573511.749
  24583054.003    -3807864.25349  -2931399.98545  24583053.106    24583073.535
  23042575.825   -12468646.09549  -9690251.24746  23042575.407    23042589.232
  20377024.615   -27251327.36149 -20997861.07648  20377023.870    20377034.490
  22795741.430   -13602764.89849  -9733212.80146  22795741.457    22795753.809
  20394942.802   -26715183.69049 -20254549.74348  20394942.335    20394951.388
  20880299.288   -21165021.55149 -15291426.63947  20880299.040    20880309.698
 02  4  5  0  3  0.0000000  0 10G 6G23G21G17G22G 3G15G26G18G29
  22986029.110   -15815761.56549 -12134623.02046  22986028.743    22986045.017
  23061672.816   -10211772.59549  -7418887.54146  23061672.136    23061684.738
  21866680.221   -19540021.56649 -15203527.77647  21866679.673    21866692.096
  20575075.454   -26131146.80449 -19902033.42847  20575074.902    20575085.697
  24594776.603    -3746262.27349  -2883398.66045  24594775.801    24594796.165
  23027377.939   -12548510.96649  -9752483.49146  23027377.498    23027391.357
  20375279.976   -27260495.39349 -21005004.96448  20375279.228    20375289.847
  22810666.276   -13524334.77249  -9672098.46646  22810666.284    22810678.625
  20396549.096   -26706742.60749 -20247972.24548  20396548.623    20396557.657
  20872609.490   -21205431.24349 -15322914.62747  20872609.274    20872619.917
 02  4  5  0  3 30.0000000  0 10G 6G23G21G17G22G 3G15G26G18G29
  23005737.060   -15712196.20349 -12053922.98346  23005736.770    23005753.126
  23076119.483   -10135855.32249  -7359731.27746  23076118.776    23076131.374
  21858787.725   -19581496.33349 -15235845.66647  21858787.197    21858799.583
  20576698.707   -26122616.76949 -19895386.64247  20576698.128    20576708.915
  24606539.229    -3684450.46149  -2835233.82945  24606538.398    24606558.779
  23012246.726   -12628025.63349  -9814442.83946  23012246.304    23012260.108
  20373586.472   -27269394.83349 -21011939.56148  20373585.710    20373596.308
  22825679.168   -13445441.63549  -9610623.35546  22825679.171    22825691.606
  20398222.880   -26697946.51949 -20241118.11648  20398222.404    20398231.442
  20865019.648   -21245315.81449 -15353993.42347  20865019.438    20865030.059
 02  4  5  0  4  0.0000000  0 10G 6G23G21G17G22G 3G15G26G18G29
  23025485.532   -15608418.02449 -11973057.11446  23025485.268    23025501.575
  23090573.849   -10059897.40349  -7300543.35846  23090573.139    23090585.751
  21850944.232   -19622713.62149 -15267962.92947  21850943.746    21850956.084
  20578370.962   -26113828.79349 -19888538.86547  20578370.391    20578381.196
  24618340.806    -3622433.23549  -2786908.94045  24618340.078    24618360.469
  22997182.170   -12707189.62049  -9876128.94246  22997181.752    22997195.551
  20371943.939   -27278026.27749 -21018665.33348  20371943.167    20371953.766
  22840779.284   -13366090.10549  -9548791.03746  22840779.297    22840791.746
  20399963.771   -26688798.01049 -20233989.37848  20399963.299    20399972.323
  20857529.622   -21284675.66449 -15384663.34747  20857529.423    20857540.013
 02  4  5  0  4 30.0000000  0 10G 6G23G21G17G22G 3G15G26G18G29
  23045273.838   -15504430.34949 -11892028.00946  23045273.629    23045290.105
  23105035.562    -9983900.84649  -7241325.33346  23105034.818    23105047.409
  21843149.556   -19663674.63549 -15299880.49547  21843149.033    21843161.348
  20580092.328   -26104782.87049 -19881490.09447  20580091.769    20580102.557
  24630180.858    -3560214.34749  -2738426.91845  24630180.071    24630200.528
  22982184.705   -12786001.24749  -9937540.50446  22982184.295    22982198.070
  20370352.360   -27286389.76849 -21025182.31848  20370351.609    20370362.219
  22855965.974   -13286283.68549  -9486604.26346  22855965.944    22855978.466
  20401771.237   -26679299.49849 -20226587.91548  20401770.758    20401779.793
  20850139.555   -21323510.34949 -15414924.05947  20850139.359    20850149.950
 02  4  5  0  5  0.0000000  0 10G 6G23G21G17G22G 3G15G26G18G29
  23065101.960   -15400233.24249 -11810835.69646  23065101.821    23065118.256
  23119504.871    -9907864.56749  -7182076.34846  23119504.160    23119516.717
  21835403.879   -19704377.92049 -15331597.23047  21835403.365    21835415.647
  20581863.443   -26095475.69749 -19874237.74547  20581862.883    20581873.634
  24642059.131    -3497794.26849  -2689788.12845  24642058.368    24642078.750
  22967255.305   -12864455.53849  -9998673.59446  22967254.890    22967268.584
  20368812.450   -27294481.87449 -21031487.82848  20368811.705    20368822.307
  22871239.155   -13206022.81149  -9424063.37846  22871239.101    22871251.645
  20403645.482   -26669450.12349 -20218913.04348  20403645.030    20403654.051
  20842850.156   -21361816.07249 -15444772.58847  20842849.945    20842860.510
 02  4  5  0  5 30.0000000  0 10G 6G23G21G17G22G 3G15G26G18G29
  23084969.338   -15295830.89649 -11729483.49746  23084969.048    23084985.748
  23133981.098    -9831791.72049  -7122798.87346  23133980.378    23133993.015
  21827706.893   -19744825.53849 -15363114.75247  21827706.344    21827718.619
  20583684.109   -26085908.13049 -19866782.49947  20583683.552    20583694.273
  24653974.791    -3435177.52549  -2640996.11445  24653973.949    24653994.633
  22952393.875   -12942551.91849 -10059527.81746  22952393.499    22952407.178
  20367324.011   -27302303.44349 -21037582.53848  20367323.276    20367333.867
  22886597.975   -13125311.80349  -9361171.73246  22886597.888    22886610.467
  20405585.991   -26659252.67149 -20210966.94848  20405585.527    20405594.528
  20835661.336   -21399593.32249 -15474209.32447  20835661.122    20835671.671
 02  4  5  0  6  0.0000000  0 11G 6G23G21G14G17G22G 3G15G26G18G29
  23104875.252   -15191225.83549 -11647973.27946  23104874.948    23104891.543
  23148464.057    -9755683.75649  -7063494.03946  23148463.312    23148475.977
  21820058.453   -19785017.91049 -15394433.37747  21820057.898    21820070.152
                  -1395209.44349   -790667.25243
  20585554.525   -26076079.21249 -19859123.60047  20585553.938    20585564.667
  24665927.507    -3372367.03249  -2592053.13945  24665926.514    24665947.400
  22937601.050   -13020288.22849 -10120101.45746  22937600.709    22937614.344
  20365887.231   -27309853.76849 -21043465.88448  20365886.490    20365897.063
  22902041.932   -13044153.70649  -9297931.71346  22902041.816    22902054.357
  20407592.482   -26648708.32249 -20202750.55048  20407592.018    20407601.026
  20828573.200   -21436841.15449 -15503233.53847  20828573.019    20828583.537
 02  4  5  0  6 30.0000000  0 11G 6G23G21G14G17G22G 3G15G26G18G29
  23124818.820   -15086421.83849 -11566308.10146  23124818.661    23124835.422
  23162953.179    -9679543.22949  -7004163.82446  23162952.432    23162965.147
  21812458.338   -19824956.45349 -15425554.21547  21812457.780    21812469.994
                  -1509453.22749   -879687.71944                  24644607.182
  20587474.488   -26065989.54949 -19851261.52747  20587473.938    20587484.674
  24677916.087    -3309367.18249  -2542962.60145  24677915.064    24677936.014
  22922876.935   -13097663.43949 -10180393.71846  22922876.603    22922890.189
  20364501.984   -27317133.23949 -21049138.17948  20364501.239    20364511.800
  22917570.074   -12962552.59349  -9234346.49046  22917570.136    22917582.595
  20409664.516   -26637819.62049 -20194265.82648  20409664.054    20409673.069
  20821585.967   -21473559.29349 -15531845.00447  20821585.736    20821596.248
 02  4  5  0  7  0.0000000  0 11G 6G23G21G14G17G22G 3G15G26G18G29
  23144800.275   -14981419.41449 -11484488.27446  23144800.048    23144816.834
  23177448.585    -9603369.44249  -6944807.69146  23177447.847    23177460.577
  21804906.727   -19864640.03349 -15456476.37547  21804906.158    21804918.340
  24622846.975    -1623684.07549   -968698.06745  24622845.799    24622868.514
  20589444.655   -26055636.21949 -19843193.99247  20589444.085    20589454.844
  24689940.660    -3246178.82149  -2493725.20745  24689939.661    24689960.510
  22908222.422   -13174673.02949 -10240401.07546  22908222.088    22908235.638
  20363168.785   -27324139.21649 -21054597.35748  20363168.032    20363178.586
  22933182.396   -12880509.34649  -9170416.74246  22933182.428    22933194.942
  20411802.162   -26626586.11449 -20185512.41948  20411801.694    20411810.693
  20814699.971   -21509744.88949 -15560041.48647  20814699.773    20814710.270
 02  4  5  0  7 30.0000000  0 11G 6G23G21G14G17G22G 3G15G26G18G29
  23164819.232   -14876220.11949 -11402515.07246  23164819.029    23164835.943
  23191950.248    -9527162.81949  -6885425.98946  23191949.567    23191962.270
  21797403.709   -19904068.18649 -15487199.50947  21797403.142    21797415.304
  24601112.368    -1737898.65149  -1057695.75045  24601110.426    24601134.724
  20591465.345   -26045017.44849 -19834919.62747  20591464.786    20591475.534
  24702000.678    -3182803.93449  -2444342.45745  24701999.731    24702020.740
  22893638.101   -13251313.82049 -10300121.05146  22893637.714    22893651.273
  20361887.987   -27330869.67149 -21059841.85048  20361887.239    20361897.801
  22948878.609   -12798025.95349  -9106144.03746  22948878.552    22948891.066
  20414005.323   -26615008.18349 -20176490.64048  20414004.879    20414013.871
  20807915.753   -21545395.77549 -15587821.32847  20807915.560    20807926.043
 02  4  5  0  8  0.0000000  0 11G 6G23G21G14G17G22G 3G15G26G18G29
  23184875.361   -14770825.38249 -11320389.53946  23184875.224    23184892.076
  23206458.119    -9450923.68149  -6826018.93646  23206457.424    23206470.156
  21789949.388   -19943240.42649 -15517723.23147  21789948.833    21789960.962
  24579381.483    -1852093.32949  -1146677.95445  24579380.389    24579404.032
  20593536.893   -26034131.37249 -19826436.97247  20593536.312    20593547.071
  24714095.879    -3119244.31049  -2394815.74945  24714094.818    24714116.024
  22879124.608   -13327582.28649 -10359550.89946  22879124.202    22879137.681
  20360660.018   -27337322.62449 -21064870.10348  20360659.269    20360669.830
  22964658.145   -12715104.02149  -9041529.61146  22964658.108    22964670.635
  20416274.026   -26603086.01449 -20167200.62148  20416273.568    20416282.561
  20801233.762   -21580509.63149 -15615182.70347  20801233.556    20801244.025
 02  4  5  0  8 30.0000000  0 11G 6G23G21G14G17G22G 3G15G26G18G29
  23204967.944   -14665239.08149 -11238114.76846  23204967.795    23204984.752
  23220971.644    -9374654.50949  -6766588.49046  23220970.966    23220983.780
  21782543.425   -19982158.64049 -15548049.00647  21782542.870    21782554.982
  24557654.559    -1966267.12649  -1235643.87545  24557653.361    24557677.353
  20595659.249   -26022978.42049 -19817746.35247  20595658.652    20595669.418
  24726225.430    -3055504.22049  -2345148.44345  24726224.330    24726245.598
  22864682.138   -13403477.42849 -10418689.84346  22864681.810    22864695.211
  20359484.736   -27343498.71649 -21069682.61948  20359483.983    20359494.542
  22980520.357   -12631748.00749  -8976576.94146  22980520.286    22980532.802
  20418607.744   -26590822.25949 -20157644.43048  20418607.292    20418616.273
  20794653.888   -21615086.85049 -15642125.91747  20794653.701    20794664.131
 02  4  5  0  9  0.0000000  0 11G 6G23G21G14G17G22G 3G15G26G18G29
  23225096.306   -14559464.85749 -11155693.55746  23225096.130    23225113.161
  23235490.432    -9298357.83349  -6707136.60046  23235489.825    23235502.673
  21775185.412   -20020824.70549 -15578178.30447  21775184.864    21775196.974
  24535931.756    -2080418.34549  -1324592.18645  24535930.500    24535954.716
  20597832.291   -26011558.84049 -19808847.97147  20597831.728    20597842.496
  24738388.583    -2991587.70549  -2295343.64445  24738387.671    24738408.815
  22850310.910   -13478998.12649 -10477537.00046  22850310.590    22850324.035
  20358362.067   -27349398.14549 -21074279.55448  20358361.320    20358371.899
  22996464.457   -12547961.66749  -8911288.95046  22996464.419    22996476.893
  20421005.963   -26578219.41749 -20147824.02048  20421005.512    20421014.498
  20788176.055   -21649127.65049 -15668651.14147  20788175.886    20788186.296
 02  4  5  0  9 30.0000000  0 11G 6G23G21G14G17G22G 3G15G26G18G29
  23245260.387   -14453502.65749 -11073125.88045  23245260.251    23245277.310
  23250014.738    -9222032.26949  -6647662.18946  23250014.160    23250027.031
  21767875.835   -20059236.47549 -15608109.45547  21767875.274    21767887.353
  24514214.228    -2194542.05049  -1413519.09845  24514213.164    24514237.394
  20600056.772   -25999869.13449 -19799739.10247  20600056.198    20600066.983
  24750585.278    -2927495.01949  -2245401.58645  24750584.246    24750605.369
  22836011.952   -13554139.36649 -10536088.48846  22836011.579    22836025.007
  20357292.725   -27355017.40349 -21078658.17548  20357291.990    20357302.557
  23012490.289   -12463745.30449  -8845665.87646  23012490.265    23012502.777
  20423468.908   -26565276.43449 -20137738.56548  20423468.447    20423477.434
  20781801.063   -21682628.20649 -15694755.39747  20781800.879    20781811.289
 02  4  5  0 10  0.0000000  0 11G 6G23G21G14G17G22G 3G15G26G18G29
  23265459.478   -14347357.20249 -10990415.40845  23265459.267    23265476.393
  23264543.860    -9145681.32049  -6588168.01146  23264543.292    23264556.196
  21760614.145   -20097396.33649 -15637844.30747  21760613.601    21760625.653
  24492502.082    -2308638.05949  -1502424.46345  24492501.225    24492525.138
  20602332.373   -25987910.71249 -19790420.84447  20602331.802    20602342.584
  24762814.378    -2863231.32349  -2195326.25645  24762813.460    24762834.418
  22821785.198   -13628901.04149 -10594344.20146  22821784.778    22821798.153
  20356276.475   -27360357.77449 -21082819.48048  20356275.744    20356286.308
  23028597.006   -12379104.18049  -8779711.81746  23028597.004    23028609.507
  20425995.918   -26551996.87849 -20127390.84948  20425995.438    20426004.419
  20775528.640   -21715589.69949 -15720439.60647  20775528.441    20775538.841
 02  4  5  0 10 30.0000000  0 11G 6G23G21G14G17G22G 3G15G26G18G29
  23285692.935   -14241030.88949 -10907564.01745  23285692.690    23285709.951
  23279077.622    -9069306.15349  -6528654.96546  23279076.990    23279089.968
  21753400.328   -20135304.95349 -15667383.39147  21753399.785    21753411.816
  24470795.570    -2422703.83849  -1591306.21745  24470794.763    24470818.718
  20604659.290   -25975682.72549 -19780892.53947  20604658.702    20604669.499
  24775075.474    -2798799.69249  -2145120.06845  24775074.642    24775095.774
  22807631.117   -13703280.78249 -10652302.30346  22807630.696    22807644.117
  20355313.481   -27365418.39849 -21086762.80748  20355312.730    20355323.281
  23044784.074   -12294041.07549  -8713428.94146  23044784.058    23044796.554
  20428586.675   -26538382.20349 -20116782.00748  20428586.224    20428595.200
  20769358.992   -21748011.00649 -15745702.89747  20769358.822    20769369.206
 02  4  5  0 11  0.0000000  0 11G 6G23G21G14G17G22G 3G15G26G18G29
  23305960.509   -14134524.72849 -10824572.48345  23305960.309    23305977.613
  23293616.039    -8992906.60949  -6469122.90746  23293615.386    23293628.382
  21746234.426   -20172961.63349 -15696726.15747  21746233.876    21746245.883
  24449095.578    -2536735.21249  -1680161.16945  24449094.835    24449118.597
  20607037.951   -25963182.84149 -19771152.36447  20607037.355    20607048.162
  24787368.366    -2734201.34449  -2094783.99445  24787367.572    24787388.624
  22793550.450   -13777274.94749 -10709959.95246  22793550.014    22793563.347
  20354404.098   -27370197.09549 -21090486.44548  20354403.350    20354413.899
  23061051.105   -12208557.54849  -8646818.46446  23061051.046    23061063.584
  20431241.335   -26524431.68449 -20105911.45848  20431240.896    20431249.861
  20763292.549   -21779889.95349 -15770543.56747  20763292.402    20763302.776
 02  4  5  0 11 30.0000000  0 11G 6G23G21G14G17G22G 3G15G26G18G29
  23326261.632   -14027843.10949 -10741444.22745  23326261.424    23326278.712
  23308158.496    -8916485.61249  -6409574.13446  23308157.878    23308170.893
  21739116.089   -20210368.29949 -15725874.11047  21739115.544    21739127.528
  24427402.288    -2650731.68949  -1768988.97545  24427401.633    24427425.121
  20609468.129   -25950412.04549 -19761201.09647  20609467.533    20609478.342
  24799692.081    -2669440.99049  -2044321.65145  24799691.311    24799712.494
  22779543.089   -13850883.06749 -10767316.79346  22779542.721    22779556.027
  20353548.209   -27374694.78849 -21093991.12148  20353547.452    20353557.993
  23077397.282   -12122658.19949  -8579883.96546  23077397.250    23077409.754
  20433959.309   -26510148.57349 -20094781.75348  20433958.865    20433967.827
  20757329.261   -21811227.19549 -15794962.12947  20757329.070    20757339.426
 02  4  5  0 12  0.0000000  0 11G 6G23G21G14G17G22G 3G15G26G18G29
  23346596.148   -13920985.81349 -10658179.08545  23346595.928    23346613.244
  23322705.275    -8840041.80049  -6350007.58046  23322704.687    23322717.666
  21732045.681   -20247523.03549 -15754825.75047  21732045.128    21732057.124
  24405716.607    -2764687.81849  -1857785.35245  24405715.986    24405739.212
  20611950.603   -25937366.60649 -19751035.82347  20611950.024    20611960.808
  24812046.516    -2604518.90749  -1993733.29945  24812045.699    24812067.166
  22765610.271   -13924100.30049 -10824369.02746  22765609.856    22765623.131
  20352746.510   -27378907.74949 -21097273.92748  20352745.757    20352756.287
  23093822.500   -12036343.25249  -8512625.61546  23093822.460    23093835.063
  20436740.799   -26495531.79649 -20083392.04748  20436740.369    20436749.294
  20751469.696   -21842019.16949 -15818955.80747  20751469.527    20751479.855
 02  4  5  0 12 30.0000000  0 11G 6G23G21G14G17G22G 3G15G26G18G29
  23366962.888   -13813958.59049 -10574781.55045  23366962.717    23366980.117
  23337255.592    -8763579.57949  -6290426.68246  23337255.014    23337268.020
  21725022.508   -20284429.66449 -15783584.06347  21725021.960    21725033.947
  24384038.563    -2878604.45949  -1946550.93845  24384037.922    24384061.174
  20614484.834   -25924049.06349 -19740658.52047  20614484.269    20614495.015
  24824430.578    -2539441.40649  -1943023.82045  24824429.634    24824451.267
  22751751.634   -13996927.38149 -10881117.26346  22751751.231    22751764.494
  20351998.543   -27382838.28149 -21100336.66448  20351997.795    20352008.307
  23110325.635   -11949618.89849  -8445048.25846  23110325.575    23110338.195
  20439584.870   -26480586.04049 -20071745.99548  20439584.440    20439593.391
  20745713.458   -21872268.13849 -15842526.35847  20745713.292    20745723.600
 02  4  5  0 13  0.0000000  0 11G 6G23G21G14G17G22G 3G15G26G18G29
  23387361.720   -13706763.11749 -10491252.90445  23387361.586    23387379.071
  23351809.328    -8687099.49949  -6230831.85446  23351808.779    23351821.711
  21718046.519   -20321088.34849 -15812149.16747  21718045.980    21718057.908
  24362368.696    -2992478.39549  -2035283.25945  24362368.114    24362391.087
  20617071.185   -25910457.77449 -19730067.90347  20617070.629    20617081.361
  24836843.932    -2474210.48849  -1892194.79745  24836842.921    24836864.530
  22737967.772   -14069361.39449 -10937559.20846  22737967.403    22737980.579
  20351304.582   -27386484.79349 -21103178.08048  20351303.846    20351314.376
  23126906.254   -11862487.33849  -8377153.58946  23126906.246    23126918.829
  20442491.432   -26465311.89149 -20059844.05348  20442490.988    20442499.923
  20740060.837   -21901972.41249 -15865672.47547  20740060.675    20740070.976
 02  4  5  0 13 30.0000000  0 11G 6G23G21G14G17G22G 3G15G26G18G29
  23407792.574   -13599399.87849 -10407593.52545  23407792.392    23407809.836
  23366366.665    -8610600.43649  -6171222.22546  23366366.101    23366379.085
  21711118.117   -20357496.92949 -15840519.39047  21711117.556    21711129.469
  24340707.543    -3106304.83249  -2123978.54245  24340707.091    24340729.928
  20619710.194   -25896589.61649 -19719261.55047  20619709.632    20619720.375
  24849286.202    -2408826.84949  -1841246.75045  24849285.207    24849306.857
  22724259.601   -14141397.64649 -10993691.22346  22724259.263    22724272.386
  20350665.266   -27389844.21049 -21105795.78748  20350664.528    20350675.062
  23143564.215   -11774949.26049  -8308942.16546  23143564.214    23143576.778
  20445460.663   -26449708.42249 -20047685.50048  20445460.202    20445469.157
  20734512.505   -21931128.95749 -15888391.78747  20734512.336    20734522.622
 02  4  5  0 14  0.0000000  0 11G 6G23G21G14G17G22G 3G15G26G18G29
  23428254.634   -13491871.66249 -10323805.60645  23428254.606    23428272.125
  23380927.322    -8534083.89349  -6111598.99146  23380926.701    23380939.782
  21704237.092   -20393656.52649 -15868695.60347  21704236.550    21704248.430
  24319056.013    -3220081.59149  -2212635.16445  24319055.600    24319078.420
  20622401.960   -25882444.20249 -19708239.15547  20622401.399    20622412.150
  24861756.871    -2343293.88949  -1790182.36545  24861756.023    24861777.604
  22710627.522   -14213034.37249 -11049511.92546  22710627.170    22710640.268
  20350080.688   -27392916.11849 -21108189.46748  20350079.953    20350090.475
  23160298.857   -11687008.13649  -8240416.67946  23160298.829    23160311.476
  20448492.294   -26433777.24249 -20035271.59248  20448491.804    20448500.750
  20729068.435   -21959737.37149 -15910683.98747  20729068.255    20729078.533
 02  4  5  0 14 30.0000000  0 11G 6G23G21G14G17G22G 3G15G26G18G29
  23448747.167   -13384183.95349 -10239893.40945  23448747.080    23448764.698
  23395490.540    -8457553.88149  -6051965.27546  23395489.920    23395503.017
  21697402.797   -20429570.57849 -15896680.48547  21697402.251    21697414.105
  24297414.143    -3333808.83249  -2301253.17145  24297413.511    24297436.255
  20625146.108   -25868023.53349 -19697002.26947  20625145.549    20625156.314
  24874254.903    -2277617.30549  -1739006.05345  24874254.062    24874275.632
  22697071.278   -14284272.38949 -11105021.93846  22697070.935    22697084.009
  20349550.466   -27395702.43449 -21110360.60348  20349549.730    20349560.255
  23177109.103   -11598669.70049  -8171581.58946  23177109.111    23177121.789
  20451585.363   -26417522.88049 -20022605.84148  20451584.892    20451593.824
  20723728.332   -21987799.52949 -15932550.52947  20723728.172    20723738.435
 02  4  5  0 15  0.0000000  0 11G 6G23G21G14G17G22G 3G15G26G18G29
  23469270.281   -13276335.34349 -10155855.83945  23469270.272    23469287.897
  23410056.769    -8381007.85649  -5992319.06046  23410056.155    23410069.250
  21690615.902   -20465235.71349 -15924471.40347  21690615.340    21690627.172
  24275782.645    -3447480.25049  -2389827.65445  24275782.087    24275804.737
  20627943.562   -25853322.76349 -19685547.12547  20627943.012    20627953.790
  24886780.545    -2211796.07049  -1687717.02445  24886779.750    24886801.255
  22683592.103   -14355105.26749 -11160216.26646  22683591.776    22683604.854
  20349075.475   -27398198.37349 -21112305.47148  20349074.729    20349085.245
  23193995.160   -11509932.92749  -8102436.12146  23193995.210    23194007.906
  20454740.476   -26400942.73449 -20009686.23648  20454739.988    20454748.911
  20718493.051   -22015310.84749 -15953987.85147  20718492.866    20718503.124
 02  4  5  0 15 30.0000000  0 11G 6G23G21G14G17G22G 3G15G26G18G29
  23489823.142   -13168330.88949 -10071696.84045  23489823.044    23489840.787
  23424625.420    -8304449.40749  -5932663.18946  23424624.829    23424637.880
  21683875.667   -20500655.44249 -15952071.10747  21683875.106    21683886.911
  24254161.665    -3561095.89049  -2478358.71845  24254161.174    24254183.717
  20630793.998   -25838343.63549 -19673875.08247  20630793.459    20630804.208
  24899332.618    -2145835.83149  -1636319.68445  24899331.711    24899353.373
  22670190.006   -14425533.28149 -11215095.12546  22670189.694    22670202.660
  20348655.435   -27400405.59249 -21114025.36748  20348654.700    20348665.212
  23210956.002   -11420803.44949  -8032984.64346  23210956.059    23210968.766
  20457956.820   -26384040.73249 -19996515.83448  20457956.342    20457965.257
  20713362.242   -22042273.08249 -15974997.31747  20713362.048    20713372.295
 02  4  5  0 16  0.0000000  0 11G 6G23G21G14G17G22G 3G15G26G18G29
  23510405.162   -13060173.15449  -9987418.39045  23510405.015    23510422.817
  23439196.124    -8227879.73549  -5872998.55146  23439195.592    23439208.649
  21677182.144   -20535829.77949 -15979479.59647  21677181.600    21677193.376
  24232552.075    -3674653.19149  -2566844.32545  24232551.604    24232573.829
  20633697.593   -25823085.18949 -19661985.38447  20633697.059    20633707.781
  24911910.565    -2079739.41849  -1584816.22745  24911909.683    24911931.322
  22656865.279   -14495554.58749 -11269657.06946  22656864.989    22656877.977
  20348290.517   -27402323.15649 -21115519.55448  20348289.782    20348300.276
  23227991.023   -11331284.16449  -7963229.42746  23227991.046    23228003.797
  20461234.108   -26366818.20449 -19983095.67148  20461233.653    20461242.562
  20708336.051   -22068685.59549 -15995578.43347  20708335.878    20708346.094
 02  4  5  0 16 30.0000000  0 11G 6G23G21G14G17G22G 3G15G26G18G29
  23531015.842   -12951864.71049  -9903022.51945  23531015.686    23531033.555
  23453768.816    -8151299.94649  -5813326.05746  23453768.294    23453781.377
  21670535.102   -20570759.85849 -16006697.75147  21670534.551    21670546.296
  24210954.155    -3788149.40849  -2655282.28745  24210953.577    24210975.701
  20636654.476   -25807546.68649 -19649877.46647  20636653.922    20636664.659
  24924513.780    -2013509.59049  -1533208.82445  24924512.968    24924534.676
  22643618.524   -14565166.62349 -11323900.10346  22643618.170    22643631.116
  20347980.854   -27403950.27149 -21116787.41948  20347980.136    20347990.617
  23245099.670   -11241377.89649  -7893172.65946  23245099.672    23245112.491
  20464572.240   -26349276.22349 -19969426.58148  20464571.792    20464580.691
  20703414.678   -22094547.40749 -16015730.42347  20703414.495    20703424.696
 02  4  5  0 17  0.0000000  0 11G 6G23G21G14G17G22G 3G15G26G18G29
  23551655.390   -12843404.78649  -9818508.59245  23551655.168    23551673.084
  23468343.873    -8074707.90249  -5753644.00046  23468343.334    23468356.422
  21663935.135   -20605442.72849 -16033723.27647  21663934.580    21663946.291
  24189368.758    -3901578.86349  -2743668.24745  24189368.101    24189390.255
  20639665.467   -25791723.96749 -19637548.07847  20639664.917    20639675.655
  24937142.558    -1947146.05549  -1481497.24245  24937141.736    24937163.577
  22630450.694   -14634363.75849 -11377819.85246  22630450.306    22630463.177
  20347727.294   -27405282.70649 -21117825.66348  20347726.572    20347737.053
  23262281.986   -11151084.48749  -7822814.22946  23262281.967    23262294.837
  20467971.420   -26331413.34049 -19955507.43948  20467970.979    20467979.866
  20698598.833   -22119854.58049 -16035450.22547  20698598.648    20698608.833
 02  4  5  0 17 30.0000000  0 11G 6G23G21G14G17G22G 3G15G26G18G29
  23572322.366   -12734799.93949  -9733881.77345  23572322.161    23572340.318
  23482920.324    -7998108.86649  -5693956.51146  23482919.723    23482932.736
  21657381.301   -20639883.04249 -16060559.79847  21657380.748    21657392.434
  24167795.773    -4014943.29649  -2832003.58345  24167795.204    24167816.889
  20642729.861   -25775620.28449 -19624999.75547  20642729.326    20642740.067
  24949795.411    -1880655.80549  -1429686.91945  24949794.546    24949816.555
  22617361.376   -14703148.11549 -11431417.96046  22617360.987    22617373.868
  20347529.160   -27406323.94249 -21118637.00148  20347528.419    20347538.900
  23279536.611   -11060411.09149  -7752159.69446  23279536.592    23279549.434
  20471430.676   -26313234.85449 -19941342.37248  20471430.234    20471439.118
  20693887.863   -22144610.57349 -16054740.53947  20693887.680    20693897.833
 02  4  5  0 18  0.0000000  0 11G 6G23G21G14G17G22G 3G15G26G18G29
  23593016.958   -12626050.46949  -9649142.22545  23593016.744    23593034.864
  23497498.227    -7921501.75949  -5634262.72746  23497497.630    23497510.644
  21650873.844   -20674079.41549 -16087206.23947  21650873.302    21650884.973
  24146236.281    -4128237.64649  -2920284.34845  24146235.739    24146256.976
  20645848.304   -25759232.62749 -19612230.15947  20645847.777    20645858.524
  24962472.268    -1814039.77249  -1377778.59945  24962471.490    24962493.469
  22604351.365   -14771515.24149 -11484690.96346  22604351.064    22604363.928
  20347387.020   -27407070.98049 -21119219.10248  20347386.278    20347396.732
  23296863.384   -10969358.43749  -7681209.63546  23296863.387    23296876.217
  20474950.097   -26294740.10149 -19926930.87148  20474949.647    20474958.541
  20689282.328   -22168812.67149 -16073599.24847  20689282.128    20689292.251
 02  4  5  0 18 30.0000000  0 10G 6G23G21G14G17G 3G15G26G18G29
  23613739.180   -12517155.81949  -9564289.58245  23613739.028    23613757.199
  23512077.985    -7844884.63749  -5574561.15746  23512077.417    23512090.378
  21644413.399   -20708029.06949 -16113660.42747  21644412.845    21644424.494
  24124690.946    -4241456.64049  -3008506.32045  24124690.426    24124711.695
  20649021.544   -25742557.02249 -19599236.17447  20649021.010    20649031.798
  22591421.921   -14839459.75449 -11537634.65646  22591421.605    22591434.386
  20347301.620   -27407519.59749 -21119568.66348  20347300.877    20347311.345
  23314262.356   -10877926.47349  -7609964.01746  23314262.352    23314275.215
  20478530.039   -26275927.24449 -19912271.48848  20478529.589    20478538.485
  20684782.950   -22192456.80649 -16092023.18347  20684782.743    20684792.856
 02  4  5  0 19  0.0000000  0 10G 6G23G21G14G17G 3G15G26G18G29
  23634488.016   -12408121.16149  -9479327.83045  23634487.813    23634506.000
  23526658.976    -7768261.25449  -5514854.69846  23526658.433    23526671.410
  21637999.215   -20741735.47749 -16139925.08847  21637998.675    21638010.286
  24103160.004    -4354599.99049  -3096669.36945  24103159.341    24103180.758
  20652249.200   -25725595.47949 -19586019.39047  20652248.676    20652259.455
  22578572.770   -14906982.38449 -11590249.61546  22578572.410    22578585.152
  20347272.654   -27407671.69649 -21119687.18048  20347271.927    20347282.391
  23331732.482   -10786120.79849  -7538427.18246  23331732.427    23331745.325
  20482169.766   -26256800.31649 -19897367.38348  20482169.319    20482178.204
  20680389.292   -22215545.34149 -16110014.19347  20680389.105    20680399.202
 02  4  5  0 19 30.0000000  0 10G 6G23G21G14G17G 3G15G26G18G29
  23655262.076   -12298953.84849  -9394262.72345  23655261.882    23655280.337
  23541240.092    -7691637.27049  -5455147.75446  23541239.538    23541252.485
  21631630.266   -20775204.25249 -16166004.56747  21631629.705    21631641.300
  24081643.095    -4467670.12149  -3184775.42445  24081642.387    24081663.458
  20655530.617   -25708351.65949 -19572582.64847  20655530.074    20655540.851
  22565803.352   -14974085.67049 -11642537.80246  22565803.000    22565815.744
  20347299.441   -27407530.83749 -21119577.41148  20347298.698    20347309.166
  23349272.168   -10693949.23749  -7466605.24946  23349272.165    23349285.013
  20485868.063   -26237365.55149 -19882223.39848  20485867.609    20485876.519
  20676100.584   -22238082.28449 -16127575.38847  20676100.404    20676110.493
 02  4  5  0 20  0.0000000  0 10G 6G23G21G14G17G 3G15G26G18G29
  23676061.731   -12189651.63249  -9309092.49645  23676061.623    23676080.137
  23555821.978    -7615009.19049  -5395437.64046  23555821.344    23555834.448
  21625307.251   -20808431.34049 -16191895.72747  21625306.712    21625318.287
  24060141.410    -4580659.80449  -3272818.77345  24060140.683    24060161.453
  20658866.808   -25690820.05849 -19558921.66347  20658866.254    20658877.000
  22553114.990   -15040762.84949 -11694493.96846  22553114.664    22553127.401
  20347383.034   -27407091.54649 -21119235.10048  20347382.290    20347392.769
  23366881.826   -10601409.96649  -7394496.79546  23366881.865    23366894.714
  20489625.543   -26217619.78349 -19866837.08248  20489625.098    20489633.984
  20671917.880   -22260062.28949 -16144702.60347  20671917.689    20671927.759
 02  4  5  0 20 30.0000000  0 10G 6G23G21G14G17G 3G15G26G18G29
  23696886.622   -12080217.58349  -9223819.54645  23696886.437    23696905.240
  23570404.338    -7538378.40449  -5335725.41646  23570403.739    23570416.861
  21619030.159   -20841417.38949 -16217599.06747  21619029.637    21619041.171
  24038655.512    -4693566.70949  -3360797.61945  24038654.777    24038675.613
  20662257.809   -25673000.20449 -19545036.06947  20662257.257    20662268.012
  22540508.169   -15107011.87149 -11746116.50946  22540507.841    22540520.558
  20347523.484   -27406353.55449 -21118660.03748  20347522.743    20347533.227
  23384560.840   -10508506.51249  -7322104.54946  23384560.855    23384573.705
  20493441.951   -26197564.50849 -19851209.59148  20493441.486    20493450.387
  20667841.166   -22281485.45149 -16161395.91347  20667840.961    20667851.017
 02  4  5  0 21  0.0000000  0 10G 6G23G21G14G17G 3G15G26G18G29
  23717735.431   -11970657.56049  -9138448.42845  23717735.233    23717754.075
  23584986.459    -7461749.20849  -5276014.41746  23584985.834    23584999.003
  21612798.159   -20874166.47649 -16243117.76447  21612797.632    21612809.131
  24017185.154    -4806391.70449  -3448712.62845  24017184.410    24017205.300
  20665703.137   -25654894.71549 -19530927.90047  20665702.582    20665713.359
  22527982.595   -15172833.93149 -11797406.34446  22527982.232    22527994.909
  20347720.272   -27405319.34749 -21117854.15748  20347719.517    20347730.008
  23402307.867   -10415245.09749  -7249433.37945  23402307.869    23402320.857
  20497316.287   -26177204.58649 -19835344.71648  20497315.824    20497324.732
  20663869.911   -22302354.31949 -16177657.30847  20663869.681    20663879.725
 02  4  5  0 21 30.0000000  0 10G 6G23G21G14G17G 3G15G26G18G29
  23738609.090   -11860967.24149  -9052975.79745  23738608.822    23738627.718
  23599569.374    -7385115.96849  -5216300.27646  23599568.718    23599581.946
  21606612.371   -20906672.63449 -16268447.16447  21606611.854    21606623.335
  23995732.257    -4919125.47449  -3536556.60545  23995731.551    23995752.140
  20669204.325   -25636495.87149 -19516591.15147  20669203.778    20669214.547
  22515539.888   -15238220.34949 -11848356.72746  22515539.516    22515552.217
  20347974.925   -27403981.09149 -21116811.35448  20347974.201    20347984.666
  23420123.719   -10321622.20949  -7176480.54245  23420123.736    23420136.784
  20501249.651   -26156534.64849 -19819238.27148  20501249.200    20501258.089
  20660005.458   -22322661.69649 -16193481.18147  20660005.246    20660015.293
 02  4  5  0 22  0.0000000  0 11G 6G23G21G14G17G 9G 3G15G26G18G29
  23759505.803   -11751156.06149  -8967409.00645  23759505.366    23759524.505
  23614151.527    -7308486.60749  -5156589.15146  23614150.824    23614164.045
  21600471.413   -20938943.27249 -16293593.03547  21600470.895    21600482.369
  23974296.003    -5031772.12249  -3624332.72045  23974295.192    23974315.419
  20672760.157   -25617809.75549 -19502030.54447  20672759.646    20672770.411
  24467223.307    -2046965.44149  -1231761.54445  24467222.834    24467242.562
  22503179.160   -15303175.84849 -11898971.32946  22503178.853    22503191.525
  20348286.349   -27402344.53849 -21115536.10348  20348285.605    20348296.079
  23438006.525   -10227647.36449  -7103253.46145  23438006.586    23438019.667
  20505240.367   -26135563.13149 -19802896.82248  20505239.908    20505248.810
  20656246.688   -22342413.97949 -16208872.50847  20656246.488    20656256.518
 02  4  5  0 22 30.0000000  0 11G 6G23G21G14G17G 9G 3G15G26G18G29
  23780425.947   -11641221.24449  -8881745.84945  23780425.593    23780444.624
  23628733.718    -7231856.81349  -5096877.68646  23628733.068    23628746.251
  21594376.158   -20970973.56749 -16318551.63347  21594375.635    21594387.131
  23952877.588    -5144323.81749  -3712034.76145  23952876.869    23952897.086
  20676371.905   -25598830.13249 -19487241.23547  20676371.346    20676382.112
  24454104.261    -2115904.28649  -1285479.80345  24454103.916    24454123.686
  22490901.873   -15367692.89449 -11949244.27146  22490901.613    22490914.252
  20348655.674   -27400403.73049 -21114023.77748  20348654.929    20348665.395
  23455956.859   -10133318.45449  -7029750.48545  23455956.849    23455969.920
  20509289.322   -26114285.68149 -19786316.98948  20509288.875    20509297.774
  20652594.665   -22361605.32349 -16223826.74447  20652594.466    20652604.452
 02  4  5  0 23  0.0000000  0 11G 6G23G21G14G17G 9G 3G15G26G18G29
  23801368.253   -11531169.13149  -8795991.31745  23801367.976    23801387.119
  23643315.062    -7155231.46949  -5037169.69046  23643314.413    23643327.642
  21588325.833   -21002767.90449 -16343326.36747  21588325.294    21588336.776
  23931477.331    -5256781.66049  -3799663.72245  23931476.534    23931496.691
  20680038.880   -25579560.07249 -19472225.60947  20680038.317    20680049.072
  24441020.314    -2184660.40549  -1339055.68545  24441019.934    24441039.422
  22478707.827   -15431773.17749 -11999176.87346  22478707.495    22478720.124
  20349082.288   -27398161.81049 -21112276.80948  20349081.544    20349092.021
  23473973.177   -10038642.30949  -6955976.90445  23473973.166    23473986.267
  20513395.421   -26092707.82549 -19769503.06948  20513394.982    20513403.917
  20649048.674   -22380239.23049 -16238346.60947  20649048.501    20649058.451
 02  4  5  0 23 30.0000000  0 11G 6G23G21G14G17G 9G 3G15G26G18G29
  23822333.032   -11420999.73149  -8710145.36445  23822332.841    23822351.971
  23657895.960    -7078608.82249  -4977463.80346  23657895.280    23657908.540
  21582320.817   -21034324.25349 -16367915.65647  21582320.271    21582331.730
  23910095.594    -5369140.81349  -3887215.78545  23910094.787    23910114.734
  20683761.765   -25559996.19249 -19456981.04147  20683761.220    20683771.992
  24427972.275    -2253228.01349  -1392484.62745  24427971.818    24427991.324
  22466597.674   -15495412.14449 -12048765.60746  22466597.308    22466609.930
  20349566.853   -27395615.33849 -21110292.53248  20349566.119    20349576.577
  23492055.519    -9943619.38749  -6881933.14645  23492055.468    23492068.521
  20517558.912   -26070828.48649 -19752454.22948  20517558.480    20517567.405
  20645609.405   -22398312.54849 -16252429.66447  20645609.202    20645619.148
 02  4  5  0 24  0.0000000  0 11G 6G23G21G14G17G 9G 3G15G26G18G29
  23843319.488   -11310716.20649  -8624210.54445  23843319.303    23843338.695
  23672475.969    -7001990.63549  -4917761.38446  23672475.297    23672488.575
  21576360.742   -21065644.27249 -16392320.78947  21576360.197    21576371.657
  23888732.937    -5481399.25449  -3974689.37545  23888732.225    23888752.041
  20687540.617   -25540138.25649 -19441507.33447  20687540.054    20687550.834
  24414960.555    -2321604.57849  -1445764.74245  24414960.085    24414979.320
  22454571.804   -15558608.35949 -12098009.33446  22454571.434    22454584.018
  20350109.466   -27392763.79749 -21108070.54148  20350108.733    20350119.190
  23510203.085    -9848253.32049  -6807621.97545  23510203.085    23510216.166
  20521779.450   -26048649.40949 -19735171.82748  20521779.018    20521787.930
  20642276.726   -22415825.73749 -16266076.25447  20642276.529    20642286.470
 02  4  5  0 24 30.0000000  0 11G 6G23G21G14G17G 9G 3G15G26G18G29
  23864327.161   -11200321.56749  -8538189.07145  23864327.059    23864346.344
  23687054.872    -6925378.45849  -4858063.65046  23687054.203    23687067.478
  21570445.391   -21096729.25049 -16416542.77347  21570444.872    21570456.320
  23867390.094    -5593554.91449  -4062082.87645  23867389.401    23867408.932
  20691375.468   -25519985.95749 -19425804.25547  20691374.889    20691385.671
  24401985.532    -2389787.40749  -1498893.88045  24401985.128    24402004.386
  22442630.398   -15621360.18949 -12146906.78246  22442630.101    22442642.681
  20350710.192   -27389606.85649 -21105610.57148  20350709.477    20350719.907
  23528415.326    -9752547.70349  -6733046.21945  23528415.367    23528428.397
  20526056.665   -26026172.46149 -19717657.31448  20526056.227    20526065.149
  20639050.569   -22432778.83549 -16279286.40747  20639050.383    20639060.316
 02  4  5  0 25  0.0000000  0 11G 6G23G21G14G17G 9G 3G15G26G18G29
  23885355.616   -11089817.68649  -8452082.51145  23885355.522    23885374.868
  23701632.482    -6848772.59349  -4798370.82246  23701631.851    23701645.113
  21564574.831   -21127578.86549 -16440581.36047  21564574.306    21564585.726
  23846067.248    -5705604.45449  -4149393.66645  23846066.692    23846086.256
  20695266.637   -25499537.78949 -19409870.63147  20695266.076    20695276.851
  24389048.074    -2457772.58349  -1551868.98945  24389047.684    24389066.956
  22430774.150   -15683665.02349 -12195455.92446  22430773.838    22430786.375
  20351369.331   -27386143.05849 -21102911.49348  20351368.611    20351379.036
  23546691.718    -9656504.86949  -6658207.71345  23546691.804    23546704.836
  20530390.354   -26003398.63549 -19699911.47148  20530389.927    20530398.842
  20635931.240   -22449170.82949 -16292059.33547  20635931.052    20635940.980
 02  4  5  0 25 30.0000000  0 11G 6G23G21G14G17G 9G 3G15G26G18G29
  23906404.432   -10979207.56349  -8365893.16545  23906404.230    23906423.639
  23716208.684    -6772174.36749  -4738683.95346  23716208.031    23716221.342
  21558748.881   -21158194.27749 -16464437.45347  21558748.349    21558759.737
  23824765.049    -5817545.76649  -4236620.13245  23824764.510    23824784.121
  20699214.142   -25478793.41249 -19393706.19647  20699213.583    20699224.369
  24376149.139    -2525557.38349  -1604687.98545  24376148.703    24376167.597
  22419003.192   -15745521.34749 -12243655.57146  22419002.857    22419015.422
  20352086.945   -27382372.05749 -21099973.03548  20352086.214    20352096.648
  23565031.635    -9560128.18949  -6583109.03845  23565031.647    23565044.743
  20534780.255   -25980329.67149 -19681935.65248  20534779.808    20534788.719
  20632918.639   -22465001.89149 -16304395.17248  20632918.448    20632928.352
 02  4  5  0 26  0.0000000  0 11G 6G23G21G14G17G 9G 3G15G26G18G29
  23927473.068   -10868492.50449  -8279622.03545  23927472.885    23927492.245
  23730783.471    -6695583.56649  -4679002.87146  23730782.831    23730796.223
  21552967.596   -21188574.88349 -16488110.57247  21552967.052    21552978.424
  23803484.219    -5929375.10349  -4323759.38145  23803483.652    23803503.017
  20703218.412   -25457750.93049 -19377309.46747  20703217.860    20703228.633
  24363288.774    -2593137.54249  -1657347.52945  24363288.318    24363307.292
  22407318.276   -15806925.81349 -12291503.12546  22407317.907    22407330.466
  20352863.355   -27378291.80849 -21096793.59948  20352862.626    20352873.063
  23583434.708    -9463419.70949  -6507751.82845  23583434.698    23583447.787
  20539226.214   -25956965.90449 -19663730.11148  20539225.770    20539234.692
  20630013.102   -22480270.42149 -16316292.67148  20630012.899    20630022.790
 02  4  5  0 26 30.0000000  0 11G 6G23G21G14G17G 9G 3G15G26G18G29
  23948560.729   -10757677.52849  -8193273.07345  23948560.436    23948579.984
  23745356.171    -6619003.41849  -4619330.08446  23745355.572    23745368.946
  21547230.336   -21218724.03249 -16511603.34847  21547229.813    21547241.144
  23782224.637    -6041092.35449  -4410811.27245  23782224.140    23782243.311
  20707279.140   -25436411.63849 -19360681.46147  20707278.589    20707289.371
  24350467.489    -2660512.25949  -1709847.00345  24350467.083    24350486.062
  22395719.266   -15867878.66449 -12338998.76946  22395718.927    22395731.421
  20353698.376   -27373903.77449 -21093374.33348  20353697.628    20353708.080
  23601899.811    -9366384.73749  -6432140.21545  23601899.865    23601912.943
  20543727.583   -25933311.06549 -19645297.76548  20543727.124    20543736.031
  20627214.119   -22494978.88049 -16327753.75548  20627213.917    20627223.803
 02  4  5  0 27  0.0000000  0 11G 6G23G21G14G17G 9G 3G15G26G18G29
  23969667.479   -10646762.17749  -8106845.88245  23969667.104    23969686.871
  23759927.229    -6542432.22549  -4559664.27946  23759926.625    23759940.044
  21541537.554   -21248639.58749 -16534914.09547  21541537.024    21541548.354
  23760987.451    -6152691.96949  -4497771.44645  23760987.022    23761006.292
  20711397.001   -25414772.18249 -19343819.55547  20711396.458    20711407.250
  24337686.507    -2727675.38549  -1762181.58845  24337686.151    24337705.196
  22384207.108   -15928375.17849 -12386138.82946  22384206.796    22384219.217
  20354592.648   -27369204.16749 -21089712.28148  20354591.919    20354602.349
  23620427.124    -9269023.39849  -6356274.28045  23620427.149    23620440.129
  20548284.645   -25909363.56249 -19626637.36648  20548284.199    20548293.097
  20624522.385   -22509123.76749 -16338775.69648  20624522.190    20624532.072
 02  4  5  0 27 30.0000000  0 11G 6G23G21G14G17G 9G 3G15G26G18G29
  23990792.420   -10535751.35649  -8020344.30845  23990792.080    23990811.809
  23774495.967    -6465873.13149  -4500007.90346  23774495.409    23774508.838
  21535888.665   -21278324.42449 -16558045.06647  21535888.145    21535899.444
  23739772.910    -6264173.78649  -4584639.91245  23739772.429    23739791.292
  20715571.731   -25392834.00149 -19326724.88147  20715571.169    20715581.983
  24324946.010    -2794626.08449  -1814350.65845  24324945.661    24324964.682
  22372781.788   -15988415.43549 -12432923.35746  22372781.476    22372793.859
  20355545.931   -27364194.53949 -21085808.66348  20355545.189    20355555.611
  23639015.501    -9171341.15149  -6280158.31845  23639015.540    23639028.516
  20552896.693   -25885127.05749 -19607751.77148  20552896.246    20552905.155
  20621937.501   -22522707.32649 -16349360.24048  20621937.310    20621947.175
 02  4  5  0 28  0.0000000  0 11G 6G23G21G14G17G 9G 3G15G26G18G29
  24011935.470   -10424645.09449  -7933768.36145  24011935.153    24011954.962
  23789062.721    -6389324.44549  -4440359.64145  23789062.155    23789075.611
  21530284.030   -21307776.79749 -16580994.90047  21530283.495    21530294.773
  23718581.558    -6375532.62649  -4671412.54145  23718580.969    23718599.700
  20719803.925   -25370593.59749 -19309394.70747  20719803.379    20719814.212
  24312247.101    -2861358.93649  -1866349.97345  24312246.762    24312265.744
  22361444.076   -16047995.24149 -12479349.08547  22361443.745    22361456.110
  20356558.882   -27358871.33949 -21081660.69848  20356558.148    20356568.565
  23657664.828    -9073338.43049  -6203792.60345  23657664.859    23657677.867
  20557563.902   -25860600.67049 -19588640.29248  20557563.455    20557572.371
  20619459.883   -22535726.95049 -16359505.35648  20619459.705    20619469.558
 02  4  5  0 28 30.0000000  0 11G 6G23G21G14G17G 9G 3G15G26G18G29
  24033095.692   -10313448.59249  -7847122.09445  24033095.344    24033115.368
  23803626.893    -6312789.81249  -4380722.32245  23803626.292    23803639.748
  21524723.011   -21336999.75649 -16603765.96547  21524722.495    21524733.754
  23697413.675    -6486768.60049  -4758089.38745  23697413.173    23697431.889
  20724093.307   -25348052.90749 -19291830.54147  20724092.759    20724103.571
  24299589.559    -2927873.21649  -1918178.99145  24299589.305    24299608.224
  22350193.853   -16107115.24149 -12525416.52347  22350193.503    22350205.827
  20357631.169   -27353236.42749 -21077269.84148  20357630.446    20357640.860
  23676374.002    -8975020.98449  -6127181.67445  23676374.157    23676387.084
  20562285.509   -25835788.38149 -19569306.02948  20562285.066    20562293.962
  20617089.204   -22548184.85949 -16369212.76748  20617089.026    20617098.861
 02  4  5  0 29  0.0000000  0 11G 6G23G21G14G17G 9G 3G15G26G18G29
  24054273.030   -10202162.53649  -7760406.05945  24054272.683    24054292.762
  23818188.522    -6236268.13749  -4321095.10645  23818187.902    23818201.407
  21519205.866   -21365992.09549 -16626357.32447  21519205.354    21519216.601
  23676270.042    -6597877.20149  -4844667.01345  23676269.450    23676288.189
  20728440.269   -25325209.41149 -19274030.42547  20728439.740    20728450.546
  24286974.655    -2994163.79749  -1969833.68845  24286974.438    24286993.093
  22339031.836   -16165771.42549 -12571122.53947  22339031.540    22339043.839
  20358763.250   -27347287.15049 -21072634.02748  20358762.522    20358772.937
  23695142.812    -8876389.96449  -6050326.38845  23695142.964    23695156.010
  20567061.642   -25810689.62249 -19549748.54348  20567061.200    20567070.113
  20614825.743   -22560079.22449 -16378481.05648  20614825.563    20614835.383
 02  4  5  0 29 30.0000000  0 11G 6G23G21G14G17G 9G 3G15G26G18G29
  24075466.630   -10090790.91649  -7673623.35345  24075466.321    24075486.420
  23832747.153    -6159762.04249  -4261480.02045  23832746.523    23832760.038
  21513732.163   -21394756.44249 -16648771.03247  21513731.634    21513742.864
  23655150.839    -6708857.37049  -4931144.60145  23655150.360    23655168.695
  20732844.767   -25302063.63149 -19255994.76347  20732844.241    20732855.036
  24274402.559    -3060229.25149  -2021312.99445  24274402.352    24274420.843
  22327958.234   -16223963.39349 -12616466.83047  22327957.887    22327970.157
  20359955.121   -27341023.79549 -21067753.47448  20359954.407    20359964.795
  23713970.531    -8777449.97749  -5973230.35245  23713970.670    23713983.659
  20571891.698   -25785307.47349 -19529970.23048  20571891.246    20571900.159
  20612669.274   -22571411.34949 -16387311.23248  20612669.096    20612678.903
 02  4  5  0 30  0.0000000  0 11G 6G23G21G14G17G 9G 3G15G26G18G29
  24096676.385    -9979334.46049  -7586774.54145  24096676.068    24096696.308
  23847303.022    -6083270.51949  -4201876.29345  23847302.455    23847315.975
  21508302.014   -21423291.62049 -16671006.15947  21508301.493    21508312.722
  23634056.869    -6819704.84349  -5017518.77445  23634056.374    23634074.557
  20737307.259   -25278613.09349 -19237721.63247  20737306.721    20737317.539
  24261874.298    -3126064.62549  -2072613.03345  24261873.995    24261892.444
  22316973.585   -16281687.62549 -12661446.65647  22316973.241    22316985.524
  20361207.186   -27334443.96149 -21062626.31448  20361206.470    20361216.887
  23732856.852    -8678202.14149  -5895894.44545  23732856.954    23732870.083
  20576775.720   -25759641.56249 -19509970.80548  20576775.265    20576784.206
  20610620.098   -22582179.50349 -16395701.95648  20610619.935    20610629.727
 02  4  5  0 30 30.0000000  0 11G 6G23G21G14G17G 9G 3G15G26G18G29
  24117901.483    -9867797.13849  -7499862.69245  24117901.234    24117921.410
  23861855.701    -6006795.98849  -4142285.80245  23861855.131    23861868.676
  21502915.155   -21451599.58549 -16693064.24547  21502914.622    21502925.819
  23612988.480    -6930418.32049  -5103788.54745  23612987.989    23613006.126
  20741827.623   -25254858.44049 -19219211.52647  20741827.092    20741837.908
  24249389.913    -3191668.06349  -2123732.34545  24249389.837    24249408.322
  22306078.090   -16338943.39249 -12706061.44147  22306077.764    22306090.068
  20362519.324   -27327548.54749 -21057253.24948  20362518.622    20362529.008
  23751800.727    -8578651.10449  -5818322.27845  23751800.860    23751814.042
  20581713.238   -25733694.57149 -19489752.35948  20581712.787    20581721.728
  20608678.039   -22592384.87449 -16403654.15048  20608677.879    20608687.661
 02  4  5  0 31  0.0000000  0 11G 6G23G21G14G17G 9G 3G15G26G18G29
  24139141.373    -9756182.30349  -7412890.46445  24139141.119    24139161.377
  23876404.897    -5930340.09049  -4082709.83845  23876404.309    23876417.809
  21497571.256   -21479681.55849 -16714946.22547  21497570.712    21497581.909
  23591945.855    -7040996.34749  -5189952.77645  23591945.327    23591963.348
  20746405.793   -25230799.91849 -19200464.63647  20746405.253    20746416.104
  24236950.311    -3257037.47849  -2174669.32845  24236950.219    24236968.474
  22295271.854   -16395729.94649 -12750310.60047  22295271.545    22295283.829
  20363891.532   -27320337.44849 -21051634.19648  20363890.822    20363901.218
  23770801.682    -8478800.72749  -5740516.85245  23770801.836    23770815.064
  20586703.791   -25707469.04749 -19469316.87048  20586703.342    20586712.275
  20606842.940   -22602028.48449 -16411168.60948  20606842.740    20606852.504
 02  4  5  0 31 30.0000000  0 11G 6G23G21G14G17G 9G 3G15G26G18G29
  24160396.284    -9644488.28249  -7325856.52345  24160396.215    24160416.406
  23890951.151    -5853899.33549  -4023145.67045  23890950.529    23890963.950
  21492270.945   -21507534.47749 -16736649.72947  21492270.431    21492281.621
  23570930.179    -7151431.95649  -5276006.06845  23570929.746    23570947.586
  20751042.796   -25206432.23249 -19181476.84247  20751042.262    20751053.111
  24224556.456    -3322165.28249  -2225418.01445  24224556.449    24224574.684
  22284556.200   -16452041.04549 -12794189.28847  22284555.843    22284568.114
  20365324.795   -27312805.65349 -21045765.25348  20365324.070    20365334.434
  23789859.820    -8378649.69049  -5662477.15145  23789859.983    23789873.264
  20591747.963   -25680961.71849 -19448661.79648  20591747.520    20591756.444
  20605115.569   -22611105.77549 -16418241.78248  20605115.346    20605125.100
 02  4  5  0 32  0.0000000  0 11G 6G23G21G14G17G 9G 3G15G26G18G29
  24181665.144    -9532720.88349  -7238765.40645  24181664.982    24181685.444
  23905493.752    -5777477.82949  -3963596.50645  23905493.022    23905506.527
  21487013.543   -21535161.96549 -16758177.57647  21487013.021    21487024.218
  23549941.633    -7261725.60249  -5361948.74345  23549941.276    23549958.934
  20755738.156   -25181758.03849 -19162250.20547  20755737.632    20755748.448
  24212208.677    -3387051.75149  -2275978.66145  24212208.518    24212226.779
  22273930.642   -16507877.87649 -12837698.40447  22273930.329    22273942.601
  20366818.674   -27304955.33849 -21039648.11148  20366817.935    20366828.307
  23808973.931    -8278204.35549  -5584208.11545  23808974.080    23808987.417
  20596844.783   -25654177.58549 -19427791.02648  20596844.352    20596853.276
  20603495.293   -22619620.16149 -16424876.32648  20603495.067    20603504.814
 02  4  5  0 32 30.0000000  0 11G 6G23G21G14G17G 9G 3G15G26G18G29
  24202947.629    -9420882.01549  -7151618.59245  24202947.437    24202968.111
  23920032.570    -5701075.92249  -3904062.61745  23920031.936    23920045.361
  21481798.934   -21562564.53249 -16779530.14947  21481798.411    21481809.596
  23528980.549    -7371874.48749  -5447778.60045  23528980.177    23528997.942
  20760492.132   -25156775.86549 -19142783.58547  20760491.581    20760502.402
  24199907.418    -3451693.11949  -2326348.32745  24199907.284    24199925.570
  22263395.856   -16563238.15749 -12880836.17947  22263395.512    22263407.801
  20368373.367   -27296785.18349 -21033281.74548  20368372.629    20368382.998
  23828143.634    -8177467.28549  -5505711.76045  23828143.809    23828157.147
  20601994.156   -25627117.43449 -19406705.17748  20601993.727    20602002.634
  20601982.220   -22627571.14449 -16431071.86048  20601982.015    20601991.745
 02  4  5  0 33  0.0000000  0 11G 6G23G21G14G17G 9G 3G15G26G18G29
  24224243.162    -9308974.68149  -7064418.44045  24224242.945    24224263.669
  23934567.435    -5624694.99549  -3844545.07745  23934566.814    23934580.194
  21476626.992   -21589743.06649 -16800708.15347  21476626.471    21476637.621
  23508047.502    -7481876.20549  -5533493.82745  23508047.218    23508064.745
  20765304.681   -25131485.68849 -19123076.96247  20765304.149    20765314.968
  24187653.258    -3516086.62049  -2376524.84845  24187653.078    24187671.451
  22252951.962   -16618120.69349 -12923601.69347  22252951.642    22252963.922
  20369988.963   -27288295.04449 -21026666.04548  20369988.251    20369998.604
  23847368.211    -8076441.89349  -5426990.74345  23847368.320    23847381.767
  20607195.682   -25599783.04449 -19385405.63848  20607195.276    20607204.188
  20600576.307   -22634959.02549 -16436828.61548  20600576.098    20600585.825
 02  4  5  0 33 30.0000000  0 11G 6G23G21G14G17G 9G 3G15G26G18G29
  24245551.492    -9196999.80149  -6977165.65245  24245551.404    24245572.169
  23949098.444    -5548334.24549  -3785043.25445  23949097.815    23949111.129
  21471497.866   -21616696.56649 -16821710.81047  21471497.342    21471508.452
  23487143.410    -7591726.73549  -5619091.24245  23487143.090    23487160.413
  20770176.334   -25105885.06649 -19103128.44047  20770175.787    20770186.623
  24175447.473    -3580227.56949  -2426504.56045  24175447.287    24175465.587
  22242599.669   -16672522.09849 -12965992.31747  22242599.339    22242611.561
  20371665.936   -27279482.38749 -21019799.02548  20371665.220    20371675.571
  23866647.342    -7975129.64949  -5348046.20845  23866647.373    23866660.879
  20612449.481   -25572174.26649 -19363892.29248  20612449.058    20612457.945
  20599277.811   -22641782.52049 -16442145.58148  20599277.607    20599287.317
 02  4  5  0 34  0.0000000  0 11G 6G23G21G14G17G 9G 3G15G26G18G29
  24266871.520    -9084963.55849  -6889865.05045  24266871.414    24266892.362
  23963624.788    -5471998.22749  -3725560.70545  23963624.138    23963637.479
  21466410.645   -21643429.80149 -16842541.82447  21466410.124    21466421.205
  23466267.705    -7701427.34049  -5704571.83045  23466267.422    23466284.750
  20775106.465   -25079976.89749 -19082940.26447  20775105.934    20775116.805
  24163289.642    -3644116.37249  -2476287.78245  24163289.464    24163307.657
  22232338.529   -16726444.03749 -13008009.32547  22232338.263    22232350.461
  20373403.829   -27270349.70549 -21012682.63248  20373403.107    20373413.446
  23885979.742    -7873537.35749  -5268883.44645  23885979.810    23885993.348
  20617754.485   -25544296.25049 -19342169.14748  20617754.056    20617762.939
  20598085.977   -22648045.36949 -16447025.67748  20598085.782    20598095.491
 02  4  5  0 34 30.0000000  0 11G 6G23G21G14G17G 9G 3G15G26G18G29
  24288203.911    -8972862.56249  -6802513.98845  24288203.865    24288224.866
  23978147.382    -5395681.61949  -3666093.29345  23978146.675    23978160.075
  21461366.310   -21669937.62249 -16863197.19447  21461365.786    21461376.840
  23445422.283    -7810969.22649  -5789928.76245  23445421.992    23445439.183
  20780096.459   -25053754.21049 -19062507.01347  20780095.949    20780106.820
  24151181.289    -3707743.79849  -2525867.33045  24151181.136    24151199.436
  22222170.209   -16779878.75549 -13049646.68347  22222169.912    22222182.128
  20375203.849   -27260890.60549 -21005311.88948  20375203.130    20375213.453
  23905366.039    -7771661.94149  -5189500.07345  23905366.139    23905379.635
  20623111.630   -25516144.30849 -19320232.55848  20623111.177    20623120.067
  20597001.989   -22653741.58849 -16451464.24648  20597001.792    20597011.495
 02  4  5  0 35  0.0000000  0 11G 6G23G21G14G17G 9G 3G15G26G18G29
  24309547.087    -8860705.17849  -6715118.98145  24309547.010    24309568.015
  23992665.038    -5319390.98149  -3606646.09345  23992664.284    23992677.776
  21456363.793   -21696226.04649 -16883681.60847  21456363.239    21456374.270
  23424606.552    -7920355.69949  -5875164.60245  23424606.203    23424623.058
  20785145.319   -25027222.36349 -19041832.85847  20785144.794    20785155.675
  24139122.248    -3771112.86649  -2575245.54445  24139122.163    24139140.351
  22212093.806   -16832830.38049 -13090907.61047  22212093.488    22212105.677
  20377065.025   -27251109.86549 -20997690.51548  20377064.302    20377074.639
  23924804.580    -7669512.25449  -5109902.98445  23924804.673    23924818.156
  20628519.504   -25487725.65749 -19298088.14148  20628519.044    20628527.922
  20596024.727   -22658877.06649 -16455465.87448  20596024.509    20596034.203
 02  4  5  0 35 30.0000000  0 11G 6G23G21G14G17G 9G 3G15G26G18G29
  24330900.873    -8748491.31549  -6627679.97245  24330900.798    24330921.957
  24007178.038    -5243124.59649  -3547217.81645  24007177.367    24007190.854
  21451403.316   -21722293.25249 -16903993.64847  21451402.773    21451413.777
  23403821.167    -8029581.64249  -5960275.35645  23403820.832    23403837.683
  20790253.634   -25000378.00749 -19020915.19347  20790253.097    20790264.004
  24127113.702    -3834217.82649  -2624417.98845  24127113.567    24127131.682
  22202110.136   -16885294.53749 -13131788.70247  22202109.809    22202121.985
  20378988.069   -27241004.14449 -20989815.92048  20378987.371    20378997.677
  23944295.146    -7567088.81549  -5030092.58645  23944295.249    23944308.763
  20633978.353   -25459039.16549 -19275735.02248  20633977.894    20633986.759
  20595154.552   -22663449.66149 -16459028.90148  20595154.332    20595164.012
 02  4  5  0 36  0.0000000  0 11G 6G23G21G14G17G 9G 3G15G26G18G29
  24352265.454    -8636220.94349  -6540196.93545  24352265.417    24352286.611
  24021686.868    -5166880.66249  -3487807.03645  24021686.133    24021699.644
  21446485.224   -21748137.71149 -16924132.11947  21446484.668    21446495.679
  23383067.440    -8138641.98249  -6045257.08945  23383067.110    23383083.835
  20795422.003   -24973217.91849 -18999751.49747  20795421.479    20795432.379
  24115156.512    -3897053.21749  -2673380.37645  24115156.324    24115174.346
  22192220.056   -16937267.07849 -13172286.71647  22192219.706    22192231.850
  20380973.588   -27230570.11049 -20981685.49248  20380972.886    20380983.186
  23963837.772    -7464392.13649  -4950069.26945  23963837.790    23963851.291
  20639488.364   -25430083.75849 -19253172.35548  20639487.910    20639496.766
  20594391.955   -22667456.93449 -16462151.41048  20594391.749    20594401.426
 02  4  5  0 36 30.0000000  0 11G 6G23G21G14G17G 9G 3G15G26G18G29
  24373639.501    -8523900.92549  -6452675.19945  24373639.410    24373660.785
  24036190.432    -5090664.37749  -3428417.78245  24036189.662    24036203.250
  21441608.515   -21773764.60249 -16944101.05247  21441607.964    21441618.959
  23362344.851    -8247538.58349  -6130111.21345  23362344.427    23362361.147
  20800649.821   -24945745.64549 -18978344.54147  20800649.300    20800660.184
  24103250.388    -3959620.19049  -2722133.56645  24103250.237    24103268.095
  22182423.034   -16988750.43849 -13212403.54947  22182422.688    22182434.805
  20383020.897   -27219811.41949 -20973302.08148  20383020.169    20383030.482
  23983430.984    -7361429.68549  -4869838.85145  23983430.926    23983444.415
  20645048.512   -25400865.02949 -19230404.50348  20645048.041    20645056.903
  20593736.065   -22670903.48349 -16464836.99348  20593735.853    20593745.533
 02  4  5  0 37  0.0000000  0 11G 6G23G21G14G17G 9G 3G15G26G18G29
  24395022.704    -8411533.19449  -6365116.30345  24395022.507    24395044.067
  24050688.651    -5014476.02849  -3369050.31245  24050687.865    24050701.484
  21436773.240   -21799173.88249 -16963900.41447  21436772.701    21436783.682
  23341653.879    -8356268.26449  -6214835.27945  23341653.461    23341670.175
  20805937.242   -24917960.19749 -18956693.55147  20805936.720    20805947.611
  24091396.154    -4021915.00349  -2770674.72045  24091396.054    24091413.628
  22172719.455   -17039742.33949 -13252137.42047  22172719.176    22172731.272
  20385130.274   -27208726.55349 -20964664.51348  20385129.538    20385139.850
  24003074.253    -7258203.85349  -4789403.21445  24003074.147    24003087.658
  20650658.579   -25371383.81949 -19207432.12448  20650658.117    20650666.993
  20593186.944   -22673788.87049 -16467085.31248  20593186.734    20593196.408
 02  4  5  0 37 30.0000000  0 11G 6G23G21G14G17G 9G 3G15G26G18G29
  24416415.033    -8299117.32749  -6277519.89345  24416414.808    24416436.530
  24065181.864    -4938313.38349  -3309702.86945  24065181.162    24065194.767
  21431979.843   -21824362.81249 -16983528.07847  21431979.319    21431990.295
  23320995.967    -8464825.54049  -6299425.05145  23320995.611    23321011.968
  20811284.972   -24889857.74649 -18934795.55147  20811284.448    20811295.327
  24079594.813    -4083931.47249  -2818998.99645  24079594.684    24079612.096
  22163110.427   -17090238.21249 -13291484.78347  22163110.088    22163122.159
  20387302.408   -27197311.84449 -20955769.92448  20387301.675    20387311.989
  24022767.684    -7154714.80849  -4708762.47045  24022767.524    24022781.166
  20656318.887   -25341638.59349 -19184254.01448  20656318.438    20656327.297
  20592745.134   -22676110.51249 -16468894.34248  20592744.949    20592754.595
 02  4  5  0 38  0.0000000  0 11G 6G23G21G14G17G 9G 3G15G26G18G29
  24437815.770    -8186657.12349  -6189888.94045  24437815.521    24437837.309
  24079669.846    -4862178.39449  -3250376.97445  24079669.173    24079682.870
  21427227.884   -21849334.14449 -17002986.18847  21427227.379    21427238.328
  23300371.065    -8573209.11849  -6383879.42245  23300370.590    23300387.069
  20816692.971   -24861438.74949 -18912650.89247  20816692.424    20816703.289
  24067846.805    -4145667.83049  -2867104.98345  24067846.667    24067863.845
  22153595.721   -17140237.69949 -13330445.34747  22153595.455    22153607.493
  20389537.202   -27185567.88149 -20946618.77148  20389536.458    20389546.777
  24042510.365    -7050966.82449  -4627919.95345  24042510.196    24042523.777
  20662028.869   -25311632.29849 -19160872.47848  20662028.445    20662037.287
  20592410.277   -22677870.01549 -16470265.34848  20592410.081    20592419.705
 02  4  5  0 38 30.0000000  0 11G 6G23G21G14G17G 9G 3G15G26G18G29
  24459224.404    -8074155.15849  -6102225.44745  24459224.111    24459246.202
  24094152.397    -4786071.85349  -3191073.26045  24094151.835    24094165.485
  21422517.241   -21874088.51049 -17022275.23947  21422516.720    21422527.644
  23279779.559    -8681416.37549  -6468196.42245  23279779.145    23279795.605
  20822161.304   -24832702.49949 -18890259.02447  20822160.758    20822171.638
  24056152.573    -4207121.08049  -2914990.38645  24056152.362    24056169.392
  22144175.927   -17189739.16649 -13369017.85847  22144175.566    22144187.570
  20391834.766   -27173493.95149 -20937210.50648  20391834.027    20391844.336
  24062301.679    -6946962.77049  -4546877.90545  24062301.575    24062315.120
  20667788.336   -25281366.13549 -19137288.44648  20667787.908    20667796.742
  20592182.371   -22679067.44949 -16471198.37148  20592182.189    20592191.807
 02  4  5  0 39  0.0000000  0 11G 6G23G21G14G17G 9G 3G15G26G18G29
  24480640.443    -7961614.23749  -6014531.61945  24480640.205    24480662.470
  24108629.396    -4709994.61749  -3131792.36645  24108628.913    24108642.660
  21417847.678   -21898626.98149 -17041396.06347  21417847.173    21417858.061
  23259222.246    -8789444.79249  -6552374.08745  23259221.816    23259237.847
  20827690.114   -24803648.49049 -18867619.54647  20827689.570    20827700.430
  24044512.846    -4268288.20349  -2962652.82145  24044512.592    24044529.304
  22134851.027   -17238741.05849 -13407201.07247  22134850.762    22134862.732
  20394195.244   -27161089.44249 -20927544.64748  20394194.513    20394204.817
  24082141.033    -6842706.01149  -4465638.95045  24082141.080    24082154.584
  20673596.982   -25250841.51149 -19113503.01948  20673596.537    20673605.373
  20592061.313   -22679703.46149 -16471693.93148  20592061.133    20592070.730
 02  4  5  0 39 30.0000000  0 11G 6G23G21G14G17G 9G 3G15G26G18G29
  24502063.251    -7849038.20849  -5926810.43745  24502062.894    24502085.356
  24123100.378    -4633949.00749  -3072536.11645  24123099.866    24123113.732
  21413218.867   -21922951.33949 -17060350.04947  21413218.357    21413229.229
  23238699.082    -8897293.50249  -6636411.71646  23238698.644    23238714.692
  20833279.210   -24774277.68349 -18844733.21547  20833278.641    20833289.521
  24032927.399    -4329167.85449  -3010091.24845  24032927.171    24032944.015
  22125621.387   -17287243.44449 -13444995.07247  22125621.021    22125632.992
  20396618.545   -27148354.95149 -20917621.66048  20396617.825    20396628.124
  24102027.766    -6738200.98349  -4384206.53945  24102027.773    24102041.223
  20679454.218   -25220061.41449 -19089518.52148  20679453.772    20679462.606
  20592046.734   -22679779.99049 -16471753.52848  20592046.543    20592056.141
 02  4  5  0 40  0.0000000  0 11G 6G23G21G14G17G 9G 3G15G26G18G29
  24523493.187    -7736425.35249  -5839060.53645  24523492.868    24523515.099
  24137566.119    -4557931.38249  -3013301.66445  24137565.661    24137579.534
  21408631.346   -21947058.56149 -17079134.83647  21408630.863    21408641.714
  23218211.306    -9004955.78049  -6720304.03746  23218210.908    23218227.024
  20838929.505   -24744585.23549 -18821596.25547  20838928.950    20838939.827
  24021398.202    -4389752.49249  -3057299.80245  24021397.923    24021414.781
  22116487.773   -17335240.13949 -13482395.00747  22116487.464    22116499.423
  20399105.537   -27135285.60949 -20907437.74948  20399104.824    20399115.101
  24121961.868    -6633446.66149  -4302579.86245  24121961.874    24121975.461
  20685360.610   -25189023.09949 -19065332.81448  20685360.153    20685368.991
  20592139.331   -22679293.14749 -16471374.13048  20592139.149    20592148.736
 02  4  5  0 40 30.0000000  0 10G23G21G14G17G 9G 3G15G26G18G29
  24152026.029    -4481944.59549  -2954091.25345  24152025.471    24152039.382
  21404084.675   -21970951.45149 -17097752.61847  21404084.151    21404094.977
  23197759.329    -9112431.08649  -6804050.74945  23197758.876    23197774.540
  20844640.738   -24714572.53049 -18798209.76147  20844640.176    20844651.039
  24009925.485    -4450041.44449  -3104277.95445  24009925.215    24009941.828
  22107450.358   -17382731.85049 -13519401.45747  22107450.041    22107461.974
  20401656.023   -27121882.76149 -20896993.96448  20401655.298    20401665.585
  24141942.408    -6528448.16349  -4220762.93245  24141942.441    24141956.034
  20691315.458   -25157730.19249 -19040948.72548  20691314.991    20691323.833
  20592338.711   -22678245.43449 -16470557.69548  20592338.511    20592348.077
 02  4  5  0 41  0.0000000  0 10G23G21G14G17G 9G 3G15G26G18G29
  24166480.586    -4405985.81249  -2894902.65345  24166480.094    24166493.928
  21399579.274   -21994627.05849 -17116201.08247  21399578.760    21399589.585
  23177343.958    -9219713.52749  -6887647.11546  23177343.480    23177359.133
  20850413.771   -24684235.16449 -18774570.27147  20850413.219    20850424.084
  23998510.285    -4510027.82749  -3151020.35445  23998510.038    23998526.459
  22098509.937   -17429713.38149 -13556010.36747  22098509.680    22098521.603
  20404270.816   -27108141.75649 -20886286.68548  20404270.098    20404280.381
  24161969.612    -6423204.81449  -4138755.18545  24161969.706    24161983.238
  20697319.189   -25126180.28249 -19016364.37948  20697318.734    20697327.577
  20592645.370   -22676633.75149 -16469301.80248  20592645.169    20592654.718
 02  4  5  0 41 30.0000000  0 10G23G21G14G17G 9G 3G15G26G18G29
  24180928.017    -4330064.49649  -2835743.25845  24180927.502    24180941.368
  21395113.487   -22018094.78949 -17134487.57147  21395112.962    21395123.782
  23156964.055    -9326808.96149  -6971097.78946  23156963.618    23156979.216
  20856247.007   -24653581.29549 -18750684.15847  20856246.461    20856257.324
  23987151.448    -4569717.38749  -3197531.46345  23987151.221    23987167.487
  22089665.331   -17476191.75249 -13592227.20347  22089665.093    22089676.997
  20406948.476   -27094070.61849 -20875322.15748  20406947.764    20406958.041
  24182041.194    -6317728.23249  -4056565.72245  24182041.281    24182054.813
  20703369.907   -25094383.53449 -18991587.69448  20703369.466    20703378.277
  20593057.632   -22674467.16649 -16467613.51848  20593057.443    20593066.966
 02  4  5  0 42  0.0000000  0 10G23G21G14G17G 9G 3G15G26G18G29
  24195369.224    -4254175.96349  -2776609.41845  24195368.705    24195382.529
  21390688.163   -22041349.81249 -17152608.30347  21390687.635    21390698.431
  23136621.418    -9433709.55449  -7054396.64146  23136620.881    23136636.435
  20862141.645   -24622604.91349 -18726546.73347  20862141.100    20862151.978
  23975850.740    -4629101.80349  -3243804.78945  23975850.445    23975866.628
  22080917.818   -17522160.25049 -13628046.73047  22080917.489    22080929.390
  20409690.084   -27079663.38749 -20864095.73848  20409689.346    20409699.607
  24202157.598    -6212016.12249  -3974192.73645  24202157.566    24202171.151
  20709468.423   -25062335.62249 -18966615.29048  20709467.974    20709476.787
  20593576.403   -22671740.89249 -16465489.11148  20593576.204    20593585.709
 02  4  5  0 42 30.0000000  0 10G23G21G14G17G 9G 3G15G26G18G29
  24209803.642    -4178323.06449  -2717503.31945  24209803.142    24209816.966
  21386302.634   -22064395.54049 -17170565.95747  21386302.101    21386312.908
  23116315.721    -9540415.24649  -7137543.61646  23116315.218    23116330.699
  20868097.357   -24591307.53049 -18702159.17647  20868096.807    20868107.694
  23964608.219    -4688180.25849  -3289839.71045  23964607.948    23964623.872
  22072267.126   -17567619.61849 -13663469.53747  22072266.828    22072278.705
  20412495.408   -27064921.41149 -20852608.47948  20412494.664    20412504.930
  24222317.769    -6106073.96949  -3891640.48145  24222317.808    24222331.316
  20715613.937   -25030040.68849 -18941450.40548  20715613.489    20715622.310
  20594201.176   -22668457.35149 -16462930.46948  20594200.991    20594210.495
 02  4  5  0 43  0.0000000  0 10G23G21G14G17G 9G 3G15G26G18G29
  24224231.776    -4102503.09849  -2658422.91245  24224231.284    24224245.146
  21381957.512   -22087229.19449 -17188358.36047  21381956.979    21381967.746
  23096048.183    -9646920.08049  -7220534.10246  23096047.760    23096063.036
  20874114.842   -24559685.40649 -18677518.57147  20874114.291    20874125.183
  23953425.117    -4746946.20849  -3335631.14345  23953424.810    23953440.690
  22063714.291   -17612565.12849 -13698491.93747  22063713.909    22063725.767
  20415365.136   -27049840.94749 -20840857.46148  20415364.387    20415374.639
  24242521.932    -5999901.24949  -3808908.55845  24242521.841    24242535.373
  20721806.873   -24997496.61349 -18916091.38248  20721806.422    20721815.249
  20594932.497   -22664614.19049 -16459935.75948  20594932.305    20594941.806
 02  4  5  0 43 30.0000000  0 10G23G21G14G17G 9G 3G15G26G18G29
  24238653.085    -4026719.06449  -2599370.48245  24238652.540    24238666.372
  21377652.125   -22109853.71149 -17205987.80247  21377651.620    21377662.387
  23075819.053    -9753223.95149  -7303367.96046  23075818.633    23075834.019
  20880193.802   -24527740.31449 -18652626.30947  20880193.253    20880204.136
  23942301.754    -4805399.19149  -3381178.68345  23942301.430    23942317.181
  22055259.019   -17656997.66749 -13733114.61847  22055258.662    22055270.494
  20418298.925   -27034423.67849 -20828844.00448  20418298.186    20418308.428
  24262768.845    -5893503.55749  -3726001.34345  24262768.764    24262782.262
  20728046.472   -24964707.19849 -18890541.19148  20728046.042    20728054.852
  20595769.726   -22660214.43749 -16456507.34748  20595769.516    20595779.015
 02  4  5  0 44  0.0000000  0 10G23G21G14G17G 9G 3G15G26G18G29
  24253067.659    -3950970.13649  -2540345.41845  24253067.111    24253080.891
  21373386.636   -22132268.70949 -17223453.97647  21373386.133    21373396.888
  23055628.725    -9859322.86249  -7386042.15746  23055628.311    23055643.500
  20886334.694   -24495469.87149 -18627480.52247  20886334.132    20886345.016
  23931238.705    -4863534.58349  -3426478.76145  23931238.499    23931254.009
  22046901.920   -17700914.07549 -13767335.12647  22046901.568    22046913.356
  20421297.303   -27018667.11149 -20816566.15248  20421296.551    20421306.799
  24283058.218    -5786882.22449  -3642919.86145  24283058.158    24283071.712
  20734332.778   -24931672.37349 -18864799.77048  20734332.351    20734341.156
  20596713.098   -22655256.79549 -16452644.21448  20596712.892    20596722.372
 02  4  5  0 44 30.0000000  0 10G23G21G14G17G 9G 3G15G26G18G29
  24267474.976    -3875259.52249  -2481350.20245  24267474.427    24267488.314
  21369160.438   -22154477.33349 -17240759.34047  21369159.929    21369170.684
  23035477.738    -9965216.57349  -7468556.45146  23035477.282    23035492.302
  20892537.105   -24462876.13749 -18602082.82447  20892536.538    20892547.430
  23920236.163    -4921352.18849  -3471531.25045  23920236.025    23920251.391
  22038642.914   -17744315.48549 -13801154.34147  22038642.505    22038654.261
  20424359.814   -27002573.37449 -20804025.58048  20424359.090    20424369.327
  24303389.097    -5680042.82049  -3559668.44445  24303389.084    24303402.644
  20740665.106   -24898395.90249 -18838870.05648  20740664.677    20740673.477
  20597762.039   -22649744.42949 -16448348.83248  20597761.826    20597771.290
 02  4  5  0 45  0.0000000  0 10G23G21G14G17G 9G 3G15G26G18G29
  24281875.425    -3799584.85849  -2422383.00645  24281874.877    24281888.744
  21364973.909   -22176477.50349 -17257902.27747  21364973.377    21364984.109
  23015366.588   -10070899.74049  -7550906.67746  23015366.204    23015381.249
  20898801.663   -24429955.57949 -18576430.45447  20898801.121    20898812.013
  23909295.263    -4978845.95249  -3516331.35745  23909295.060    23909310.505
  22030482.634   -17787197.62549 -13834568.93647  22030482.245    22030493.991
  20427487.246   -26986138.48049 -20791219.16248  20427486.515    20427496.748
  24323761.459    -5572985.61349  -3476247.31445  24323761.520    24323774.941
  20747043.650   -24864876.41549 -18812750.97348  20747043.221    20747052.027
  20598916.915   -22643675.28249 -16443619.59048  20598916.697    20598926.178
 02  4  5  0 45 30.0000000  0 10G23G21G14G17G 9G 3G15G26G18G29
  24296268.815    -3723947.75749  -2363445.07145  24296268.184    24296282.076
  21360826.804   -22198270.37149 -17274883.68147  21360826.278    21360836.982
  22995295.840   -10176371.03549  -7633091.79746  22995295.299    22995310.407
  20905128.373   -24396708.49449 -18550523.64947  20905127.831    20905138.734
  23898416.253    -5036013.79749  -3560877.49345  23898416.121    23898431.597
  22022421.284   -17829559.97549 -13867578.49947  22022420.875    22022432.625
  20430679.580   -26969362.74449 -20778147.16148  20430678.865    20430689.091
  24344174.547    -5465714.17649  -3392659.25345  24344174.718    24344188.098
  20753468.056   -24831115.91549 -18786444.09048  20753467.623    20753476.421
  20600177.484   -22637050.79049 -16438457.61748  20600177.264    20600186.736
 02  4  5  0 46  0.0000000  0 10G23G21G14G17G 9G 3G15G26G18G29
  24310654.908    -3648348.52249  -2304536.64345  24310654.184    24310668.151
  21356718.984   -22219857.05249 -17291704.41947  21356718.452    21356729.156
  22975265.966   -10281627.38449  -7715109.46446  22975265.555    22975280.441
  20911517.477   -24363133.93649 -18524361.67047  20911516.908    20911527.782
  23887599.991    -5092852.21649  -3605166.93045  23887599.929    23887615.564
  22014459.158   -17871400.77949 -13900181.66547  22014458.777    22014470.520
  20433936.978   -26952244.86349 -20764808.54448  20433936.260    20433946.497
  24364627.960    -5358231.19349  -3308906.34645  24364628.119    24364641.628
  20759938.096   -24797115.60049 -18759950.33048  20759937.654    20759946.486
  20601543.712   -22629871.10249 -16432863.01648  20601543.498    20601552.956
 02  4  5  0 46 30.0000000  0 10G23G21G14G17G 9G 3G15G26G18G29
  24325033.412    -3572789.05649  -2245659.20145  24325032.750    24325046.710
  21352650.030   -22241239.23149 -17308365.81147  21352649.498    21352660.171
  22955277.247   -10386667.57649  -7796958.66946  22955276.773    22955291.651
  20917968.669   -24329232.67949 -18497945.12347  20917968.102    20917978.975
  23876846.728    -5149359.71349  -3649198.50045  23876846.773    23876862.472
  22006596.352   -17912720.15349 -13932378.52047  22006595.951    22006607.677
  20437259.342   -26934785.67249 -20751203.97348  20437258.610    20437268.863
  24385120.788    -5250541.05249  -3224991.99745  24385120.992    24385134.428
  20766453.273   -24762878.05049 -18733271.71748  20766452.844    20766461.662
  20603015.147   -22622138.38549 -16426837.49648  20603014.960    20603024.417
 02  4  5  0 47  0.0000000  0 10G23G21G14G17G 9G 3G15G26G18G29
  24339404.583    -3497267.99849  -2186811.70245  24339403.991    24339417.923
  21348620.196   -22262416.07149 -17324867.20247  21348619.658    21348630.298
  22935330.441   -10491487.34749  -7878636.13746  22935330.081    22935344.801
  20924482.511   -24295002.21749 -18471272.05147  20924481.962    20924492.841
  23866157.409    -5205531.54549  -3692968.54145  23866157.463    23866173.128
  21998833.281   -17953514.80349 -13964166.50047  21998832.925    21998844.618
  20440647.144   -26916982.58249 -20737331.42848  20440646.425    20440656.679
  24405652.842    -5142644.86049  -3140917.11745  24405652.918    24405666.377
  20773013.733   -24728402.65449 -18706407.77148  20773013.282    20773022.095
  20604592.095   -22613851.37449 -16420380.05648  20604591.898    20604601.351
 02  4  5  0 47 30.0000000  0 10G23G21G14G17G 9G 3G15G26G18G29
  24353768.297    -3421786.60449  -2127995.10845  24353767.637    24353781.681
  21344629.235   -22283388.59449 -17341209.38347  21344628.691    21344639.339
  22915426.102   -10596084.57449  -7960140.19346  22915425.622    22915440.310
  20931059.015   -24260442.46249 -18444342.38547  20931058.450    20931069.338
  23855532.614    -5261365.24749  -3736475.09345  23855532.629    23855548.141
  21991170.282   -17993783.81149 -13995544.89447  21991169.930    21991181.632
  20444100.382   -26898835.63649 -20723190.94348  20444099.654    20444109.925
  24426223.392    -5034546.19349  -3056684.44745  24426223.377    24426236.963
  20779619.066   -24693691.34749 -18679359.99448  20779618.629    20779627.423
  20606274.240   -22605011.51049 -16413491.82248  20606274.053    20606283.489
 02  4  5  0 48  0.0000000  0 10G23G21G14G17G 9G 3G15G26G18G29
  24368124.370    -3346345.15949  -2069209.64245  24368123.689    24368137.761
  21340677.039   -22304157.23749 -17357392.70847  21340676.507    21340687.127
  22895564.592   -10700456.74449  -8041468.89646  22895564.111    22895578.676
  20937698.300   -24225552.80749 -18417155.66047  20937697.753    20937708.632
  23844972.624    -5316857.66549  -3779715.71945  23844972.579    23844987.994
  21983607.672   -18033525.46749 -14026512.37647  21983607.305    21983618.967
  20447619.276   -26880343.74249 -20708781.67348  20447618.548    20447628.822
  24446832.003    -4926247.69849  -2972296.07545  24446831.891    24446845.632
  20786269.027   -24658745.41649 -18652129.40448  20786268.586    20786277.387
  20608061.512   -22595619.17049 -16406173.09748  20608061.326    20608070.755
 02  4  5  0 48 30.0000000  0 10G23G21G14G17G 9G 3G15G26G18G29
  24382472.627    -3270944.68649  -2010456.10945  24382471.956    24382486.046
  21336763.438   -22324723.25749 -17373418.12847  21336762.876    21336773.493
  22875746.206   -10804601.81349  -8122620.59346  22875745.621    22875760.273
  20944400.379   -24190332.97949 -18389711.64647  20944399.844    20944410.749
  23834478.126    -5372006.13949  -3822688.33545  23834478.015    23834493.384
  21976145.510   -18072738.99549 -14057068.31147  21976145.192    21976156.834
  20451203.834   -26861506.61849 -20694103.38148  20451203.097    20451213.401
  24467477.928    -4817752.86049  -2887754.68745  24467477.807    24467491.614
  20792963.383   -24623566.52449 -18624717.27148  20792962.911    20792971.711
  20609953.698   -22585675.49349 -16398424.74348  20609953.506    20609962.943
 02  4  5  0 49  0.0000000  0 10G23G21G14G17G 9G 3G15G26G18G29
  24396812.851    -3195586.69849  -1951735.66245  24396812.169    24396826.408
  21332888.058   -22345088.56249 -17389287.14947  21332887.469    21332898.083
  22855971.509   -10908517.99149  -8203593.99746  22855970.951    22855985.406
  20951165.254   -24154783.37549 -18362010.67447  20951164.720    20951175.630
  23824049.457    -5426808.68549  -3865391.38045  23824049.325    23824064.642
  21968783.845   -18111424.14049 -14087212.52447  21968783.608    21968795.256
  20454854.061   -26842324.61649 -20679156.35448  20454853.330    20454863.625
  24488160.467    -4709065.57149  -2803063.34845  24488160.409    24488174.280
  20799701.588   -24588157.02349 -18597125.45148  20799701.117    20799709.918
  20611950.445   -22575182.33049 -16390248.22348  20611950.284    20611959.681
 02  4  5  0 49 30.0000000  0 11G23G21G14G17G 9G31G 3G15G26G18G29
  24411144.926    -3120271.30649  -1893048.42345  24411144.346    24411158.500
  21329050.729   -22365253.43649 -17404999.99947  21329050.166    21329060.772
  22836240.570   -11012202.57249  -8284386.88946  22836240.100    22836254.594
  20957993.076   -24118902.97949 -18334051.94747  20957992.534    20958003.478
  23813687.017    -5481262.06749  -3907822.35145  23813686.898    23813702.209
  24435603.055    -1959650.96749  -1287009.06345  24435602.464    24435617.510
  21961523.177   -18149579.34749 -14116943.80347  21961522.884    21961534.507
  20458570.096   -26822796.67449 -20663939.77248  20458569.357    20458579.657
  24508879.205    -4600188.20749  -2718223.89645  24508879.195    24508893.008
  20806483.493   -24552517.85449 -18569354.67248  20806483.022    20806491.807
  20614051.730   -22564140.01549 -16381643.79748  20614051.539    20614060.956
 02  4  5  0 50  0.0000000  0 11G23G21G14G17G 9G31G 3G15G26G18G29
  24425468.840    -3044999.11149  -1834394.84145  24425468.110    24425482.361
  21325251.401   -22385218.99749 -17420557.54747  21325250.826    21325261.415
  22816554.548   -11115652.99449  -8364997.36646  22816554.029    22816568.343
  20964883.884   -24082691.54649 -18305835.26947  20964883.333    20964894.298
  23803391.739    -5535363.53349  -3949979.11445  23803391.586    23803406.725
  24418707.590    -2048435.67749  -1356191.78845  24418707.062    24418722.013
  21954363.480   -18187203.44849 -14146261.23147  21954363.201    21954374.803
  20462352.094   -26802922.02649 -20648453.03148  20462351.369    20462361.669
  24529633.483    -4491123.91049  -2633238.77245  24529633.468    24529647.337
  20813308.853   -24516650.39549 -18541406.00448  20813308.396    20813317.175
  20616257.267   -22552549.67249 -16372612.33348  20616257.072    20616266.481
 02  4  5  0 50 30.0000000  0 11G23G21G14G17G 9G31G 3G15G26G18G29
  24439784.975    -2969767.35749  -1775772.76345  24439784.279    24439798.622
  21321490.619   -22404981.91249 -17435957.17647  21321490.040    21321500.619
  22796913.876   -11218863.72449  -8445421.04346  22796913.495    22796927.765
  20971838.471   -24046145.06449 -18277357.50247  20971837.949    20971848.890
  23793164.623    -5589106.64749  -3991856.67545  23793164.426    23793179.608
  24401872.484    -2136904.72949  -1425128.61645  24401871.886    24401886.844
  21947305.733   -18224291.71749 -14175161.11547  21947305.487    21947317.064
  20466200.757   -26782697.00249 -20632693.26548  20466200.035    20466210.335
  24550423.350    -4381872.33349  -2548107.73145  24550423.365    24550437.328
  20820178.022   -24480552.59349 -18513277.84248  20820177.551    20820186.347
  20618567.632   -22540408.57349 -16363151.70348  20618567.423    20618576.829
 02  4  5  0 51  0.0000000  0 11G23G21G14G17G 9G31G 3G15G26G18G29
  24454092.434    -2894581.32449  -1717186.30145  24454091.625    24454106.034
  21317767.161   -22424548.41349 -17451203.75547  21317766.597    21317777.179
  22777318.593   -11321836.82349  -8525659.57346  22777318.131    22777332.308
  20978855.995   -24009267.79949 -18248621.98947  20978855.460    20978866.404
  23783005.304    -5642493.25249  -4033456.42245  23783005.098    23783020.261
  24385096.781    -2225060.29849  -1493821.07245  24385096.189    24385111.544
  21940349.347   -18260847.68449 -14203646.22647  21940349.082    21940360.648
  20470115.372   -26762125.60049 -20616663.59448  20470114.625    20470124.930
  24571247.485    -4272441.02549  -2462836.60645  24571247.589    24571261.434
  20827089.854   -24444230.55049 -18484974.95148  20827089.386    20827098.180
  20620981.664   -22527722.50949 -16353266.42748  20620981.462    20620990.875
 02  4  5  0 51 30.0000000  0 11G23G21G14G17G 9G31G 3G15G26G18G29
  24468392.248    -2819435.44949  -1658631.13345  24468391.565    24468405.741
  21314082.233   -22443912.81949 -17466292.86147  21314081.668    21314092.234
  22757770.161   -11424563.79549  -8605706.31846  22757769.674    22757783.767
  20985937.763   -23972053.03149 -18219623.48347  20985937.198    20985948.147
  23772915.487    -5695514.60449  -4074771.56445  23772915.354    23772930.430
  24368382.629    -2312893.92549  -1562262.76845  24368382.090    24368397.250
  21933495.603   -18296864.36349 -14231711.10147  21933495.287    21933506.822
  20474097.140   -26741201.23649 -20600358.88848  20474096.428    20474106.695
  24592106.361    -4162826.94349  -2377423.08245  24592106.429    24592120.299
  20834045.266   -24407679.64349 -18456493.72148  20834044.801    20834053.596
  20623500.448   -22514486.11149 -16342952.31648  20623500.238    20623509.642
 02  4  5  0 52  0.0000000  0 11G23G21G14G17G 9G31G 3G15G26G18G29
  24482683.067    -2744336.96549  -1600112.90745  24482682.391    24482696.594
  21310434.288   -22463082.70749 -17481230.39147  21310433.724    21310444.266
  22738267.777   -11527048.72349  -8685564.45646  22738267.265    22738281.356
  20993082.533   -23934507.13849 -18190366.95847  20993081.972    20993092.933
  23762894.558    -5748174.34049  -4115804.91045  23762894.351    23762909.510
  24351728.816    -2400409.67349  -1630456.74445  24351728.200    24351743.274
  21926743.432   -18332346.93649 -14259359.79547  21926743.122    21926754.673
  20478144.983   -26719929.57949 -20583783.55748  20478144.256    20478154.518
  24612998.224    -4053039.67049  -2291874.58345  24612998.306    24613012.182
  20841042.728   -24370907.71349 -18427840.27148  20841042.257    20841051.039
  20626122.438   -22500707.26049 -16332215.51548  20626122.233    20626131.621
 02  4  5  0 52 30.0000000  0 11G23G21G14G17G 9G31G 3G15G26G18G29
  24496965.614    -2669282.32949  -1541628.83745  24496964.944    24496979.092
  21306824.004   -22482054.62849 -17496013.64947  21306823.453    21306833.976
  22718812.549   -11629285.43749  -8765229.19546  22718812.074    22718826.020
  21000291.222   -23896625.44249 -18160848.76847  21000290.651    21000301.591
  23752943.699    -5800465.61749  -4156551.11945  23752943.440    23752958.698
  24335136.914    -2487600.85449  -1698397.79645  24335136.266    24335151.286
  21920093.862   -18367290.35949 -14286588.36447  21920093.565    21920105.102
  20482259.833   -26698305.95349 -20566933.96448  20482259.107    20482269.365
  24633923.268    -3943078.06349  -2206190.23645  24633923.290    24633937.277
  20848082.727   -24333912.11449 -18399012.52548  20848082.293    20848091.061
  20628848.302   -22486382.64549 -16321053.44248  20628848.086    20628857.469
 02  4  5  0 53  0.0000000  0 11G23G21G14G17G 9G31G 3G15G26G18G29
  24511239.386    -2594273.46649  -1483180.44645  24511238.803    24511252.893
  21303250.896   -22500831.23449 -17510644.72247  21303250.347    21303260.873
  22699404.717   -11731272.87649  -8844699.67846  22699404.270    22699418.299
  21007563.564   -23858408.97849 -18131069.72847  21007562.997    21007573.945
  23743063.234    -5852387.05649  -4197009.18245  23743062.920    23743078.259
  24318606.591    -2574466.57449  -1766085.22745  24318605.930    24318621.026
  21913546.783   -18401695.25449 -14313397.31247  21913546.478    21913557.992
  20486441.460   -26676331.28249 -20549810.83548  20486440.722    20486450.995
  24654880.573    -3832946.56849  -2120373.53645  24654880.622    24654894.660
  20855164.819   -24296695.52749 -18370012.58848  20855164.350    20855173.143
  20631677.539   -22471514.88949 -16309468.14648  20631677.327    20631686.682
 02  4  5  0 53 30.0000000  0 10G23G21G14G17G 9G31G 3G15G18G29
  24525504.806    -2519308.30749  -1424766.09445  24525504.226    24525518.347
  21299715.409   -22519410.13249 -17525121.73047  21299714.844    21299725.380
  22680045.410   -11833005.88649  -8923971.92946  22680044.932    22680058.736
  21014900.175   -23819854.73349 -18101027.48147  21014899.618    21014910.591
  23733254.172    -5903933.19949  -4237174.80645  23733253.900    23733269.157
  24302139.620    -2661001.51549  -1833514.96545  24302138.989    24302153.919
  21907102.769   -18435557.70049 -14339783.56247  21907102.579    21907114.089
  20490690.510   -26654002.20549 -20532411.54348  20490689.801    20490700.050
  20862289.169   -24259256.66049 -18340839.43348  20862288.718    20862297.517
  20634610.463   -22456102.13949 -16297458.17448  20634610.247    20634619.590
 02  4  5  0 54  0.0000000  0 10G23G21G14G17G 9G31G 3G15G18G29
  24539761.069    -2444391.22249  -1366389.21145  24539760.597    24539774.702
  21296216.741   -22537795.63249 -17539448.03847  21296216.156    21296226.660
  22660734.212   -11934485.88249  -9003046.98546  22660733.740    22660747.720
  21022300.479   -23780965.80749 -18070724.44147  21022299.945    21022310.901
  23723516.299    -5955105.16049  -4277048.86245  23723516.002    23723531.300
  24285734.969    -2747207.36849  -1900688.18445  24285734.357    24285749.401
  21900761.636   -18468880.47849 -14365749.30147  21900761.438    21900772.937
  20495006.361   -26631322.32849 -20514738.90348  20495005.633    20495015.917
  20869454.846   -24221600.77149 -18311497.17348  20869454.397    20869463.201
  20637646.151   -22440149.32249 -16285027.37248  20637645.925    20637655.264
 02  4  5  0 54 30.0000000  0 10G23G21G14G17G 9G31G 3G15G18G29
  24554008.824    -2369519.27749  -1308047.50845  24554008.314    24554022.429
  21292755.278   -22555985.46349 -17553621.87847  21292754.703    21292765.198
  22641472.269   -12035707.17949  -9081920.48646  22641471.715    22641485.618
  21029765.171   -23741738.82049 -18040157.98047  21029764.597    21029775.553
  23713850.815    -6005896.88949  -4316626.64945  23713850.613    23713865.633
  24269394.230    -2833078.27349  -1967600.49945  24269393.659    24269408.414
  21894524.030   -18501659.42549 -14391291.27847  21894523.757    21894535.245
  20499389.686   -26608287.76349 -20496789.88548  20499388.968    20499399.238
  20876662.234   -24183725.74749 -18281984.15948  20876661.778    20876670.573
  20640785.028   -22423654.27549 -16272174.05448  20640784.812    20640794.151
 02  4  5  0 55  0.0000000  0 10G23G21G14G17G 9G31G 3G15G18G29
  24568247.499    -2294694.76549  -1249742.75245  24568247.037    24568261.152
  21289330.491   -22573982.50749 -17567645.48547  21289329.944    21289340.437
  22622259.634   -12136669.18549  -9160591.92846  22622259.106    22622272.925
  21037293.957   -23702174.83449 -18009328.91847  21037293.395    21037304.372
  23704258.026    -6056307.31449  -4355907.32145  23704257.754    23704272.551
  24253117.189    -2918613.65849  -2034251.27845  24253116.677    24253131.669
  21888389.702   -18533895.02349 -14416409.86347  21888389.453    21888400.930
  20503840.268   -26584899.65649 -20478565.37048  20503839.547    20503849.814
  20883910.710   -24145634.75049 -18252302.84448  20883910.260    20883919.060
  20644026.549   -22406619.71949 -16258900.33748  20644026.328    20644035.676
 02  4  5  0 55 30.0000000  0 10G23G21G14G17G 9G31G 3G15G18G29
  24582477.316    -2219917.27949  -1191474.64545  24582476.826    24582490.878
  21285942.421   -22591786.66249 -17581518.79647  21285941.879    21285952.354
  22603096.996   -12237368.43849  -9239058.63346  22603096.473    22603110.259
  21044887.076   -23662272.60949 -17978236.30447  21044886.508    21044897.532
  23694738.412    -6106332.75449  -4394888.01145  23694738.104    23694752.798
  24236904.836    -3003810.10349  -2100638.03045  24236904.301    24236919.106
  21882359.193   -18565585.49549 -14441103.69147  21882358.938    21882370.389
  20508358.467   -26561156.50349 -20460064.20348  20508357.720    20508367.985
  20891200.205   -24107328.14849 -18222453.53448  20891199.733    20891208.548
  20647370.680   -22389046.00949 -16245206.50748  20647370.463    20647379.780
 02  4  5  0 56  0.0000000  0 10G23G21G14G17G 9G31G 3G15G18G29
  24596697.907    -2145188.04049  -1133244.13445  24596697.381    24596711.483
  21282590.803   -22609399.39249 -17595242.93847  21282590.239    21282600.696
  22583984.618   -12337803.34649  -9317319.37646  22583984.193    22583997.811
  21052544.502   -23622032.37049 -17946880.30047  21052543.947    21052555.025
  23685292.415    -6155971.12249  -4433567.08445  23685292.154    23685306.692
  24220757.197    -3088665.69749  -2166759.12345  24220756.658    24220771.590
  21876432.458   -18596730.64749 -14465372.59447  21876432.171    21876443.603
  20512944.175   -26537058.37649 -20441286.43048  20512943.425    20512953.682
  20898530.305   -24068807.94649 -18192437.77648  20898529.849    20898538.663
  20650817.082   -22370934.86349 -16231093.89148  20650816.867    20650826.189
 02  4  5  0 56 30.0000000  0 10G23G21G14G17G 9G31G 3G15G18G29
  24610909.123    -2070507.70749  -1075051.72545  24610908.662    24610922.824
  21279275.418   -22626821.55349 -17608818.58647  21279274.865    21279285.305
  22564923.013   -12437971.58449  -9395372.26446  22564922.550    22564936.332
  21060266.261   -23581454.08249 -17915260.88547  21060265.712    21060276.828
  23675920.451    -6205219.99949  -4471942.66445  23675920.232    23675934.592
  24204675.132    -3173178.01649  -2232612.78645  24204674.504    24204689.358
  21870609.614   -18627329.67849 -14489215.94447  21870609.312    21870620.725
  20517597.496   -26512604.99749 -20422231.83747  20517596.743    20517607.003
  20905900.743   -24030075.92749 -18162256.96747  20905900.276    20905909.103
  20654365.528   -22352287.59349 -16216563.51848  20654365.311    20654374.619
 02  4  5  0 57  0.0000000  0 10G23G21G14G17G 9G31G 3G15G18G29
  24625111.282    -1995875.27249  -1016896.62845  24625110.800    24625124.935
  21275996.392   -22644052.62149 -17622245.32847  21275995.845    21276006.264
  22545912.922   -12537869.47549  -9473214.55446  22545912.490    22545925.988
  21068052.818   -23540535.65849 -17883376.42847  21068052.281    21068063.402
  23666623.330    -6254075.08549  -4510011.38845  23666623.038    23666637.550
  24188658.721    -3257343.22149  -2298195.92545  24188658.170    24188673.154
  21864891.152   -18657380.12949 -14512631.83947  21864890.851    21864902.264
  20522318.815   -26487794.10849 -20402898.66647  20522318.055    20522328.330
  20913311.627   -23991131.50549 -18131910.64947  20913311.156    20913319.974
  20658016.066   -22333103.80649 -16201615.08348  20658015.843    20658025.137
 02  4  5  0 57 30.0000000  0 10G23G21G14G17G 9G31G 3G15G18G29
  24639304.209    -1921291.11849   -958779.17045  24639303.665    24639317.843
  21272753.692   -22661092.91849 -17635523.42247  21272753.130    21272763.542
  22526954.702   -12637494.52449  -9550844.19446  22526954.254    22526967.768
  21075904.185   -23499276.60549 -17851226.54747  21075903.665    21075914.771
  23657401.708    -6302533.49749  -4547771.00445  23657401.472    23657416.155
  24172709.224    -3341158.56349  -2363506.44645  24172708.652    24172723.549
  21859277.295   -18686880.98449 -14535619.48247  21859277.007    21859288.378
  20527108.247   -26462625.38449 -20383286.66647  20527107.499    20527117.765
  20920762.703   -23951975.87349 -18101399.75347  20920762.228    20920771.059
  20661768.438   -22313384.73649 -16186249.54448  20661768.245    20661777.516
 02  4  5  0 58  0.0000000  0 10G23G21G14G17G 9G31G 3G15G18G29
  24653487.513    -1846757.35449   -900700.96045  24653486.886    24653501.201
  21269546.767   -22677945.10949 -17648654.93847  21269546.210    21269556.619
  22508048.667   -12736846.11349  -9628260.76646  22508048.143    22508061.563
  21083820.083   -23457678.44949 -17818812.42647  21083819.525    21083830.637
  23648255.894    -6350594.27449  -4585220.78445  23648255.624    23648270.338
  24156826.230    -3424623.60349  -2428544.04445  24156825.658    24156840.377
  21853767.829   -18715833.20649 -14558179.61447  21853767.522    21853778.886
  20531965.569   -26437100.09149 -20363396.81347  20531964.836    20531975.062
  20928253.342   -23912612.18649 -18070726.73147  20928252.872    20928261.709
  20665622.168   -22293133.28749 -16170469.16348  20665621.948    20665631.228
 02  4  5  0 58 30.0000000  0 10G23G21G14G17G 9G31G 3G15G18G29
  24667661.262    -1772273.50149   -842661.66545  24667660.684    24667675.120
  21266375.721   -22694608.80149 -17661639.57347  21266375.165    21266385.556
  22489195.146   -12835921.06249  -9705461.77546  22489194.605    22489207.925
  21091800.725   -23415739.98049 -17786133.12647  21091800.190    21091811.292
  23639186.512    -6398253.76449  -4622357.87745  23639186.252    23639201.000
  24141010.500    -3507735.27849  -2493306.24045  24141009.867    24141024.652
  21848363.148   -18744235.05149 -14580310.88947  21848362.813    21848374.140
  20536891.013   -26411216.68749 -20343227.91847  20536890.267    20536900.493
  20935783.473   -23873041.04849 -18039892.07047  20935782.999    20935791.824
  20669577.100   -22272349.89249 -16154274.28448  20669576.880    20669586.142
 02  4  5  0 59  0.0000000  0 10G23G21G14G17G 9G31G 3G15G18G29
  24681825.480    -1697840.16549   -784661.71245  24681824.869    24681839.312
  21263240.337   -22711085.27449 -17674478.31847  21263239.766    21263250.157
  22470394.784   -12934716.94949  -9782445.33446  22470394.220    22470407.469
  21099846.185   -23373460.91549 -17753188.43147  21099845.631    21099856.754
  23630194.002    -6445509.47149  -4659180.32845  23630193.717    23630208.462
  24125262.524    -3590491.16649  -2557791.24645  24125261.998    24125276.569
  21843063.250   -18772085.86749 -14602012.78947  21843062.942    21843074.254
  20541884.650   -26384974.78349 -20322779.67047  20541883.920    20541894.138
  20943352.867   -23833263.59749 -18008896.64547  20943352.389    20943361.183
  20673632.989   -22251035.72849 -16137665.81548  20673632.782    20673642.039
 02  4  5  0 59 30.0000000  0 10G23G21G14G17G 9G31G 3G15G18G29
  24695980.375    -1623455.84149   -726699.94645  24695979.799    24695994.005
  21260140.788   -22727373.30849 -17687170.22647  21260140.201    21260150.576
  22451648.104   -13033229.82349  -9859208.35246  22451647.618    22451660.857
  21107956.927   -23330838.95749 -17719976.54747  21107956.346    21107967.472
  23621279.179    -6492357.01349  -4695684.74245  23621278.929    23621293.523
  24109582.912    -3672887.15549  -2621995.76545  24109582.374    24109597.018
  21837868.751   -18799382.99849 -14623283.24447  21837868.468    21837879.777
  20546946.940   -26358372.07149 -20302050.27147  20546946.225    20546956.441
  20950961.545   -23793279.65649 -17977740.31547  20950961.071    20950969.871
  20677789.978   -22229190.47449 -16120643.50748  20677789.764    20677799.031
 02  4  5  1  0  0.0000000  0 10G23G21G14G17G 9G31G 3G15G18G29
  24710125.190    -1549124.29249   -668779.32545  24710124.627    24710138.946
  21257076.279   -22743477.03849 -17699718.52747  21257075.713    21257086.086
  22432955.258   -13131460.72949  -9935751.67746  22432954.740    22432967.859
  21116132.285   -23287877.19149 -17686499.86847  21116131.706    21116142.873
  23612441.778    -6538797.14749  -4731871.69345  23612441.557    23612456.023
  24093971.717    -3754923.82949  -2685920.31945  24093971.231    24093985.955
  21832779.131   -18826128.80949 -14644124.09447  21832778.852    21832790.171
  20552077.388   -26331411.42349 -20281041.96747  20552076.683    20552086.882
  20958608.704   -23753093.49849 -17946426.42047  20958608.208    20958616.996
  20682047.183   -22206818.46949 -16103210.74948  20682046.987    20682056.247
 02  4  5  1  0 30.0000000  0 10G23G21G14G17G 9G31G 3G15G18G29
  24724260.528    -1474842.49749   -610897.46145  24724259.970    24724274.385
  21254047.425   -22759393.45649 -17712120.87147  21254046.870    21254057.245
  22414317.008   -13229403.71849 -10012070.63446  22414316.592    22414329.693
  21124373.062   -23244571.61649 -17652755.28347  21124372.491    21124383.651
  23603683.067    -6584823.61249  -4767736.29745  23603682.871    23603697.208
  24078429.883    -3836595.54849  -2749560.49845  24078429.419    24078444.224
  21827795.243   -18852319.26449 -14664532.21047  21827794.982    21827806.266
  20557276.699   -26304088.81949 -20259751.62647  20557275.974    20557286.185
  20966294.713   -23712703.22949 -17914953.48047  20966294.217    20966303.018
  20686405.014   -22183917.70549 -16085365.97648  20686404.820    20686414.064
 02  4  5  1  1  0.0000000  0 10G23G21G14G17G 9G31G 3G15G18G29
  24738386.000    -1400612.92149   -553056.28645  24738385.541    24738399.699
  21251053.666   -22775125.42149 -17724379.49047  21251053.132    21251063.488
  22395733.829   -13327058.44849 -10088165.00146  22395733.327    22395746.290
  21132678.900   -23200924.20449 -17618744.33447  21132678.351    21132689.518
  23595003.151    -6630436.00049  -4803278.24445  23595002.870    23595017.255
  24062957.871    -3917901.70849  -2812915.78145  24062957.301    24062972.153
  21822916.784   -18877955.73049 -14684508.63447  21822916.469    21822927.747
  20562544.599   -26276405.84349 -20238180.47547  20562543.877    20562554.078
  20974018.967   -23672112.03149 -17883323.97347  20974018.479    20974027.264
  20690862.922   -22160491.31449 -16067111.61948  20690862.714    20690871.938
 02  4  5  1  1 30.0000000  0 10G23G21G14G17G 9G31G 3G15G18G29
  24752502.079    -1326433.09649   -495253.84545  24752501.540    24752515.711
  21248095.292   -22790671.38749 -17736493.18047  21248094.760    21248105.104
  22377206.318   -13424419.77749 -10164030.72246  22377205.963    22377219.002
  21141050.363   -23156931.82549 -17584464.59047  21141049.836    21141061.004
  23586402.985    -6675628.69749  -4838493.17245  23586402.724    23586417.176
  24047556.265    -3998837.09949  -2875982.21745  24047555.713    24047570.401
  21818144.467   -18903034.32149 -14704050.35447  21818144.133    21818155.422
  20567881.691   -26248359.25649 -20216325.99947  20567880.962    20567891.154
  20981781.737   -23631318.18149 -17851536.56147  20981781.285    20981790.050
  20695421.055   -22136537.95849 -16048446.64548  20695420.848    20695430.092
 02  4  5  1  2  0.0000000  0 10G23G21G14G17G 9G31G 3G15G18G29
  24766607.652    -1252308.31349   -437494.32545  24766607.065    24766621.243
  21245171.327   -22806036.62849 -17748466.04347  21245170.794    21245181.120
  22358734.283   -13521490.23549 -10239669.80646  22358733.782    22358746.626
  21149486.693   -23112598.69549 -17549919.31647  21149486.175    21149497.329
  23577882.344    -6720403.73649  -4873382.65445  23577882.122    23577896.467
  24032224.665    -4079404.17049  -2938761.56445  24032224.138    24032239.076
  21813477.402   -18927559.50149 -14723160.83947  21813477.094    21813488.367
  20573287.149   -26219953.40849 -20194191.57147  20573286.420    20573296.618
  20989581.952   -23590327.72849 -17819595.95147  20989581.495    20989590.268
  20700078.283   -22112063.88349 -16029375.91748  20700078.084    20700087.307
 02  4  5  1  2 30.0000000  0 10G23G21G14G17G 9G31G 3G15G18G29
  24780703.340    -1178234.76149   -379774.70145  24780702.747    24780716.961
  21242282.476   -22821217.50549 -17760295.24847  21242281.944    21242292.267
  22340318.837   -13618263.55549 -10315077.35846  22340318.409    22340331.216
  21157988.649   -23067920.86249 -17515105.44047  21157988.120    21157999.271
  23569442.538    -6764754.89549  -4907941.83045  23569442.275    23569456.473
  24016964.425    -4159596.88549  -3001249.28645  24016963.882    24016978.571
  21808916.594   -18951526.59849 -14741836.45047  21808916.292    21808927.552
  20578761.796   -26191184.04449 -20171773.88447  20578761.070    20578771.243
  20997420.076   -23549138.11549 -17787500.15347  20997419.619    20997428.390
  20704835.168   -22087066.32849 -16009897.27948  20704834.951    20704844.172
 02  4  5  1  3  0.0000000  0 10G23G21G14G17G 9G31G 3G15G18G29
  24794789.180    -1104213.18549   -322095.57745  24794788.656    24794802.672
  21239428.412   -22836215.46149 -17771981.92047  21239427.890    21239438.174
  22321960.165   -13714737.66449 -10390251.74646  22321959.679    22321972.438
  21166556.221   -23022897.98949 -17480022.70247  21166555.688    21166566.832
  23561083.828    -6808679.60649  -4942168.72945  23561083.552    23561097.806
  24001775.800    -4239413.15649  -3063443.60645  24001775.117    24001789.948
  21804462.068   -18974934.91349 -14760076.64747  21804461.795    21804473.043
  20584305.698   -26162050.66649 -20149072.56047  20584304.952    20584315.126
  21005295.855   -23507750.57349 -17755250.12747  21005295.397    21005304.181
  20709691.314   -22061547.03449 -15990012.09948  20709691.099    20709700.310
 02  4  5  1  3 30.0000000  0 10G23G21G14G17G 9G31G 3G15G18G29
  24808864.868    -1030245.40349   -264458.36845  24808864.270    24808878.503
  21236608.644   -22851033.33049 -17783528.26347  21236608.112    21236618.378
  22303658.780   -13810911.82749 -10465192.42646  22303658.259    22303670.947
  21175189.256   -22977531.24249 -17444672.01247  21175188.702    21175199.863
  23552806.542    -6852176.81649  -4976062.50445  23552806.272    23552820.448
  23986659.001    -4318851.89149  -3125343.78645  23986658.402    23986673.185
  21800113.740   -18997785.44049 -14777882.21047  21800113.456    21800124.692
  20589918.646   -26132554.30649 -20126088.39347  20589917.906    20589928.074
  21013208.747   -23466168.06449 -17722848.17747  21013208.279    21013217.067
  20714646.186   -22035508.81349 -15969722.55848  20714645.969    20714655.174
 02  4  5  1  4  0.0000000  0 10G23G21G14G17G 9G31G 3G15G18G29
  24822930.085     -956332.27649   -206863.73545  24822929.523    24822943.494
  21233823.020   -22865671.62549 -17794934.67647  21233822.491    21233832.734
  22285414.578   -13906784.00949 -10539897.78546  22285414.139    22285426.766
  21183887.642   -22931821.05549 -17409053.69847  21183887.080    21183898.237
  23544610.902    -6895244.45149  -5009621.54645  23544610.695    23544624.859
  23971614.346    -4397911.20249  -3186948.30045  23971613.777    23971628.469
  21795871.567   -19020078.18449 -14795253.12647  21795871.252    21795882.479
  20595600.669   -26102694.99649 -20102821.40147  20595599.943    20595610.093
  21021158.432   -23424392.20449 -17690295.55847  21021157.975    21021166.743
  20719699.460   -22008953.42849 -15949030.02748  20719699.261    20719708.468
 02  4  5  1  4 30.0000000  0 10G23G21G14G17G 9G31G 3G15G18G29
  24836985.409     -882471.41649   -149309.84245  24836984.913    24836998.986
  21231071.933   -22880128.55149 -17806199.76647  21231071.385    21231081.622
  22267228.955   -14002349.54249 -10614364.19446  22267228.429    22267241.040
  21192651.931   -22885764.49449 -17373165.49047  21192651.373    21192662.524
  23536498.067    -6937877.44949  -5042841.89245  23536497.802    23536512.007
  23956642.897    -4476586.32649  -3248253.42445  23956642.442    23956657.062
  21791736.122   -19041809.93849 -14812186.91347  21791735.815    21791747.024
  20601352.371   -26072469.66649 -20079269.20647  20601351.631    20601361.794
  21029145.175   -23382421.64649 -17657591.23247  21029144.726    21029153.489
  20724851.363   -21981880.00549 -15927933.83648  20724851.154    20724860.363
 02  4  5  1  5  0.0000000  0 10G23G21G14G17G 9G31G 3G15G18G29
  24851030.678     -808663.29449    -91797.02345  24851030.240    24851044.207
  21228355.182   -22894404.86349 -17817324.11547  21228354.646    21228364.867
  22249101.994   -14097606.18449 -10688589.93346  22249101.568    22249114.084
  21201482.188   -22839361.36049 -17337007.22847  21201481.630    21201492.772
  23528468.282    -6980073.60549  -5075721.83545  23528467.981    23528482.211
  23941745.090    -4554874.81149  -3309257.33145  23941744.555    23941758.812
  21787707.529   -19062980.20949 -14828683.18247  21787707.184    21787718.397
  20607173.758   -26041877.96149 -20055431.51747  20607173.031    20607183.208
  21037168.697   -23340257.66249 -17624736.18247  21037168.241    21037177.024
  20730101.537   -21954289.94449 -15906435.07248  20730101.340    20730110.539
 02  4  5  1  5 30.0000000  0 10G23G21G14G17G 9G31G 3G15G18G29
  24865065.533     -734909.51149    -34326.56145  24865065.034    24865079.235
  21225672.406   -22908502.70149 -17828309.40047  21225671.853    21225682.081
  22231034.089   -14192552.87749 -10762574.13246  22231033.656    22231046.156
  21210378.148   -22792612.75649 -17300579.77547  21210377.601    21210388.752
  23520521.843    -7021831.43649  -5108260.24445  23520521.602    23520535.724
  23926920.820    -4632775.65949  -3369959.07545  23926920.258    23926934.957
  21783785.690   -19083589.37349 -14844742.22747  21783785.339    21783796.545
  20613064.692   -26010920.92449 -20031309.15547  20613063.963    20613074.141
  21045228.569   -23297902.71149 -17591732.33347  21045228.132    21045236.898
  20735449.543   -21926185.93349 -15884535.82748  20735449.337    20735458.527
 02  4  5  1  6  0.0000000  0 10G23G21G14G17G 9G31G 3G15G18G29
  24879089.970     -661210.52849     23101.20945  24879089.355    24879103.713
  21223023.375   -22922423.25249 -17839156.53947  21223022.847    21223033.037
  22213025.554   -14287187.66549 -10836315.30046  22213025.053    22213037.460
  21219339.898   -22745518.45949 -17263882.95147  21219339.337    21219350.488
  23512659.313    -7063148.65049  -5140455.30945  23512659.085    23512673.058
  23912170.935    -4710286.79549  -3430357.25845  23912170.309    23912184.670
  21779970.627   -19103637.55449 -14860364.13847  21779970.240    21779981.449
  20619025.199   -25979598.17349 -20006901.81347  20619024.486    20619034.664
  21053324.521   -23255358.32049 -17558580.86447  21053324.057    21053332.811
  20740895.026   -21897569.72649 -15862237.46748  20740894.817    20740903.994
 02  4  5  1  6 30.0000000  0 10G23G21G14G17G 9G31G 3G15G18G29
  24893103.934     -587566.80249     80485.91445  24893103.223    24893117.690
  21220408.080   -22936166.70749 -17849865.68147  21220407.538    21220417.710
  22195076.783   -14381508.30349 -10909811.67046  22195076.249    22195088.641
  21228367.421   -22698078.55249 -17226916.82247  21228366.867    21228378.011
  23504881.189    -7104022.78249  -5172305.12245  23504880.999    23504894.823
  23897495.459    -4787405.97849  -3490449.93245  23897494.879    23897509.350
  21776262.422   -19123124.06149 -14875548.38547  21776262.048    21776273.260
  20625055.330   -25947909.61549 -19982209.43347  20625054.622    20625064.798
  21061456.296   -23212625.57449 -17525282.62347  21061455.838    21061464.592
  20746437.662   -21868442.93749 -15839541.25048  20746437.440    20746446.607
 02  4  5  1  7  0.0000000  0 10G23G21G14G17G 9G31G 3G15G18G29
  24907107.065     -513979.66649    137826.52145  24907106.379    24907120.899
  21217826.113   -22949734.76449 -17860438.15147  21217825.565    21217835.751
  22177187.911   -14475513.84049 -10983062.53146  22177187.453    22177199.687
  21237460.587   -22650293.70649 -17189681.90647  21237460.032    21237471.194
  23497187.682    -7144452.53449  -5203808.67545  23497187.356    23497201.147
  23882894.902    -4864131.77349  -3550236.13445  23882894.377    23882908.562
  21772660.973   -19142049.56449 -14890295.48147  21772660.611    21772671.812
  20631154.969   -25915855.82149 -19957232.44947  20631154.259    20631164.444
  21069623.435   -23169706.96149 -17491839.54647  21069622.974    21069631.743
  20752076.976   -21838807.97949 -15816449.05548  20752076.756    20752085.939
 02  4  5  1  7 30.0000000  0 10G23G21G14G17G 9G31G 3G15G18G29
  24921100.371     -440444.50049    195126.63545  24921099.792    24921114.173
  21215278.260   -22963123.58349 -17870870.95547  21215277.719    21215287.890
  22159360.400   -14569196.93549 -11056062.12346  22159359.935    22159372.205
  21246620.376   -22602158.83749 -17152174.24747  21246619.831    21246630.977
  23489579.949    -7184430.67049  -5234960.31345  23489579.643    23489593.510
  23868370.678    -4940456.95649  -3609710.13045  23868370.162    23868384.381
  21769167.294   -19160408.76449 -14904601.30947  21769166.949    21769178.112
  20637325.092   -25883431.66149 -19931966.87447  20637324.368    20637334.562
  21077826.715   -23126598.49849 -17458248.53647  21077826.254    21077835.028
  20757813.610   -21808661.70649 -15792958.44148  20757813.405    20757822.578
 02  4  5  1  8  0.0000000  0 10G23G21G14G17G 9G31G 3G15G18G29
  24935082.764     -366966.85249    252381.96545  24935082.202    24935096.633
  21212763.362   -22976339.40049 -17881168.94347  21212762.820    21212772.953
  22141593.689   -14662560.53749 -11128812.75646  22141593.264    22141605.435
  21255845.841   -22553679.05549 -17114397.82547  21255845.255    21255856.415
  23482057.525    -7223960.13849  -5265762.31345  23482057.270    23482071.155
  23853922.000    -5016384.78349  -3668874.51545  23853921.484    23853935.565
  21765780.512   -19178206.34849 -14918469.50747  21765780.144    21765791.299
  20643564.766   -25850641.87749 -19906416.38847  20643564.048    20643574.236
  21086064.810   -23083306.87349 -17424514.79647  21086064.351    21086073.134
  20763646.248   -21778010.89849 -15769074.67448  20763646.017    20763655.208
 02  4  5  1  8 30.0000000  0  9G21G14G17G 9G31G 3G15G18G29
  21210282.641   -22989375.37149 -17891326.80847  21210282.107    21210292.225
  22123889.554   -14755595.34249 -11201307.17946  22123889.061    22123901.275
  21265138.289   -22504846.95249 -17076346.88047  21265137.731    21265148.870
  23474622.376    -7263031.10349  -5296207.04745  23474622.108    23474636.029
  23839550.691    -5091905.57249  -3727721.71345  23839550.184    23839564.288
  21762502.005   -19195434.66949 -14931894.13847  21762501.644    21762512.779
  20649875.517   -25817478.76249 -19880574.99947  20649874.789    20649884.986
  21094338.928   -23039826.07449 -17390633.65547  21094338.483    21094347.262
  20769575.981   -21746849.88249 -15744793.35048  20769575.762    20769584.956
 02  4  5  1  9  0.0000000  0  9G21G14G17G 9G31G 3G15G18G29
  21207834.784   -23002238.94449 -17901350.32347  21207834.242    21207844.351
  22106247.251   -14848305.77649 -11273548.85346  22106246.745    22106258.832
  21274496.583   -22455668.85749 -17038026.30847  21274496.033    21274507.201
  23467273.777    -7301647.83149  -5326297.82245  23467273.496    23467287.356
  23825256.163    -5167023.56949  -3786255.07245  23825255.629    23825269.653
  21759330.673   -19212100.11749 -14944880.15047  21759330.269    21759341.404
  20656256.098   -25783948.56249 -19854447.56347  20656255.372    20656265.567
  21102647.588   -22996163.63149 -17356610.96047  21102647.141    21102655.923
  20775601.260   -21715186.72349 -15720120.73748  20775601.051    20775610.241
 02  4  5  1  9 30.0000000  0  9G21G14G17G 9G31G 3G15G18G29
  21205419.516   -23014931.05849 -17911240.25247  21205418.954    21205429.049
  22088666.957   -14940689.60349 -11345536.03347  22088666.534    22088678.604
  21283920.728   -22406144.76849 -16999436.14447  21283920.159    21283931.333
  23460012.061    -7339808.03049  -5356032.88145  23460011.782    23460025.475
  23811038.483    -5241736.86049  -3844473.05245  23811037.952    23811052.067
  21756266.480   -19228202.32049 -14957427.28247  21756266.081    21756277.201
  20662706.581   -25750051.08149 -19828033.94447  20662705.866    20662716.045
  21110990.590   -22952320.83649 -17322447.74547  21110990.155    21110998.915
  20781721.765   -21683023.20749 -15695058.24148  20781721.563    20781730.737
 02  4  5  1 10  0.0000000  0  9G21G14G17G 9G31G 3G15G18G29
  21203037.214   -23027449.96749 -17920995.19847  21203036.653    21203046.750
  22071149.735   -15032742.47949 -11417265.30447  22071149.251    22071161.254
  21293411.229   -22356272.19349 -16960574.42447  21293410.658    21293421.823
  23452838.158    -7377507.11249  -5385408.64345  23452837.818    23452851.352
  23796898.795    -5316040.94049  -3902372.18245  23796898.261    23796912.294
  21753309.947   -19243738.76249 -14969533.55247  21753309.547    21753320.650
  20669227.432   -25715783.88149 -19801332.22147  20669226.702    20669236.877
  21119368.106   -22908296.84149 -17288143.31947  21119367.636    21119376.407
  20787937.572   -21650358.74949 -15669605.39548  20787937.361    20787946.531
 02  4  5  1 10 30.0000000  0  9G21G14G17G 9G31G 3G15G18G29
  21200687.563   -23039797.17049 -17930616.35647  21200687.020    21200697.114
  22053695.814   -15124462.81049 -11488735.46247  22053695.315    22053707.311
  21302967.857   -22306051.64849 -16921441.56247  21302967.313    21302978.516
  23445752.206    -7414743.32949  -5414423.71445  23445751.854    23445765.398
  23782837.265    -5389934.11549  -3959951.14045  23782836.845    23782850.721
  21750461.002   -19258709.76049 -14981199.21647  21750460.619    21750471.717
  20675818.517   -25681147.36949 -19774342.72147  20675817.799    20675827.966
  21127779.860   -22864092.76149 -17253698.57447  21127779.383    21127788.169
  20794248.318   -21617195.53649 -15643763.91448  20794248.102    20794257.265
 02  4  5  1 11  0.0000000  0  9G21G14G17G 9G31G 3G15G18G29
  21198370.573   -23051972.93949 -17940103.93447  21198370.024    21198380.095
  22036305.532   -15215848.40249 -11559944.81247  22036305.064    22036316.891
  21312590.737   -22255483.11149 -16882037.53247  21312590.181    21312601.414
  23438754.683    -7451514.26749  -5443076.22545  23438754.349    23438768.006
  23768854.259    -5463414.43349  -4017208.37045  23768853.875    23768867.580
  21747719.708   -19273115.02749 -14992424.05947  21747719.367    21747730.465
  20682479.993   -25646141.12449 -19747065.12947  20682479.268    20682489.430
  21136225.555   -22819710.28949 -17219114.82747  21136225.076    21136233.882
  20800653.630   -21583535.28749 -15617535.13748  20800653.427    20800662.556
 02  4  5  1 11 30.0000000  0  9G21G14G17G 9G31G 3G15G18G29
  21196086.489   -23063975.83149 -17949456.79547  21196085.915    21196095.983
  22018979.917   -15306894.21649 -11630889.37547  22018979.438    22018991.306
  21322280.449   -22204563.44849 -16842359.90247  21322279.903    21322291.153
  23431846.648    -7487814.86649  -5471362.24545  23431846.391    23431860.144
  23754950.923    -5536476.52249  -4074139.73345  23754950.471    23754964.144
  21745086.748   -19286951.44849 -15003205.64247  21745086.360    21745097.456
  20689212.435   -25610761.98749 -19719496.97147  20689211.717    20689221.865
  21144705.492   -22775147.85649 -17184390.84447  21144705.045    21144713.809
  20807153.767   -21549376.76949 -15590918.09148  20807153.567    20807162.685
 02  4  5  1 12  0.0000000  0  9G21G14G17G 9G31G 3G15G18G29
  21193834.309   -23075810.87149 -17958678.86347  21193833.764    21193843.818
  22001718.442   -15397602.82949 -11701571.19747  22001717.978    22001729.713
  21332036.104   -22153297.23549 -16802412.23047  21332035.559    21332046.794
  23425027.900    -7523647.35749  -5499283.51445  23425027.552    23425041.324
  23741126.708    -5609122.85049  -4130747.12345  23741126.250    23741139.967
  21742561.123   -19300223.34349 -15013547.33347  21742560.768    21742571.821
  20696014.944   -25575014.38349 -19691641.69247  20696014.228    20696024.374
  21153218.688   -22730410.84249 -17149530.81947  21153218.212    21153226.986
  20813747.473   -21514726.41649 -15563917.79748  20813747.283    20813756.399
 02  4  5  1 12 30.0000000  0  9G21G14G17G 9G31G 3G15G18G29
  21191614.324   -23087476.94949 -17967769.28047  21191613.761    21191623.795
  21984521.909   -15487970.15749 -11771987.07747  21984521.473    21984533.183
  21341858.084   -22101682.72249 -16762193.15447  21341857.510    21341868.753
  23418298.882    -7559008.01849  -5526837.12145  23418298.599    23418312.195
  23727382.357    -5681349.44949  -4187027.45645  23727381.816    23727395.599
  21740143.358   -19312928.71449 -15023447.58447  21740143.002    21740154.052
  20702888.036   -25538896.13149 -19663497.60447  20702887.319    20702897.468
  21161765.152   -22685498.63549 -17114534.28647  21161764.675    21161773.451
  20820434.844   -21479584.07449 -15536534.14048  20820434.653    20820443.766
 02  4  5  1 13  0.0000000  0  9G21G14G17G 9G31G 3G15G18G29
  21189426.670   -23098972.98449 -17976727.19747  21189426.116    21189436.133
  21967390.999   -15577992.91649 -11842134.45447  21967390.522    21967402.243
  21351746.601   -22049718.21149 -16721701.35647  21351746.024    21351757.272
  23411660.386    -7593893.17549  -5554020.25145  23411660.165    23411673.570
  23713718.473    -5753152.85649  -4242978.02745  23713717.935    23713731.756
  21737833.650   -19325066.17049 -15032905.30647  21737833.291    21737844.340
  20709831.981   -25502405.45549 -19635063.31047  20709831.252    20709841.432
  21170344.953   -22640411.37849 -17079401.35247  21170344.505    21170353.281
  20827215.752   -21443950.05149 -15508767.35147  20827215.559    20827224.692
 02  4  5  1 13 30.0000000  0  9G21G14G17G 9G31G 3G15G18G29
  21187270.801   -23110301.81249 -17985554.82247  21187270.238    21187280.272
  21950325.760   -15667670.71849 -11912013.03747  21950325.257    21950336.813
  21361701.340   -21997405.57749 -16680938.30147  21361700.802    21361712.057
  23405112.432    -7628302.41449  -5580832.50545  23405112.169    23405125.540
  23700135.247    -5824532.70649  -4298598.56845  23700134.698    23700148.362
  21735631.651   -19336637.30649 -15041921.74647  21735631.316    21735642.378
  20716846.473   -25465544.00349 -19606340.10347  20716845.736    20716855.944
  21178957.569   -22595151.65349 -17044134.02547  21178957.123    21178965.896
  20834089.520   -21407827.98849 -15480620.26847  20834089.330    20834098.449
 02  4  5  1 14  0.0000000  0  9G21G14G17G 9G31G 3G15G18G29
  21185147.357   -23121460.42849 -17994249.80947  21185146.808    21185156.827
  21933327.147   -15756998.03749 -11981618.50847  21933326.724    21933338.220
  21371723.056   -21944741.25049 -16639901.20147  21371722.524    21371733.787
  23398656.044    -7662229.99649  -5607269.41445  23398655.799    23398669.296
  23686633.715    -5895483.38549  -4353884.68545  23686633.186    23686646.970
  21733538.183   -19347638.40849 -15050494.00047  21733537.875    21733548.883
  20723932.233   -25428308.02749 -19577325.05547  20723931.501    20723941.714
  21187603.481   -22549717.04449 -17008730.42247  21187603.028    21187611.783
  20841056.531   -21371216.14449 -15452091.53947  20841056.317    20841065.445
 02  4  5  1 14 30.0000000  0  9G21G14G17G 9G31G 3G15G18G29
  21183055.792   -23132451.47749 -18002814.22147  21183055.246    21183065.268
  21916395.370   -15845974.17349 -12050950.33247  21916394.916    21916406.402
  21381811.477   -21891726.48949 -16598591.04047  21381810.940    21381822.203
  23392291.555    -7695675.16249  -5633330.45345  23392291.244    23392304.806
  23673213.923    -5966004.11349  -4408835.77645  23673213.376    23673227.144
  21731552.900   -19358070.90549 -15058623.19747  21731552.599    21731563.575
  20731089.026   -25390698.65449 -19548019.05347  20731088.306    20731098.520
  21196282.202   -22504110.34349 -16973192.72747  21196281.720    21196290.463
  20848116.108   -21334117.78649 -15423183.71047  20848115.900    20848125.013
 02  4  5  1 15  0.0000000  0  9G21G14G17G 9G31G 3G15G18G29
  21180995.237   -23143279.77849 -18011251.81347  21180994.673    21181004.695
  21899530.010   -15934601.37649 -12120010.26647  21899529.542    21899540.933
  21391965.671   -21838365.87049 -16557011.36947  21391965.141    21391976.394
  23386018.428    -7728640.03449  -5659017.24045  23386018.147    23386031.634
  23659875.612    -6036097.01549  -4463453.50245  23659874.960    23659888.683
  21729675.036   -19367939.37449 -15066312.88847  21729674.699    21729685.627
  20738316.096   -25352720.11749 -19518425.38747  20738315.363    20738325.596
  21204992.529   -22458337.18749 -16937525.31947  21204992.050    21205000.799
  20855267.088   -21296539.06749 -15393901.56747  20855266.879    20855275.993
 02  4  5  1 15 30.0000000  0  9G21G14G17G 9G31G 3G15G18G29
  21178966.520   -23153940.49949 -18019558.83247  21178965.937    21178975.951
  21882732.491   -16022872.01049 -12188792.35747  21882732.020    21882743.394
  21402186.795   -21784653.71549 -16515157.78847  21402186.235    21402197.489
  23379838.224    -7761117.10749  -5684323.93345  23379837.875    23379851.185
  23646620.103    -6105754.66049  -4517732.06745  23646619.476    23646633.150
  21727905.524   -19377237.90849 -15073558.48647  21727905.194    21727916.140
  20745614.522   -25314366.72349 -19488539.63247  20745613.780    20745624.032
  21213735.405   -22412392.89249 -16901724.56647  21213734.927    21213743.684
  20862510.190   -21258476.26549 -15364242.22647  20862509.985    20862519.069
 02  4  5  1 16  0.0000000  0  9G21G14G17G 9G31G 3G15G18G29
  21176969.642   -23164433.89449 -18027735.45447  21176969.070    21176979.073
  21866003.210   -16110783.84849 -12257294.86247  21866002.742    21866014.116
  21412474.932   -21730589.54549 -16473029.89547  21412474.352    21412485.603
  23373751.268    -7793103.88849  -5709248.58645  23373750.919    23373764.124
  23633447.816    -6174974.73249  -4571669.65445  23633447.235    23633460.973
  21726244.619   -19385965.95849 -15080359.54647  21726244.284    21726255.240
  20752984.360   -25275637.87849 -19458361.31047  20752983.628    20752993.851
  21222510.739   -22366278.24749 -16865791.06847  21222510.262    21222518.992
  20869845.167   -21219930.75549 -15334206.74247  20869844.957    20869854.024
 02  4  5  1 16 30.0000000  0  9G21G14G17G 9G31G 3G15G18G29
  21175003.667   -23174764.92049 -18035785.55847  21175003.110    21175013.093
  21849341.888   -16198338.78649 -12325519.27547  21849341.416    21849352.712
  21422829.230   -21676177.50049 -16430630.93747  21422828.664    21422839.914
  23367757.350    -7824602.05549  -5733792.47446  23367756.959    23367770.117
  23620358.562    -6243758.90849  -4625267.59745  23620358.016    23620371.591
  21724691.418   -19394127.89349 -15086719.48347  21724691.079    21724702.037
  20760424.905   -25236537.50249 -19427893.49547  20760424.158    20760434.391
  21231317.513   -22319998.29949 -16829728.76847  21231317.045    21231325.747
  20877270.852   -21180908.35649 -15303799.66047  20877270.656    20877279.699
 02  4  5  1 17  0.0000000  0  9G21G14G17G 9G31G 3G15G18G29
  21173068.794   -23184932.69749 -18043708.45347  21173068.250    21173078.186
  21832749.164   -16285533.39949 -12393462.93747  21832748.683    21832759.922
  21433249.939   -21621416.22449 -16387959.85547  21433249.370    21433260.668
  23361856.915    -7855608.23049  -5757953.00646  23361856.543    23361869.634
  23607352.860    -6312103.94449  -4678523.35645  23607352.291    23607365.780
  21723246.188   -19401722.45449 -15092637.31447  21723245.850    21723256.810
  20767936.452   -25197064.09349 -19397135.00147  20767935.727    20767945.964
  21240155.771   -22273552.87449 -16793537.52547  21240155.316    21240164.007
  20884787.208   -21141409.74349 -15273021.50147  20884787.003    20884796.038
 02  4  5  1 17 30.0000000  0  9G21G14G17G 9G31G 3G15G18G29
  21171164.954   -23194937.26549 -18051504.16947  21171164.398    21171174.325
  21816225.505   -16372365.06249 -12461123.78247  21816225.032    21816236.217
  21443737.279   -21566305.00649 -16345016.09147  21443736.700    21443748.042
  23356050.573    -7886119.94549  -5781728.21946  23356050.203    23356063.405
  23594431.170    -6380007.14049  -4731434.81645  23594430.556    23594444.107
  21721909.115   -19408748.81149 -15098112.39347  21721908.795    21721919.714
  20775519.141   -25157216.84649 -19366085.20647  20775518.388    20775528.636
  21249025.464   -22226942.27949 -16757217.58147  21249025.006    21249033.687
  20892393.898   -21101436.10549 -15241873.19147  20892393.687    20892402.724
 02  4  5  1 18  0.0000000  0  9G21G14G17G 9G31G 3G15G18G29
  21169292.647   -23204776.06749 -18059170.71647  21169292.114    21169302.017
  21799771.833   -16458828.75249 -12528497.86147  21799771.353    21799782.544
  21454291.765   -21510840.99349 -16301797.41347  21454291.183    21454302.526
  23350339.178    -7916132.06149  -5805114.15846  23350339.006    23350352.140
  23581594.559    -6447463.37049  -4783997.97745  23581594.002    23581607.617
  21720680.723   -19415204.11249 -15103142.48747  21720680.386    21720691.309
  20783173.610   -25116992.47949 -19334741.54647  20783172.849    20783183.092
  21257926.964   -22180164.69149 -16720767.51047  21257926.494    21257935.167
  20900091.257   -21060986.15549 -15210353.72547  20900091.068    20900100.102
 02  4  5  1 18 30.0000000  0  9G21G14G17G 9G31G 3G15G18G29
  21167450.896   -23214454.43949 -18066712.25547  21167450.339    21167460.246
  21783387.654   -16544927.06849 -12595587.25147  21783387.195    21783398.316
  21464912.554   -21455028.54749 -16258307.22547  21464911.981    21464923.334
  23344722.668    -7945647.02149  -5828112.69246  23344722.416    23344735.429
  23568842.421    -6514475.27949  -4836214.93345  23568841.901    23568855.440
  21719560.103   -19421092.81049 -15107731.07647  21719559.762    21719570.694
  20790898.975   -25076395.51149 -19303107.55447  20790898.211    20790908.427
  21266859.111   -22133225.85349 -16684191.79947  21266858.650    21266867.349
  20907877.992   -21020066.46149 -15178468.23647  20907877.788    20907886.835
 02  4  5  1 19  0.0000000  0  9G21G14G17G 9G31G 3G15G18G29
  21165639.821   -23223971.45049 -18074128.05247  21165639.273    21165649.166
  21767073.823   -16630656.32949 -12662389.07247  21767073.319    21767084.418
  21475599.824   -21398866.50449 -16214544.63247  21475599.262    21475610.640
  23339201.385    -7974661.37249  -5850721.17146  23339201.097    23339214.033
  23556175.681    -6581039.24749  -4888082.83945  23556175.099    23556188.640
  21718547.593   -19426413.39849 -15111876.97947  21718547.273    21718558.204
  20798695.574   -25035423.97349 -19271181.68347  20798694.833    20798705.042
  21275822.068   -22086125.08149 -16647489.90447  21275821.635    21275830.326
  20915754.032   -20978677.33149 -15146216.95247  20915753.855    20915762.897
 02  4  5  1 19 30.0000000  0  9G21G14G17G 9G31G 3G15G18G29
  21163859.534   -23233326.70449 -18081417.80747  21163858.985    21163868.869
  21750830.838   -16716012.80349 -12728900.41247  21750830.364    21750841.381
  21486354.052   -21342352.85749 -16170508.06047  21486353.477    21486364.867
  23333776.016    -8003171.33349  -5872936.57946  23333775.744    23333788.756
  23543594.790    -6647151.52349  -4939598.76245  23543594.219    23543607.766
  21717643.525   -19431164.46449 -15115579.10147  21717643.188    21717654.115
  20806563.846   -24994075.99449 -19238962.48647  20806563.106    20806573.301
  21284815.999   -22038861.66149 -16610661.27447  21284815.569    21284824.265
  20923719.388   -20936819.09049 -15113600.12647  20923719.191    20923728.242
 02  4  5  1 20  0.0000000  0  9G21G14G17G 9G31G 3G15G18G29
  21162109.728   -23242521.86549 -18088582.81147  21162109.167    21162119.033
  21734658.865   -16800996.33649 -12795121.15947  21734658.349    21734669.337
  21497174.794   -21285489.49349 -16126198.98847  21497174.236    21497185.650
  23328446.648    -8031176.68249  -5894758.80046  23328446.323    23328459.394
  23531100.055    -6712811.55549  -4990762.30545  23531099.489    23531113.010
  21716847.463   -19435347.74949 -15118838.78847  21716847.120    21716858.040
  20814503.443   -24952353.18549 -19206451.21447  20814502.700    20814512.881
  21293840.343   -21991438.46649 -16573708.14447  21293839.881    21293848.597
  20931773.362   -20894495.08849 -15080620.37047  20931773.145    20931782.207
 02  4  5  1 20 30.0000000  0  9G21G14G17G 9G31G 3G15G18G29
  21160390.238   -23251557.50549 -18095623.51148  21160389.677    21160399.550
  21718558.314   -16885604.50349 -12861049.41547  21718557.816    21718568.751
  21508062.141   -21228276.24849 -16081617.28047  21508061.579    21508072.960
  23323213.692    -8058675.45249  -5916186.27646  23323213.366    23323226.467
  23518691.655    -6778017.44349  -5041571.97445  23518691.109    23518704.645
  21716159.473   -19438963.23049 -15121656.02547  21716159.126    21716170.044
  20822514.384   -24910255.43549 -19173647.77647  20822513.644    20822523.807
  21302894.981   -21943856.27249 -16536631.11447  21302894.503    21302903.202
  20939915.583   -20851707.31749 -15047279.23347  20939915.358    20939924.429
 02  4  5  1 21  0.0000000  0  9G21G14G17G 9G31G 3G15G18G29
  21158700.972   -23260434.47349 -18102540.57948  21158700.407    21158710.275
  21702529.377   -16969836.20349 -12926684.32147  21702528.882    21702539.793
  21519015.946   -21170713.69449 -16036763.37047  21519015.406    21519026.808
  23318077.455    -8085666.01249  -5937217.76846  23318077.221    23318090.164
  23506370.100    -6842767.70049  -5092026.59045  23506369.480    23506383.006
  21715579.311   -19442011.92249 -15124031.61347  21715578.958    21715589.881
  20830596.620   -24867783.09649 -19140552.45247  20830595.869    20830606.028
  21311979.537   -21896116.68649 -16499431.44047  21311979.064    21311987.740
  20948145.626   -20808457.98649 -15013578.44047  20948145.431    20948154.485
 02  4  5  1 21 30.0000000  0  9G21G14G17G 9G31G 3G15G18G29
  21157042.153   -23269151.39849 -18109332.93648  21157041.585    21157051.422
  21686572.949   -17053687.08049 -12992022.49047  21686572.459    21686583.311
  21530036.657   -21112799.68049 -15991635.59247  21530036.106    21530047.482
  23313038.820    -8112144.19149  -5957849.98546  23313038.530    23313051.316
  23494135.916    -6907057.94349  -5142122.77245  23494135.359    23494148.849
  21715107.388   -19444491.77249 -15125963.94147  21715107.034    21715117.970
  20838750.563   -24824933.71849 -19107163.32847  20838749.814    20838759.985
  21321094.265   -21848218.32049 -16462108.04347  21321093.804    21321102.477
  20956463.584   -20764746.98249 -14979517.90347  20956463.352    20956472.411
 02  4  5  1 22  0.0000000  0  9G21G14G17G 9G31G 3G15G18G29
  21155413.567   -23277709.53949 -18116001.57448  21155413.002    21155422.825
  21670689.191   -17137155.80149 -13057062.87847  21670688.715    21670699.507
  21541124.136   -21054534.89549 -15946234.49947  21541123.560    21541134.925
  23308097.705    -8138108.69949  -5978081.93546  23308097.500    23308110.313
  23481989.650    -6970886.81549  -5191859.43246  23481989.077    23482002.554
  21714743.569   -19446403.52949 -15127453.60647  21714743.236    21714754.162
  20846976.184   -24781707.87549 -19073480.86347  20846975.439    20846985.618
  21330238.962   -21800162.77549 -16424662.17047  21330238.503    21330247.159
  20964868.890   -20720576.75149 -14945099.53047  20964868.663    20964877.726
 02  4  5  1 22 30.0000000  0  9G21G14G17G 9G31G 3G15G18G29
  21153814.788   -23286110.82749 -18122547.99248  21153814.239    21153824.042
  21654878.335   -17220241.74049 -13121804.99747  21654877.860    21654888.605
  21552278.024   -20995920.88449 -15900561.26747  21552277.449    21552288.820
  23303254.572    -8163559.04449  -5997913.25746  23303254.313    23303267.129
  23469931.196    -7034253.86649  -5241236.22445  23469930.585    23469944.044
  21714487.596   -19447748.66849 -15128501.74347  21714487.243    21714498.145
  20855273.211   -24738106.59449 -19039505.84847  20855272.475    20855282.665
  21339413.068   -21751952.44649 -16387095.68547  21339412.612    21339421.270
  20973360.960   -20675950.60349 -14910325.89847  20973360.744    20973369.766
 02  4  5  1 23  0.0000000  0  9G21G14G17G 9G31G 3G15G18G29
  21152245.653   -23294356.51549 -18128973.16448  21152245.106    21152254.894
  21639140.587   -17302943.65849 -13186247.88347  21639140.096    21639150.769
  21563498.288   -20936958.26849 -15854616.39947  21563497.711    21563509.066
  23298509.517    -8188493.86349  -6017342.89746  23298509.228    23298522.022
  23457960.895    -7097157.70949  -5290252.11246  23457960.352    23457973.659
  21714339.250   -19448528.23749 -15129109.18347  21714338.906    21714349.790
  20863641.562   -24694130.54849 -19005238.80647  20863640.822    20863651.028
  21348616.291   -21703589.06849 -16349409.94247  21348615.831    21348624.509
  20981939.285   -20630871.25349 -14875199.12347  20981939.056    20981948.078
 02  4  5  1 23 30.0000000  0  9G21G14G17G 9G31G 3G15G18G29
  21150706.611   -23302444.06149 -18135275.11148  21150706.061    21150715.832
  21623476.842   -17385256.26049 -13250387.41447  21623476.369    21623487.017
  21574785.437   -20877644.00449 -15808397.53647  21574784.837    21574796.200
  23293863.577    -8212908.04249  -6036366.81946  23293863.234    23293876.043
  23446079.728    -7159593.14749  -5338902.97646  23446079.168    23446092.558
  21714299.115   -19448739.02749 -15129273.41347  21714298.744    21714309.635
  20872081.925   -24649776.18349 -18970676.97047  20872081.199    20872091.415
  21357849.155   -21655070.05249 -16311602.91947  21357848.669    21357857.375
  20990604.087   -20585337.23549 -14839718.06347  20990603.867    20990612.901
 02  4  5  1 24  0.0000000  0  9G21G14G17G 9G31G 3G15G18G29
  21149197.327   -23310375.38249 -18141455.32048  21149196.766    21149206.515
  21607887.297   -17467179.30049 -13314223.38247  21607886.802    21607897.426
  21586139.217   -20817979.48149 -15761905.74747  21586138.657    21586150.041
  23289316.714    -8236801.41249  -6054984.89146  23289316.392    23289329.152
  23434287.762    -7221559.79549  -5387188.57246  23434287.141    23434300.471
  21714366.865   -19448383.02249 -15128995.98547  21714366.507    21714377.389
  20880593.955   -24605045.25949 -18935821.70547  20880593.216    20880603.437
  21367111.133   -21606398.03749 -16273676.67347  21367110.647    21367119.359
  20999354.745   -20539352.30449 -14803885.63747  20999354.509    20999363.540
 02  4  5  1 24 30.0000000  0  9G21G14G17G 9G31G 3G15G18G29
  21147717.084   -23318153.83449 -18147516.42048  21147716.521    21147726.276
  21592371.776   -17548713.06249 -13377756.02747  21592371.293    21592381.915
  21597559.122   -20757967.56649 -15715143.27047  21597558.561    21597569.946
  23284868.881    -8260174.49349  -6073197.56746  23284868.641    23284881.314
  23422584.881    -7283058.13149  -5435109.21246  23422584.263    23422597.670
  21714541.967   -19447462.83149 -15128278.93647  21714541.596    21714552.471
  20889177.174   -24559940.03249 -18900674.78147  20889176.444    20889186.683
  21376401.524   -21557576.42249 -16235633.85547  21376401.075    21376409.780
  21008190.358   -20492920.66549 -14767705.12847  21008190.143    21008199.139
 02  4  5  1 25  0.0000000  0  9G21G14G17G 9G31G 3G15G18G29
  21146266.605   -23325776.02949 -18153455.75648  21146266.035    21146275.795
  21576931.372   -17629852.34049 -13440981.27947  21576930.882    21576941.456
  21609045.902   -20697604.64949 -15668107.27947  21609045.269    21609056.686
  23280521.125    -8283022.05049  -6091000.73546  23280520.822    23280533.475
  23410972.218    -7344082.69549  -5482660.71646  23410971.722    23410984.846
  21714825.013   -19445975.42449 -15127119.89447  21714824.640    21714835.497
  20897832.265   -24514457.07649 -18865233.52147  20897831.552    20897841.802
  21385720.939   -21508602.61849 -16197472.44847  21385720.484    21385729.204
  21017111.273   -20446040.91449 -14731175.44147  21017111.057    21017120.047
 02  4  5  1 25 30.0000000  0  9G21G14G17G 9G31G 3G15G18G29
  21144845.597   -23333243.24549 -18159274.33748  21144845.028    21144854.795
  21561566.278   -17710595.78349 -13503898.09347  21561565.789    21561576.319
  21620599.229   -20636891.45449 -15620798.35547  21620598.651    21620610.047
  23276273.402    -8305342.73849  -6108393.32446  23276273.131    23276285.831
  23399449.936    -7404632.19849  -5529842.01946  23399449.389    23399462.591
  21715215.750   -19443921.81249 -15125519.66447  21715215.389    21715226.224
  20906559.209   -24468596.67049 -18829498.14947  20906558.491    20906568.758
  21395069.076   -21459477.98049 -16159193.50947  21395068.632    21395077.312
  21026116.971   -20398715.52949 -14694298.50847  21026116.772    21026125.762
 02  4  5  1 26  0.0000000  0  9G21G14G17G 9G31G 3G15G18G29
  21143453.388   -23340559.31649 -18164975.14348  21143452.812    21143462.549
  21546276.237   -17790944.90349 -13566507.64047  21546275.744    21546286.233
  21632218.565   -20575831.62749 -15573219.32647  21632217.987    21632229.378
  23272125.789    -8327138.27449  -6125376.73646  23272125.493    23272138.193
  23388017.797    -7464708.18749  -5576654.33846  23388017.263    23388030.390
  21715713.480   -19441306.13049 -15123481.45747  21715713.145    21715724.003
  20915357.349   -24422362.20049 -18793471.30047  20915356.610    20915366.879
  21404445.025   -21410206.90549 -16120800.46447  21404444.571    21404453.263
  21035206.429   -20350949.99849 -14657078.60247  21035206.230    21035215.213
 02  4  5  1 26 30.0000000  0  9G21G14G17G 9G31G 3G15G18G29
  21142090.752   -23347719.77849 -18170554.69148  21142090.166    21142099.897
  21531062.488   -17870893.18349 -13628804.83547  21531061.986    21531072.416
  21643904.744   -20514420.63749 -15525366.66747  21643904.167    21643915.560
  23268079.332    -8348402.35849  -6141946.00346  23268078.964    23268091.639
  23376677.024    -7524304.36349  -5623092.79046  23376676.444    23376689.420
  21716319.057   -19438123.63049 -15121001.56747  21716318.716    21716329.563
  20924227.532   -24375749.07949 -18757149.39247  20924226.809    20924237.063
  21413849.606   -21360785.53049 -16082290.29847  21413849.151    21413857.842
  21044380.172   -20302741.66349 -14619513.64847  21044379.979    21044388.937
 02  4  5  1 27  0.0000000  0  9G21G14G17G 9G31G 3G15G18G29
  21140757.095   -23354728.13449 -18176015.72048  21140756.519    21140766.216
  21515924.907   -17950441.12949 -13690790.08647  21515924.416    21515934.776
  21655657.215   -20452661.11049 -15477242.41846  21655656.651    21655668.067
  23264133.762    -8369135.74649  -6158101.77046  23264133.456    23264146.082
  23365427.348    -7583421.19049  -5669157.70646  23365426.812    23365439.708
  21717031.933   -19434377.24949 -15118082.29847  21717031.622    21717042.466
  20933169.330   -24328759.77249 -18720534.35547  20933168.579    20933178.817
  21423282.146   -21311217.29849 -16043665.70547  21423281.681    21423290.346
  21053637.301   -20254094.99749 -14581607.14347  21053637.100    21053646.076
 02  4  5  1 27 30.0000000  0  9G21G14G17G 9G31G 3G15G18G29
  21139452.229   -23361585.13549 -18181358.80648  21139451.662    21139461.358
  21500863.713   -18029587.60649 -13752462.49747  21500863.212    21500873.511
  21667475.892   -20390553.70749 -15428847.09346  21667475.309    21667486.766
  23260289.546    -8389337.25049  -6173843.09646  23260289.127    23260301.758
  23354269.173    -7642057.18249  -5714847.94046  23354268.656    23354281.557
  21717851.950   -19430068.07049 -15114724.48147  21717851.624    21717862.476
  20942182.618   -24281394.69049 -18683626.50347  20942181.879    20942192.090
  21432742.348   -21261503.69749 -16004927.82847  21432741.872    21432750.539
  21062977.376   -20205012.54749 -14543361.06147  21062977.174    21062986.163
 02  4  5  1 28  0.0000000  0  9G21G14G17G 9G31G 3G15G18G29
  21138176.791   -23368287.58649 -18186581.47248  21138176.225    21138185.885
  21485880.058   -18108326.65749 -13813817.43247  21485879.555    21485889.825
  21679361.516   -20328094.53749 -15380177.65246  21679360.931    21679372.390
  23256547.361    -8409001.14449  -6189165.47746  23256547.058    23256559.718
  23343203.634    -7700206.57149  -5760158.98346  23343203.087    23343215.960
  21718779.684   -19425192.63149 -15110925.42247  21718779.352    21718790.216
  20951268.186   -24233649.59649 -18646422.54647  20951267.459    20951277.653
  21442230.794   -21211641.48349 -15966074.15547  21442230.323    21442238.996
  21072400.769   -20155492.37349 -14504773.89847  21072400.561    21072409.532
 02  4  5  1 28 30.0000000  0  9G21G14G17G 9G31G 3G15G18G29
  21136929.900   -23374839.86249 -18191687.11348  21136929.338    21136938.992
  21470973.479   -18186660.59449 -13874856.69147  21470972.975    21470983.195
  21691313.204   -20265288.07249 -15331237.59246  21691312.607    21691324.106
  23252907.343    -8428129.99449  -6204070.97146  23252906.958    23252919.466
  23332230.269    -7757871.79449  -5805092.76946  23332229.664    23332242.532
  21719814.280   -19419755.68749 -15106688.82847  21719813.966    21719824.810
  20960425.330   -24185528.71849 -18608925.76347  20960424.580    20960434.786
  21451746.569   -21161635.72849 -15927108.62247  21451746.105    21451754.760
  21081906.210   -20105540.94649 -14465850.69147  21081905.990    21081914.960
 02  4  5  1 29  0.0000000  0  9G21G14G17G 9G31G 3G15G18G29
  21135711.250   -23381243.87949 -18196677.23348  21135710.682    21135720.324
  21456144.180   -18264588.62749 -13935579.67147  21456143.671    21456153.836
  21703330.739   -20202135.64149 -15282027.95146  21703330.147    21703341.651
  23249368.933    -8446723.32649  -6218559.16246  23249368.648    23249381.107
  23321349.120    -7815052.17549  -5849648.74046  23321348.496    23321361.291
  21720955.430   -19413759.01749 -15102016.07947  21720955.116    21720965.946
  20969653.688   -24137033.25549 -18571137.10247  20969652.941    20969663.151
  21461289.256   -21111488.49249 -15888032.84947  21461288.779    21461297.453
  21091493.120   -20055161.20549 -14426593.73347  21091492.893    21091501.874
 02  4  5  1 29 30.0000000  0  9G21G14G17G 9G31G 3G15G18G29
  21134521.733   -23387494.71649 -18201547.99348  21134521.176    21134530.814
  21441393.470   -18342103.52749 -13995980.73047  21441392.953    21441403.045
  21715415.167   -20138631.94149 -15232544.60146  21715414.571    21715426.091
  23245933.927    -8464773.75049  -6232624.32746  23245933.656    23245946.166
  23310561.532    -7871740.28149  -5893821.11146  23310560.935    23310573.793
  21722204.035   -19407197.53849 -15096903.22247  21722203.681    21722214.513
  20978954.428   -24088157.65249 -18533052.22947  20978953.683    20978963.879
  21470859.816   -21061194.72749 -15848842.89947  21470859.353    21470868.011
  21101162.238   -20004349.50549 -14387000.18647  21101162.030    21101171.010
 02  4  5  1 30  0.0000000  0  9G21G14G17G 9G31G 3G15G18G29
  21133360.172   -23393598.62849 -18206304.26148  21133359.610    21133369.264
  21426720.549   -18419209.62449 -14056063.25047  21426720.031    21426730.108
  21727565.228   -20074783.07249 -15182792.28146  21727564.650    21727576.178
  23242601.482    -8482285.78049  -6246269.96346  23242601.162    23242613.606
  23299866.770    -7927940.89149  -5937613.62346  23299866.198    23299879.004
  21723558.842   -19400078.00349 -15091355.51547  21723558.483    21723569.329
  20988326.301   -24038908.23949 -18494676.07347  20988325.545    20988335.733
  21480456.887   -21010761.69549 -15809544.42647  21480456.439    21480465.107
  21110911.975   -19953114.34749 -14347076.67147  21110911.750    21110920.709
 02  4  5  1 30 30.0000000  0  9G21G14G17G 9G31G 3G15G18G29
  21132226.952   -23399553.62049 -18210944.48848  21132226.384    21132236.028
  21412126.175   -18495902.90449 -14115824.07747  21412125.674    21412135.722
  21739781.336   -20010587.28149 -15132769.62446  21739780.753    21739792.316
  23239372.015    -8499255.69349  -6259493.17546  23239371.788    23239384.229
  23289265.643    -7983649.80349  -5981022.99946  23289264.967    23289277.724
  21725020.174   -19392398.51549 -15085371.47847  21725019.822    21725030.650
  20997769.771   -23989282.64949 -18456006.79047  20997768.997    20997779.206
  21490080.794   -20960187.90849 -15770136.26947  21490080.357    21490088.987
  21120742.300   -19901455.46149 -14306822.97747  21120742.045    21120751.036
 02  4  5  1 31  0.0000000  0  9G21G14G17G 9G31G 3G15G18G29
  21131122.369   -23405358.08749 -18215467.42648  21131121.809    21131131.463
  21397611.083   -18572179.38449 -14175260.12447  21397610.573    21397620.604
  21752063.835   -19946042.36049 -15082474.92546  21752063.270    21752074.834
  23236246.595    -8515679.80449  -6272291.07746  23236246.312    23236258.682
  23278758.586    -8038862.93249  -6024046.03446  23278758.111    23278770.862
  21726588.311   -19384157.63649 -15078949.99647  21726587.956    21726598.810
  21007285.149   -23939278.81949 -18417042.78347  21007284.410    21007294.616
  21499731.732   -20909471.97449 -15730617.35547  21499731.266    21499739.887
  21130653.307   -19849372.62449 -14266238.93347  21130653.083    21130662.059
 02  4  5  1 31 30.0000000  0  9G21G14G17G 9G31G 3G15G18G29
  21130046.301   -23411012.67349 -18219873.57448  21130045.734    21130055.409
  21383175.638   -18648037.42249 -14234370.12147  21383175.146    21383185.134
  21764412.746   -19881148.93149 -15031908.66046  21764412.121    21764423.671
  23233225.327    -8531556.85249  -6284662.71346  23233225.013    23233237.266
  23268346.431    -8093578.87949  -6066681.68446  23268345.890    23268358.531
  21728263.209   -19375356.03249 -15072091.58347  21728262.857    21728273.693
  21016872.528   -23888896.76749 -18377784.05747  21016871.782    21016882.011
  21509409.503   -20858615.12649 -15690988.63347  21509408.996    21509417.632
  21140644.550   -19796868.27449 -14225326.44347  21140644.297    21140653.264
 02  4  5  1 32  0.0000000  0  9G21G14G17G 9G31G 3G15G18G29
  21128997.872   -23416522.15349 -18224166.65048  21128997.280    21129006.954
  21368819.315   -18723479.76849 -14293156.22847  21368818.805    21368828.753
  21776827.018   -19815911.49249 -14981074.34946  21776826.397    21776837.999
  23230307.494    -8546889.69149  -6296610.29246  23230307.184    23230319.424
  23258028.614    -8147800.16649  -6108931.88946  23258027.912    23258040.546
  21730043.819   -19365998.95649 -15064800.33647  21730043.434    21730054.245
  21026531.083   -23838140.79949 -18338233.97047  21026530.346    21026540.572
  21519113.155   -20807622.17249 -15651253.85647  21519112.648    21519121.268
  21150714.811   -19743948.77649 -14184090.46047  21150714.565    21150723.511
 02  4  5  1 32 30.0000000  0  9G21G14G17G 9G31G 3G15G18G29
  21127977.813   -23421882.51449 -18228343.53048  21127977.226    21127986.900
  21354543.386   -18798499.47349 -14351613.00847  21354542.908    21354552.846
  21789307.714   -19750325.21849 -14929968.19146  21789307.096    21789318.707
  23227494.371    -8561671.50849  -6308128.48846  23227494.110    23227506.414
  23247805.603    -8201520.13249  -6150791.44946  23247805.040    23247817.705
  21731930.935   -19356081.93149 -15057072.76847  21731930.548    21731941.359
  21036261.670   -23787006.18449 -18298388.83347  21036260.940    21036271.177
  21528843.494   -20756488.80849 -15611409.66947  21528843.002    21528851.606
  21160864.580   -19690611.11149 -14142528.63547  21160864.358    21160873.320
 02  4  5  1 33  0.0000000  0  9G21G14G17G 9G31G 3G15G18G29
  21126985.910   -23427094.82349 -18232405.04448  21126985.342    21126994.989
  21340348.047   -18873095.92949 -14409739.97847  21340347.525    21340357.441
  21801854.474   -19684391.51849 -14878591.32046  21801853.841    21801865.501
  23224786.476    -8575901.99549  -6319217.09946  23224786.165    23224798.412
  23237678.501    -8254738.02449  -6192259.81346  23237677.911    23237690.493
  21733924.340   -19345606.53449 -15048910.10447  21733923.968    21733934.735
  21046064.171   -23735493.79749 -18258249.32947  21046063.443    21046073.656
  21538600.167   -20705217.08449 -15571457.66747  21538599.698    21538608.280
  21171093.307   -19636858.70249 -14100643.63547  21171093.077    21171102.046
 02  4  5  1 33 30.0000000  0  9G21G14G17G 9G31G 3G15G18G29
  21126021.359   -23432163.48949 -18236354.62948  21126020.790    21126030.418
  21326232.710   -18947271.78949 -14467539.21247  21326232.217    21326242.072
  21814466.487   -19618115.01349 -14826947.34046  21814465.859    21814477.533
  23222182.780    -8589584.05749  -6329878.33546  23222182.538    23222194.696
  23227646.564    -8307456.51749  -6233339.02646  23227645.826    23227658.337
  21736023.021   -19334577.86749 -15040316.31747  21736022.625    21736033.400
  21055937.708   -23683608.17249 -18217818.98947  21055936.968    21055947.187
  21548382.213   -20653812.02849 -15531401.77247  21548381.726    21548390.298
  21181399.794   -19582697.68749 -14058440.23947  21181399.572    21181408.533
 02  4  5  1 34  0.0000000  0  9G21G14G17G 9G31G 3G15G18G29
  21125085.103   -23437083.45149 -18240188.34448  21125084.548    21125094.161
  21312198.882   -19021019.63049 -14525004.94147  21312198.382    21312208.186
  21827144.763   -19551490.49949 -14775032.18246  21827144.103    21827155.819
  23219684.823    -8602710.73549  -6340106.81846  23219684.557    23219696.606
  23217710.765    -8359668.42749  -6274023.50346  23217710.084    23217722.583
  21738227.827   -19322991.18849 -15031287.72247  21738227.458    21738238.253
  21065883.260   -23631343.80749 -18177093.52847  21065882.543    21065892.765
  21558190.596   -20602268.63949 -15491238.08647  21558190.116    21558198.695
  21191784.666   -19528124.73249 -14015915.85547  21191784.453    21191793.398
 02  4  5  1 34 30.0000000  0  9G21G14G17G 9G31G 3G15G18G29
  21124176.161   -23441859.82649 -18243910.16748  21124175.608    21124185.200
  21298245.920   -19094342.50249 -14582139.51447  21298245.402    21298255.176
  21839888.331   -19484522.53649 -14722849.41546  21839887.720    21839899.423
  23217291.895    -8615285.07249  -6349904.90446  23217291.684    23217303.701
  23207870.898    -8411376.54249  -6314315.44146  23207870.226    23207882.721
  21740537.894   -19310851.80549 -15021828.44547  21740537.529    21740548.304
  21075900.078   -23578705.19449 -18136076.44447  21075899.368    21075909.583
  21568024.269   -20550592.32749 -15450970.82247  21568023.768    21568032.323
  21202246.679   -19473146.55249 -13973075.70647  21202246.450    21202255.373
 02  4  5  1 35  0.0000000  0  9G21G14G17G 9G31G 3G15G18G29
  21123294.918   -23446490.68449 -18247518.60448  21123294.348    21123303.934
  21284374.607   -19167236.16549 -14638939.63947  21284374.095    21284383.823
  21852697.678   -19417209.18749 -14670397.50246  21852697.043    21852708.762
  23215004.868    -8627303.43049  -6359269.75446  23215004.607    23215016.589
  23198127.733    -8462576.95849  -6354211.74246  23198127.051    23198139.466
  21742953.381   -19298158.18549 -15011937.30147  21742953.007    21742963.777
  21085988.525   -23525690.21249 -18094766.08547  21085987.784    21085998.011
  21577883.514   -20498781.52149 -15410598.76147  21577883.022    21577891.584
  21212785.876   -19417762.78049 -13929919.52147  21212785.644    21212794.571
 02  4  5  1 35 30.0000000  0  9G21G14G17G 9G31G 3G15G18G29
  21122441.301   -23450976.47349 -18251013.99448  21122440.699    21122450.291
  21270585.266   -19239699.13949 -14695404.16047  21270584.761    21270594.449
  21865572.597   -19349550.97849 -14617676.87746  21865572.009    21865583.748
  23212823.750    -8638764.51549  -6368200.35946  23212823.547    23212835.528
  23188481.466    -8513268.36049  -6393711.42946  23188480.719    23188493.039
  21745474.131   -19284911.39249 -15001615.10747  21745473.772    21745484.547
  21096148.525   -23472299.04249 -18053162.58347  21096147.781    21096158.021
  21587768.175   -20446837.08649 -15370122.56747  21587767.680    21587776.288
  21223401.741   -19361975.83749 -13886449.16747  21223401.525    21223410.441
 02  4  5  1 36  0.0000000  0  9G21G14G17G 9G31G 3G15G18G29
  21121614.671   -23455320.27749 -18254398.74348  21121614.061    21121623.663
  21256877.786   -19311731.87449 -14751533.43447  21256877.280    21256886.922
  21878512.740   -19281550.27949 -14564689.38046  21878512.161    21878523.880
  23210748.633    -8649668.96449  -6376697.24046  23210748.344    23210760.422
  23178931.793    -8563451.11449  -6432814.76446  23178931.190    23178943.463
  21748099.668   -19271114.00749 -14990863.88447  21748099.304    21748110.067
  21106379.700   -23418533.75949 -18011267.57247  21106378.948    21106389.228
  21597677.834   -20394761.58449 -15329544.24847  21597677.319    21597685.944
  21234093.598   -19305789.80749 -13842667.84247  21234093.363    21234102.309
 02  4  5  1 36 30.0000000  0  9G21G14G17G 9G31G 3G15G18G29
  21120815.928   -23459517.51949 -18257669.28148  21120815.334    21120824.917
  21243253.340   -19383328.33549 -14807322.77247  21243252.822    21243262.405
  21891518.810   -19213203.09749 -14511431.89446  21891518.247    21891529.943
  23208780.450    -8660011.23149  -6384756.04246  23208780.196    23208792.224
  23169480.174    -8613119.32549  -6471517.16146  23169479.543    23169491.854
  21750830.588   -19256762.90249 -14979681.19047  21750830.194    21750840.982
  21116682.815   -23364390.52049 -17969078.04547  21116682.065    21116692.358
  21607613.068   -20342551.47449 -15288861.03347  21607612.571    21607621.179
  21244861.757   -19249202.56949 -13798573.88647  21244861.528    21244870.470
 02  4  5  1 37  0.0000000  0  9G21G14G17G 9G31G 3G15G18G29
  21120044.094   -23463573.48349 -18260829.73648  21120043.508    21120053.081
  21229711.264   -19454491.75649 -14862774.68047  21229710.777    21229720.336
  21904589.935   -19144514.36149 -14457908.26446  21904589.288    21904601.012
  23206918.764    -8669794.81449  -6392379.50746  23206918.425    23206930.417
  23160125.815    -8662276.19649  -6509821.10646  23160125.120    23160137.427
  21753665.845   -19241863.52949 -14968071.27747  21753665.461    21753676.230
  21127057.010   -23309873.74049 -17926597.44947  21127056.263    21127066.560
  21617572.902   -20290212.31949 -15248077.27247  21617572.426    21617580.997
  21255705.032   -19192220.91449 -13754172.59447  21255704.792    21255713.729
 02  4  5  1 37 30.0000000  0  9G21G14G17G 9G31G 3G15G18G29
  21119299.539   -23467485.92249 -18263878.34848  21119298.954    21119308.535
  21216252.344   -19525218.50249 -14917886.31347  21216251.845    21216261.365
  21917726.299   -19075482.66149 -14404117.37646  21917725.684    21917737.381
  23205163.791    -8679016.48449  -6399565.12646  23205163.400    23205175.495
  23150869.534    -8710918.14949  -6547723.82646  23150868.897    23150881.087
  21756605.632   -19226414.69049 -14956033.20647  21756605.246    21756616.006
  21137502.578   -23254982.01449 -17883824.67747  21137501.822    21137512.126
  21627557.567   -20237742.62449 -15207191.78747  21627557.074    21627565.643
  21266623.244   -19134845.16449 -13709464.21047  21266623.003    21266631.951
 02  4  5  1 38  0.0000000  0  9G21G14G17G 9G31G 3G15G18G29
  21118582.246   -23471255.11349 -18266815.33948  21118581.660    21118591.246
  21202876.897   -19595506.44549 -14972656.03047  21202876.394    21202885.892
  21930927.962   -19006107.66249 -14350058.98446  21930927.315    21930939.024
  23203516.001    -8687674.67749  -6406311.68246  23203515.720    23203527.734
  23141711.533    -8759043.25649  -6585223.79446  23141710.857    23141723.080
  21759649.908   -19210416.93349 -14943567.41447  21759649.508    21759660.244
  21148019.585   -23199714.95349 -17840759.44847  21148018.841    21148029.110
  21637566.959   -20185142.80549 -15166204.91247  21637566.484    21637575.024
  21277616.189   -19077076.82849 -13664449.92247  21277615.963    21277624.888
 02  4  5  1 38 30.0000000  0  9G21G14G17G 9G31G 3G15G18G29
  21117892.053   -23474881.92049 -18269641.37548  21117891.468    21117901.042
  21189585.186   -19665354.47149 -15027082.93247  21189584.696    21189594.140
  21944194.716   -18936390.48749 -14295733.98046  21944194.110    21944205.831
  23201975.644    -8695768.39149  -6412618.37346  23201975.457    23201987.501
  23132651.988    -8806650.41349  -6622320.16746  23132651.399    23132663.670
  21762798.351   -19193871.64949 -14930674.97447  21762797.969    21762808.695
  21158607.882   -23144073.17949 -17797402.22847  21158607.121    21158617.395
  21647600.920   -20132414.04349 -15125117.55947  21647600.448    21647608.988
  21288683.302   -19018918.71749 -13619131.90447  21288683.071    21288691.990
 02  4  5  1 39  0.0000000  0  9G21G14G17G 9G31G 3G15G18G29
  21117229.220   -23478364.89249 -18272355.32848  21117228.657    21117238.239
  21176377.841   -19734758.94749 -15081164.21347  21176377.379    21176386.788
  21957526.989   -18866329.36749 -14241140.95946  21957526.371    21957538.060
  23200543.479    -8703294.43249  -6418482.72146  23200543.238    23200555.248
  23123691.816    -8853736.38049  -6659010.42846  23123691.182    23123703.383
  21766051.203   -19176777.89849 -14917355.16347  21766050.797    21766061.535
  21169267.811   -23088054.87049 -17753751.60447  21169267.041    21169277.325
  21657659.682   -20079554.91849 -15083928.62947  21657659.184    21657667.717
  21299824.618   -18960370.99849 -13573510.30147  21299824.368    21299833.281
 02  4  5  1 39 30.0000000  0  9G21G14G17G 9G31G 3G15G18G29
  21116592.640   -23481710.12149 -18274961.95448  21116592.048    21116601.619
  21163254.094   -19803724.12949 -15134903.19947  21163253.635    21163263.024
  21970923.495   -18795930.32249 -14186284.61446  21970922.876    21970934.590
  23199218.461    -8710257.23849  -6423908.19246  23199218.215    23199230.144
  23114829.926    -8900305.34549  -6695297.82446  23114829.317    23114841.499
  21769407.154   -19159142.23249 -14903613.08347  21769406.773    21769417.503
  21179998.268   -23031665.84549 -17709812.12647  21179997.533    21180007.829
  21667742.023   -20026571.66149 -15042642.97247  21667741.515    21667750.105
  21311038.469   -18901441.47749 -13527591.19447  21311038.225    21311047.152
 02  4  5  1 40  0.0000000  0  9G21G14G17G 9G31G 3G15G18G29
  21115983.166   -23484912.75549 -18277457.46248  21115982.580    21115992.144
  21150215.197   -19872243.57649 -15188294.85747  21150214.721    21150224.115
  21984385.192   -18725188.90249 -14131161.46646  21984384.607    21984396.295
  23198001.756    -8716650.90749  -6428890.17146  23198001.368    23198013.344
  23106067.769    -8946350.87549  -6731177.35946  23106067.083    23106079.182
  21772866.927   -19140960.89749 -14889445.81247  21772866.558    21772877.288
  21190800.247   -22974901.29649 -17665580.03047  21190799.495    21190809.786
  21677848.806   -19973460.12649 -15001257.36247  21677848.298    21677856.876
  21322325.566   -18842127.41349 -13481372.44347  21322325.321    21322334.251
 02  4  5  1 40 30.0000000  0  9G21G14G17G 9G31G 3G15G18G29
  21115400.005   -23487977.07549 -18279845.19148  21115399.423    21115408.960
  21137260.634   -19940319.85349 -15241341.18047  21137260.139    21137269.503
  21997911.253   -18654109.50849 -14075774.97846  21997910.643    21997922.338
  23196892.757    -8722478.39849  -6433430.98346  23196892.346    23196904.298
  23097404.690    -8991875.45449  -6766650.94646  23097403.980    23097416.056
  21776429.626   -19122238.78049 -14874857.14347  21776429.242    21776439.981
  21201672.873   -22917765.26849 -17621058.46747  21201672.128    21201682.394
  21687979.119   -19920224.76749 -14959775.26847  21687978.635    21687987.215
  21333684.645   -18782435.02249 -13434858.88747  21333684.388    21333693.326
 02  4  5  1 41  0.0000000  0  9G21G14G17G 9G31G 3G15G18G29
  21114844.263   -23490897.26049 -18282120.61048  21114843.698    21114853.215
  21124391.956   -20007944.74649 -15294035.79247  21124391.458    21124400.797
  22011502.649   -18582686.25449 -14020120.54446  22011502.034    22011513.782
  23195892.917    -8727732.23449  -6437524.80946  23195892.498    23195904.397
  23088842.103    -9036871.27949  -6801712.51746  23088841.408    23088853.618
  21780096.241   -19102970.60249 -14859842.98047  21780095.863    21780106.591
  21212617.355   -22860251.66249 -17576242.69147  21212616.611    21212626.884
  21698134.076   -19866860.00349 -14918192.33747  21698133.595    21698142.194
  21345116.521   -18722360.10749 -13388047.26747  21345116.264    21345125.206
 02  4  5  1 41 30.0000000  0  9G21G14G17G 9G31G 3G15G18G29
  21114314.632   -23493680.36549 -18284289.21248  21114314.055    21114323.554
  21111608.077   -20075123.96449 -15346383.11547  21111607.578    21111616.890
  22025158.092   -18510926.42249 -13964203.84546  22025157.521    22025169.300
  23195001.113    -8732418.04849  -6441176.01946  23195000.775    23195012.538
  23080379.052    -9081343.77349  -6836366.29846  23080378.457    23080390.643
  21783865.306   -19083164.05949 -14844409.30947  21783864.924    21783875.634
  21223632.302   -22802367.75249 -17531138.36747  21223631.556    21223641.845
  21708312.277   -19813373.15849 -14876514.27647  21708311.788    21708320.396
  21356619.462   -18661911.61949 -13340944.54647  21356619.220    21356628.163
 02  4  5  1 42  0.0000000  0  9G21G14G17G 9G31G 3G15G18G29
  21113811.693   -23496323.13949 -18286348.46448  21113811.113    21113820.597
  21098909.929   -20141852.74149 -15398379.44747  21098909.429    21098918.718
  22038878.183   -18438827.33349 -13908022.79546  22038877.603    22038889.366
  23194218.367    -8736531.65149  -6444381.36246  23194217.977    23194229.710
  23072016.681    -9125288.60449  -6870608.92046  23072016.026    23072028.154
  21787737.119   -19062817.46549 -14828554.81947  21787736.744    21787747.473
  21234718.309   -22744110.53549 -17485743.14147  21234717.561    21234727.845
  21718514.149   -19759761.91049 -14834739.27847  21718513.686    21718522.281
  21368193.640   -18601088.87049 -13293550.19747  21368193.388    21368202.337
 02  4  5  1 42 30.0000000  0  9G21G14G17G 9G31G 3G15G18G29
  21113335.169   -23498826.92149 -18288299.40548  21113334.593    21113344.067
  21086297.681   -20208129.92649 -15450023.89447  21086297.180    21086306.432
  22052662.601   -18366389.90949 -13851578.11046  22052662.019    22052673.801
  23193544.262    -8740072.57149  -6447140.43546  23193544.044    23193555.808
  23063754.825    -9168704.78249  -6904439.62146  23063754.126    23063766.116
  21791711.431   -19041932.18049 -14812280.56947  21791711.063    21791721.796
  21245875.173   -22685480.71049 -17440057.57347  21245874.417    21245884.737
  21728739.467   -19706027.44649 -14792868.27347  21728739.007    21728747.582
  21379838.563   -18539894.41049 -13245866.20047  21379838.326    21379847.250
 02  4  5  1 43  0.0000000  0  9G21G14G17G 9G31G 3G15G18G29
  21112884.817   -23501193.34649 -18290143.31848  21112884.234    21112893.697
  21073771.374   -20273955.67549 -15501316.57247  21073770.882    21073780.097
  22066511.009   -18293616.10849 -13794871.31346  22066510.433    22066522.227
  23192979.358    -8743041.44949  -6449453.75946  23192979.074    23192990.695
  23055593.400    -9211592.59149  -6937858.58146  23055592.815    23055604.815
  21795787.729   -19020511.03049 -14795588.75747  21795787.361    21795798.110
  21257102.639   -22626480.15849 -17394083.13447  21257101.885    21257112.233
  21738987.879   -19652171.77449 -14750902.82147  21738987.402    21738995.989
  21391553.478   -18478332.05449 -13197895.53347  21391553.236    21391562.160
 02  4  5  1 43 30.0000000  0  9G21G14G17G 9G31G 3G15G18G29
  21112461.162   -23503419.43849 -18291877.87948  21112460.588    21112470.044
  21061331.826   -20339325.64649 -15552254.09847  21061331.304    21061340.485
  22080423.949   -18220503.40449 -13737900.42746  22080423.391    22080435.132
  23192523.940    -8745434.13049  -6451318.09646  23192523.660    23192535.372
  23047533.508    -9253947.72049  -6970862.47946  23047532.845    23047544.800
  21799966.383   -18998551.99649 -14778477.81447  21799965.998    21799976.755
  21268401.119   -22567106.23549 -17347817.75147  21268400.363    21268410.694
  21749259.812   -19598192.44249 -14708841.00947  21749259.331    21749267.924
  21403338.610   -18416400.72249 -13149637.34847  21403338.387    21403347.311
 02  4  5  1 44  0.0000000  0  9G21G14G17G 9G31G 3G15G18G29
  21112064.211   -23505505.27649 -18293503.15448  21112063.633    21112073.074
  21048979.268   -20404238.13149 -15602835.13647  21048978.755    21048987.901
  22094401.308   -18147052.21049 -13680665.81346  22094400.705    22094412.529
  23192178.366    -8747249.56149  -6452732.66046  23192178.089    23192189.904
  23039575.178    -9295768.70749  -7003450.15546  23039574.435    23039586.387
  21804247.254   -18976056.05749 -14760948.51147  21804246.854    21804257.605
  21279770.659   -22507358.93349 -17301261.43247  21279769.912    21279780.255
  21759555.187   -19544089.67849 -14666683.01947  21759554.704    21759563.326
  21415193.581   -18354102.52049 -13101093.29747  21415193.340    21415202.282
 02  4  5  1 44 30.0000000  0  9G21G14G17G 9G31G 3G15G18G29
  21111692.702   -23507457.18449 -18295024.06948  21111692.140    21111701.573
  21036712.955   -20468697.73349 -15653063.28347  21036712.447    21036721.560
  22108441.788   -18073268.89749 -13623172.40846  22108441.224    22108453.061
  23191941.750    -8748492.67349  -6453701.23746  23191941.483    23191953.270
  23031717.466    -9337060.18549  -7035625.24046  23031716.835    23031728.889
  21808628.853   -18953030.56249 -14743006.56147  21808628.461    21808639.197
  21291210.117   -22447244.37249 -17254418.94247  21291209.343    21291219.667
  21769872.879   -19489869.96549 -14624433.90147  21769872.371    21769881.012
  21427116.751   -18291445.72449 -13052269.82247  21427116.526    21427125.474
 02  4  5  1 45  0.0000000  0  9G21G14G17G 9G31G 3G15G18G29
  21111347.890   -23509269.15949 -18296435.94548  21111347.308    21111356.712
  21024534.294   -20532696.64849 -15702932.45647  21024533.778    21024542.824
  22122546.693   -17999147.26849 -13565415.35246  22122546.159    22122558.073
  23191815.382    -8749156.15149  -6454218.15446  23191815.191    23191826.915
  23023962.082    -9377814.24649  -7067381.56846  23023961.514    23023973.413
  21813112.255   -18929469.93049 -14724647.62147  21813111.857    21813122.613
  21302720.626   -22386756.28649 -17207285.37947  21302719.864    21302730.206
  21780213.915   -19435527.33649 -14582089.00347  21780213.402    21780222.075
  21439109.022   -18228425.91349 -13003163.47547  21439108.794    21439117.720
 02  4  5  1 45 30.0000000  0  9G21G14G17G 9G31G 3G15G18G29
  21111029.113   -23510944.13449 -18297741.07448  21111028.519    21111037.905
  21012442.975   -20596236.36049 -15752443.81447  21012442.489    21012451.516
  22136715.285   -17924691.17249 -13507397.66446  22136714.712    22136726.577
  23191799.043    -8749242.22049  -6454285.13046  23191798.702    23191810.412
  23016308.677    -9418032.79049  -7098720.59846  23016308.101    23016319.992
  21817696.701   -18905378.65649 -14705875.19847  21817696.323    21817707.050
  21314301.498   -22325898.35149 -17159863.62647  21314300.746    21314311.070
  21790577.646   -19381065.64749 -14539651.33747  21790577.128    21790585.815
  21451169.344   -18165048.65749 -12953778.60147  21451169.115    21451178.018
 02  4  5  1 46  0.0000000  0  9G21G14G17G 9G31G 3G15G18G29
  21110736.010   -23512484.13849 -18298941.02948  21110735.412    21110744.810
  21000439.024   -20659317.11549 -15801597.53447  21000438.529    21000447.531
  22150947.142   -17849902.50349 -13449120.83446  22150946.529    22150958.437
  23191892.288    -8748751.64549  -6453902.78246  23191891.967    23191903.685
  23008757.179    -9457716.07149  -7129642.54646  23008756.580    23008768.321
  21822381.557   -18880759.51549 -14686691.44347  21822381.180    21822391.922
  21325952.454   -22264672.19049 -17112154.94947  21325951.691    21325962.015
  21800963.597   -19326487.12249 -14497122.62747  21800963.097    21800971.763
  21463297.015   -18101317.40349 -12904117.88247  21463296.769    21463305.667
 02  4  5  1 46 30.0000000  0  9G21G14G17G 9G31G 3G15G18G29
  21110469.413   -23513884.83849 -18300032.44048  21110468.837    21110478.191
  20988523.435   -20721933.28649 -15850389.24847  20988522.948    20988531.931
  22165242.964   -17774777.63249 -13390582.03446  22165242.342    22165254.340
  23192096.395    -8747679.15249  -6453067.00846  23192096.016    23192107.697
  23001308.428    -9496858.56249  -7160143.08246  23001307.886    23001319.710
  21827167.431   -18855609.44449 -14667093.98247  21827167.047    21827177.793
  21337674.246   -22203073.88449 -17064156.29647  21337673.486    21337683.791
  21811372.521   -19271787.88849 -14454499.85847  21811372.031    21811380.676
  21475492.431   -18037230.09849 -12854179.72747  21475492.186    21475501.056
 02  4  5  1 47  0.0000000  0  9G21G14G17G 9G31G 3G15G18G29
  21110228.649   -23515150.16649 -18301018.37048  21110228.033    21110237.380
  20976695.889   -20784087.06449 -15898820.65847  20976695.396    20976704.359
  22179602.076   -17699320.58949 -13331784.42246  22179601.441    22179613.362
  23192410.574    -8746027.41749  -6451779.84046  23192410.209    23192421.852
  22993962.448    -9535462.72649  -7190224.16346  22993961.752    22993973.471
  21832053.407   -18829933.42749 -14647086.69347  21832053.014    21832063.786
  21349466.048   -22141107.53949 -17015870.85347  21349465.293    21349475.584
  21821803.733   -19216971.75049 -14411785.99547  21821803.240    21821811.851
  21487754.425   -17972792.75149 -12803968.81047  21487754.177    21487763.069
 02  4  5  1 47 30.0000000  0  9G21G14G17G 9G31G 3G15G18G29
  21110013.325   -23516281.38849 -18301899.80148  21110012.722    21110022.061
  20964956.468   -20845777.73049 -15946891.19347  20964955.973    20964964.904
  22194024.106   -17623532.40449 -13272728.74546  22194023.467    22194035.399
  23192835.146    -8743796.03149  -6450041.02846  23192834.745    23192846.385
  22986718.926    -9573528.01049  -7219885.34546  22986718.156    22986729.701
  21837039.141   -18803733.11249 -14626670.85847  21837038.773    21837049.510
  21361327.868   -22078773.54749 -16967298.92047  21361327.101    21361337.394
  21832256.962   -19162039.82849 -14368981.90047  21832256.453    21832265.064
  21500082.591   -17908007.88449 -12753487.09547  21500082.343    21500091.230
 02  4  5  1 48  0.0000000  0  9G21G14G17G 9G31G 3G15G18G29
  21109823.405   -23517279.09749 -18302677.20648  21109822.834    21109832.153
  20953305.244   -20907004.92249 -15994600.59147  20953304.739    20953313.670
  22208508.812   -17547414.91649 -13213416.49046  22208508.230    22208520.154
  23193369.790    -8740985.90949  -6447851.24646  23193369.474    23193381.027
  22979578.019    -9611054.31649  -7249126.52246  22979577.080    22979588.727
  21842124.184   -18777011.03949 -14605848.46447  21842123.793    21842134.533
  21373259.260   -22016073.64049 -16918441.87247  21373258.511    21373268.810
  21842731.920   -19106993.66949 -14326088.79947  21842731.412    21842739.991
  21512476.219   -17842878.95649 -12702737.28447  21512475.983    21512484.865
 02  4  5  1 48 30.0000000  0  9G21G14G17G 9G31G 3G15G18G29
  21109660.181   -23518136.79749 -18303345.51148  21109659.617    21109668.906
  20941743.697   -20967760.68049 -16041942.62947  20941743.203    20941752.116
  22223057.446   -17470961.83449 -13153842.74046  22223056.768    22223068.805
  23194016.006    -8737589.40049  -6445204.51946  23194015.707    23194027.358
  22972540.782    -9648033.86049  -7277941.68946  22972540.022    22972551.586
  21847309.547   -18749761.65149 -14584615.17747  21847309.173    21847319.913
  21385261.500   -21953001.61049 -16869294.85347  21385260.742    21385271.026
  21853229.785   -19051827.04649 -14283101.82247  21853229.264    21853237.846
  21524936.206   -17777401.40349 -12651715.80947  21524935.967    21524944.833
 02  4  5  1 49  0.0000000  0  9G21G14G17G 9G31G 3G15G18G29
  21109522.048   -23518862.39149 -18303910.88048  21109521.482    21109530.762
  20930270.640   -21028051.66849 -16088922.51447  20930270.126    20930279.009
  22237668.323   -17394181.53449 -13094014.01046  22237667.732    22237679.689
  23194772.810    -8733613.24449  -6442106.14946  23194772.333    23194783.916
  22965606.493    -9684473.24649  -7306335.94046  22965605.762    22965617.430
  21852593.495   -18721994.21649 -14562978.22047  21852593.114    21852603.861
  21397333.003   -21889565.48649 -16819864.13147  21397332.235    21397342.519
  21863748.945   -18996548.44449 -14240027.58947  21863748.412    21863756.994
  21537460.637   -17711585.25349 -12600430.50447  21537460.366    21537469.236
 02  4  5  1 49 30.0000000  0  9G21G14G17G 9G31G 3G15G18G29
  21109410.072   -23519450.78449 -18304369.34448  21109409.500    21109418.763
  20918887.290   -21087871.17949 -16135535.01147  20918886.766    20918895.621
  22252342.305   -17317069.16449 -13033926.53246  22252341.595    22252353.736
  23195640.867    -8729051.60649  -6438551.54546  23195640.382    23195651.871
  22958776.109    -9720365.95349  -7334304.19546  22958775.481    22958787.172
  21857976.778   -18693704.88649 -14540934.59647  21857976.418    21857987.146
  21409474.771   -21825760.30249 -16770145.83147  21409474.000    21409484.260
  21874290.356   -18941152.79949 -14196862.15047  21874289.854    21874298.434
  21550050.057   -17645427.34549 -12548878.88747  21550049.791    21550058.655
 02  4  5  1 50  0.0000000  0  9G21G14G17G 9G31G 3G15G18G29
  21109323.769   -23519904.19249 -18304722.62348  21109323.200    21109332.460
  20907593.558   -21147219.58249 -16181780.40647  20907593.035    20907601.858
  22267078.967   -17239627.31649 -12973582.28846  22267078.432    22267090.374
  23196619.866    -8723905.65149  -6434541.62946  23196619.634    23196631.076
  22952049.739    -9755712.64649  -7361847.01146  22952049.167    22952060.846
  21863458.804   -18664896.75849 -14518486.71247  21863458.453    21863469.165
  21421686.353   -21761588.13249 -16720141.55447  21421685.576    21421695.853
  21884853.634   -18885642.33749 -14153607.24447  21884853.151    21884861.724
  21562703.738   -17578931.71149 -12497064.10647  21562703.511    21562712.339
 02  4  5  1 50 30.0000000  0  9G21G14G17G 9G31G 3G15G18G29
  21109262.705   -23520225.01949 -18304972.59948  21109262.122    21109271.363
  20896389.216   -21206098.47349 -16227659.95447  20896388.701    20896397.499
  22281877.829   -17161859.22649 -12912983.88546  22281877.277    22281889.364
  23197710.064    -8718177.56649  -6430078.10746  23197709.640    23197721.097
  22945427.030    -9790515.08149  -7388965.71846  22945426.432    22945438.152
  21869038.767   -18635574.04449 -14495637.85747  21869038.410    21869049.089
  21433967.146   -21697052.10349 -16669853.76247  21433966.374    21433976.639
  21895438.151   -18830020.41549 -14110265.48447  21895437.634    21895446.226
  21575420.740   -17512103.34649 -12444990.05747  21575420.487    21575429.352
 02  4  5  1 51  0.0000000  0  9G21G14G17G 9G31G 3G15G18G29
  21109227.403   -23520410.35949 -18305116.99848  21109226.806    21109236.074
  20885275.058   -21264503.33549 -16273170.12847  20885274.556    20885283.309
  22296739.376   -17083762.09949 -12852129.05546  22296738.818    22296751.003
  23198911.438    -8711863.24649  -6425157.78046  23198911.218    23198922.646
  22938908.850    -9824768.88649  -7415656.92046  22938908.144    22938919.754
  21874717.004   -18605734.83049 -14472386.52747  21874716.619    21874727.302
  21446317.762   -21632149.16549 -16619280.06447  21446317.013    21446327.249
  21906044.376   -18774284.09649 -14066834.57747  21906043.901    21906052.473
  21588201.310   -17444940.93749 -12392655.70747  21588201.079    21588209.937
 02  4  5  1 51 30.0000000  0  9G21G14G17G 9G31G 3G15G18G29
  21109217.179   -23520464.11649 -18305158.87148  21109216.583    21109225.844
  20874250.605   -21322436.87749 -16318313.04747  20874250.097    20874258.816
  22311662.370   -17005340.66949 -12791021.55846  22311661.868    22311674.055
  23200224.072    -8704966.03049  -6419783.25046  23200223.680    23200235.029
  22932494.619    -9858477.27449  -7441923.12746  22932493.705    22932505.310
  21880492.530   -18575384.30049 -14448736.77347  21880492.130    21880502.810
  21458737.349   -21566883.95449 -16568424.08047  21458736.596    21458746.849
  21916671.639   -18718437.63949 -14023317.85147  21916671.134    21916679.706
  21601044.278   -17377450.86849 -12340066.03847  21601044.038    21601052.879
 02  4  5  1 52  0.0000000  0  9G21G14G17G 9G31G 3G15G18G29
  21109231.816   -23520387.08649 -18305098.82948  21109231.213    21109240.449
  20863315.987   -21379898.24649 -16363088.03448  20863315.497    20863324.171
  22326647.226   -16926595.58249 -12729661.81146  22326646.713    22326658.823
  23201647.220    -8697485.64649  -6413954.30846  23201646.945    23201658.349
  22926184.134    -9891639.24649  -7467763.55246  22926183.164    22926194.717
  21886364.973   -18544524.22549 -14424689.96747  21886364.585    21886375.277
  21471225.727   -21501257.00149 -16517286.21547  21471224.970    21471235.251
  21927319.712   -18662481.77149 -13979715.86747  21927319.203    21927327.754
  21613949.122   -17309635.49449 -12287222.88647  21613948.825    21613957.684
 02  4  5  1 52 30.0000000  0  9G21G14G17G 9G31G 3G15G18G29
  21109272.897   -23520171.30649 -18304930.66548  21109272.285    21109281.517
  20852472.955   -21436878.44049 -16407488.07948  20852472.454    20852481.099
  22341695.068   -16847519.70949 -12668044.29646  22341694.408    22341706.542
  23203182.977    -8689413.86049  -6407664.53946  23203182.752    23203194.169
  22919979.045    -9924246.08149  -7493171.40546  22919978.190    22919989.808
  21892335.630   -18513148.34549 -14400241.24047  21892335.252    21892345.906
  21483784.435   -21435260.82049 -16465860.64847  21483783.666    21483793.943
  21937990.018   -18606409.05049 -13936022.82247  21937989.496    21937998.028
  21626916.903   -17241489.18349 -12234121.85647  21626916.637    21626925.500
 02  4  5  1 53  0.0000000  0  9G21G14G17G 9G31G 3G15G18G29
  21109338.594   -23519825.98149 -18304661.57048  21109337.969    21109347.176
  20841719.949   -21493385.36649 -16451519.35348  20841719.448    20841728.073
  22356803.544   -16768123.06949 -12606176.85946  22356803.077    22356815.255
  23204830.062    -8680759.17949  -6400920.56346  23204829.651    23204840.940
  22913877.824    -9956306.10749  -7518153.18146  22913877.193    22913888.969
  21898402.329   -18481267.60649 -14375399.11547  21898401.942    21898412.619
  21496411.526   -21368905.10449 -16414154.91847  21496410.725    21496420.994
  21948680.652   -18550229.20749 -13892246.31047  21948680.125    21948688.686
  21639945.450   -17173023.63049 -12180772.07547  21639945.208    21639954.061
 02  4  5  1 53 30.0000000  0  9G21G14G17G 9G31G 3G15G18G29
  21109430.512   -23519342.90949 -18304285.12548  21109429.876    21109439.080
  20831058.777   -21549409.77149 -16495174.63548  20831058.269    20831066.879
  22371974.888   -16688398.05849 -12544053.53246  22371974.324    22371986.511
  23206589.802    -8671513.06049  -6393715.72846  23206589.113    23206600.326
  22907882.502    -9987810.00049  -7542701.59446  22907882.043    22907893.833
  21904566.421   -18448875.25049 -14350158.33047  21904566.005    21904576.683
  21509108.496   -21302182.06549 -16362162.96047  21509107.695    21509117.986
  21959393.143   -18493934.38349 -13848380.19447  21959392.659    21959401.253
  21653035.943   -17104232.55249 -12127168.63347  21653035.695    21653044.563
 02  4  5  1 54  0.0000000  0  9G21G14G17G 9G31G 3G15G18G29
  21109547.169   -23518729.59349 -18303807.20048  21109546.575    21109555.781
  20820488.277   -21604957.78749 -16538458.71248  20820487.766    20820496.335
  22387207.159   -16608352.70449 -12481680.60246  22387206.529    22387218.534
  23208460.390    -8661682.17949  -6386055.24046  23208459.868    23208471.112
  22901992.187   -10018764.25149  -7566821.72146  22901991.631    22902003.402
  21910826.127   -18415980.19249 -14324525.83247  21910825.731    21910836.380
  21521873.873   -21235099.52549 -16309890.88147  21521873.087    21521883.385
  21970126.063   -18437532.18749 -13804430.41947  21970125.589    21970134.190
  21666186.544   -17035125.59049 -12073319.05447  21666186.291    21666195.178
 02  4  5  1 54 30.0000000  0  9G21G14G17G 9G31G 3G15G18G29
  21109689.116   -23517983.46949 -18303225.77748  21109688.517    21109697.745
  20810009.140   -21660025.62249 -16581368.61148  20810008.621    20810017.159
  22402500.458   -16527984.84349 -12419056.38646  22402499.952    22402512.260
  23210442.995    -8651263.38949  -6377936.62746  23210442.485    23210453.796
  22896207.324   -10049164.98549  -7590510.53446  22896206.576    22896218.149
  21917181.796   -18382581.14149 -14298500.60847  21917181.381    21917192.051
  21534708.068   -21167655.41549 -16257337.05547  21534707.292    21534717.606
  21980879.901   -18381020.29349 -13760395.15847  21980879.434    21980888.036
  21679397.340   -16965702.43049 -12019223.07847  21679397.066    21679405.968
 02  4  5  1 55  0.0000000  0  9G21G14G17G 9G31G 3G15G18G29
  21109855.718   -23517107.71949 -18302543.34948  21109855.141    21109864.370
  20799621.048   -21714615.06449 -16623905.74448  20799620.523    20799629.034
  22417854.953   -16447298.07649 -12356183.62946  22417854.282    22417866.383
  23212537.150    -8640259.32949  -6369361.98346  23212536.446    23212547.714
  22890527.053   -10079014.48649  -7613769.81346  22890526.349    22890537.914
  21923632.466   -18348682.48949 -14272086.08947  21923632.085    21923642.748
  21547610.517   -21099852.69849 -16204503.78847  21547609.740    21547620.073
  21991654.041   -18324401.80549 -13716276.83347  21991653.555    21991662.156
  21692667.367   -16895967.77349 -11964884.38147  21692667.139    21692676.009
 02  4  5  1 55 30.0000000  0  9G21G14G17G 9G31G 3G15G18G29
  21110047.699   -23516098.54549 -18301756.95348  21110047.139    21110056.364
  20789324.874   -21768721.46049 -16666066.47748  20789324.360    20789332.846
  22433270.285   -16366289.58649 -12293060.22646  22433269.720    22433282.014
  23214743.164    -8628666.11649  -6360328.23346  23214742.498    23214753.619
  22884952.492   -10108308.30049  -7636596.09946  22884951.838    22884963.246
  21930178.645   -18314282.29249 -14245280.76047  21930178.264    21930188.906
  21560581.781   -21031688.29849 -16151388.69347  21560581.000    21560591.336
  22002449.044   -18267673.79949 -13672073.17747  22002448.552    22002457.125
  21705996.903   -16825920.59549 -11910302.16047  21705996.671    21706005.558
 02  4  5  1 56  0.0000000  0  9G21G14G17G 9G31G 3G15G18G29
  21110265.409   -23514954.54749 -18300865.50148  21110264.848    21110274.050
  20779120.987   -21822342.75649 -16707849.21448  20779120.484    20779128.951
  22448747.208   -16284959.13349 -12229685.89046  22448746.536    22448758.675
  23217061.381    -8616482.13249  -6350834.14446  23217061.063    23217072.109
  22879484.009   -10137044.57949  -7658987.93846  22879483.433    22879494.739
  21936820.134   -18279381.01349 -14218084.98047  21936819.776    21936830.415
  21573621.895   -20963162.23149 -16097991.78847  21573621.123    21573631.444
  22013264.964   -18210835.72749 -13627783.75947  22013264.454    22013272.994
  21719385.693   -16755562.09149 -11855477.35447  21719385.452    21719394.303
 02  4  5  1 56 30.0000000  0  9G21G14G17G 9G31G 3G15G18G29
  21110507.999   -23513679.62849 -18299872.03048  21110507.420    21110516.634
  20769009.042   -21875481.13849 -16749255.65448  20769008.525    20769016.967
  22464284.225   -16203310.57049 -12166063.72146  22464283.670    22464295.829
  23219491.875    -8603710.17849  -6340881.90146  23219491.531    23219502.518
  22874121.400   -10165226.01649  -7680947.44046  22874120.656    22874131.914
  21943555.995   -18243983.78049 -14190502.74147  21943555.623    21943566.277
  21586730.112   -20894278.07849 -16044315.85147  21586729.368    21586739.725
  22024101.209   -18153890.80249 -13583411.07447  22024100.702    22024109.225
  21732832.744   -16684897.39749 -11800413.95847  21732832.483    21732841.337
 02  4  5  1 57  0.0000000  0  9G21G14G17G 9G31G 3G15G18G29
  21110775.458   -23512274.02849 -18298776.72548  21110774.865    21110784.086
  20758989.077   -21928136.05749 -16790285.37448  20758988.551    20758996.961
  22479881.699   -16121345.22749 -12102194.71846  22479881.222    22479893.515
  23222034.133    -8590350.75049  -6330471.88346  23222033.621    23222044.710
  22868864.409   -10192852.49049  -7702474.50346  22868863.565    22868874.647
  21950385.778   -18208092.84149 -14162535.79647  21950385.414    21950396.108
  21599906.328   -20825036.81949 -15990361.62847  21599905.567    21599915.949
  22034957.630   -18096840.03449 -13538955.92047  22034957.106    22034965.596
  21746337.509   -16613929.41549 -11745114.23047  21746337.264    21746346.113
 02  4  5  1 57 30.0000000  0  9G21G14G17G 9G31G 3G15G18G29
  21111067.274   -23510740.46749 -18297581.70648  21111066.663    21111075.905
  20749060.806   -21980309.13749 -16830939.63248  20749060.275    20749068.646
  22495539.218   -16039066.28749 -12038081.32346  22495538.473    22495550.692
  23224687.372    -8576406.00049  -6319605.75346  23224686.985    23224698.347
  22863712.688   -10219925.46449  -7723570.27446  22863711.752    22863722.743
  21957308.806   -18171712.20849 -14134187.26347  21957308.432    21957319.148
  21613149.919   -20755441.36249 -15936131.42047  21613149.138    21613159.530
  22045833.628   -18039686.24049 -13494420.48447  22045833.097    22045841.586
  21759899.060   -16542663.06049 -11689582.00047  21759898.806    21759907.663
 02  4  5  1 58  0.0000000  0  9G21G14G17G 9G31G 3G15G18G29
  21111384.808   -23509071.71649 -18296281.35048  21111384.203    21111393.402
  20739225.798   -22031992.13049 -16871212.01048  20739225.253    20739233.606
  22511257.125   -15956467.40249 -11973718.64546  22511256.561    22511268.761
  23227453.743    -8561868.57749  -6308277.81346  23227453.208    23227464.630
  22858667.484   -10246436.95649  -7744228.51546  22858666.625    22858677.660
  21964325.967   -18134836.67649 -14105453.10447  21964325.614    21964336.341
  21626462.101   -20685485.35149 -15881620.27247  21626461.312    21626471.705
  22056730.566   -17982422.58349 -13449799.44447  22056730.014    22056738.513
  21773518.299   -16471093.34849 -11633813.39747  21773518.057    21773526.928
 02  4  5  1 58 30.0000000  0  9G21G14G17G 9G31G 3G15G18G29
  21111727.360   -23507271.59549 -18294878.62248  21111726.776    21111735.926
  20729483.517   -22083187.85649 -16911104.69448  20729482.978    20729491.301
  22527035.422   -15873552.94149 -11909110.03346  22527034.699    22527046.963
  23230332.075    -8546741.97749  -6296490.78246  23230331.616    23230342.997
  22853728.592   -10272389.84249  -7764451.49046  22853727.884    22853738.946
  21971436.361   -18097471.39249 -14076337.31747  21971436.001    21971446.732
  21639842.161   -20615172.67249 -15826831.17347  21639841.389    21639851.810
  22067647.511   -17925053.17749 -13405096.00247  22067647.026    22067655.539
  21787194.180   -16399226.05149 -11577812.89847  21787193.940    21787202.789
 02  4  5  1 59  0.0000000  0  9G21G14G17G 9G31G 3G15G18G29
  21112095.022   -23505339.32549 -18293372.92548  21112094.431    21112103.589
  20719834.241   -22133894.70049 -16950616.43748  20719833.718    20719842.021
  22542873.521   -15790322.91549 -11844255.51646  22542872.923    22542885.222
  23233322.576    -8531025.15449  -6284243.84846  23233322.336    23233333.676
  22848896.473   -10297782.88249  -7784238.22546  22848895.689    22848906.786
  21978639.716   -18059617.56049 -14046840.84547  21978639.365    21978650.080
  21653290.069   -20544503.54649 -15771764.33347  21653289.290    21653299.695
  22078584.706   -17867577.51849 -13360309.76247  22078584.264    22078592.775
  21800926.412   -16327062.66249 -11521581.68347  21800926.173    21800935.035
 02  4  5  1 59 30.0000000  0  9G21G14G17G 9G31G 3G15G18G29
  21112486.856   -23503280.04449 -18291768.26048  21112486.250    21112495.396
  20710277.166   -22184116.92649 -16989750.55848  20710276.634    20710284.919
  22558770.604   -15706783.51749 -11779159.91846  22558769.929    22558782.361
  23236424.512    -8514723.01649  -6271540.81846  23236424.458    23236435.755
  22844169.996   -10322620.61749  -7803592.25246  22844169.161    22844180.335
  21985934.683   -18021282.16149 -14016969.13247  21985934.354    21985945.042
  21666804.695   -20473483.64049 -15716424.15847  21666803.904    21666814.343
  22089541.111   -17810001.28549 -13315445.16747  22089540.649    22089549.149
  21814713.508   -16254610.76949 -11465125.65947  21814713.298    21814722.154
 02  4  5  2  0  0.0000000  0  9G21G14G17G 9G31G 3G15G18G29
  21112904.499   -23501085.39149 -18290058.10848  21112903.881    21112913.002
  20700814.137   -22233845.15549 -17028499.75348  20700813.595    20700821.879
  22574727.910   -15622927.19449 -11713817.38946  22574727.401    22574739.721
  23239639.959    -8497827.12049  -6258375.12246  23239639.602    23239650.745
  22839550.655   -10346894.17749  -7822506.66846  22839549.968    22839561.173
  21993322.658   -17982458.38049 -13986716.86047  21993322.299    21993332.973
  21680387.601   -20402105.12349 -15660804.57347  21680386.810    21680397.236
  22100518.246   -17752316.21849 -13270495.76347  22100517.770    22100526.266
  21828556.759   -16181864.13149 -11408439.96347  21828556.525    21828565.373
 02  4  5  2  0 30.0000000  0  9G21G14G17G 9G31G 3G15G18G29
  21113346.090   -23498764.56449 -18288249.63948  21113345.485    21113354.595
  20691443.507   -22283087.67249 -17066870.46848  20691443.002    20691451.262
  22590743.618   -15538763.94049 -11648235.72346  22590742.984    22590755.489
  23242966.556    -8480347.02949  -6244754.21946  23242966.019    23242977.002
  22835037.249   -10370612.27949  -7840988.26146  22835036.554    22835047.728
  22000801.437   -17943157.36849 -13956092.72047  22000801.072    22000811.747
  21694036.847   -20330377.95549 -15604913.29647  21694036.071    21694046.530
  22111514.274   -17694532.05849 -13225469.14547  22111513.737    22111522.225
  21842453.813   -16108834.50049 -11351533.75447  21842453.564    21842462.417
 02  4  5  2  1  0.0000000  0  9G21G14G17G 9G31G 3G15G18G29
  21113812.981   -23496311.09649 -18286337.80948  21113812.362    21113821.462
  20682166.762   -22331836.90849 -17104856.80448  20682166.254    20682174.489
  22606818.954   -15454287.64949 -11582410.08946  22606818.435    22606830.902
  23246405.342    -8462275.50649  -6230672.44346  23246404.889    23246415.779
  22830630.928   -10393767.37249  -7859031.14446  22830630.293    22830641.401
  22008371.916   -17903374.27149 -13925092.92447  22008371.551    22008382.236
  21707753.618   -20258295.89649 -15548745.47947  21707752.825    21707763.312
  22122530.327   -17636642.09349 -13180360.08447  22122529.811    22122538.301
  21856405.762   -16035516.81549 -11294403.07847  21856405.485    21856414.305
 02  4  5  2  1 30.0000000  0  9G21G14G17G 9G31G 3G15G18G29
  21114304.797   -23493726.36749 -18284323.69748  21114304.181    21114313.282
  20672983.745   -22380093.75249 -17142459.45948  20672983.222    20672991.441
  22622953.316   -15369501.18149 -11516342.77846  22622952.766    22622965.321
  23249956.115    -8443614.36649  -6216131.22646  23249955.930    23249966.771
  22826331.542   -10416360.72549  -7876636.31046  22826330.870    22826341.979
  22016033.475   -17863112.50549 -13893720.14447  22016033.117    22016043.809
  21721537.439   -20185861.30249 -15492302.96447  21721536.663    21721547.159
  22133566.181   -17578648.39049 -13135170.19047  22133565.651    22133574.125
  21870411.628   -15961915.44349 -11237051.34847  21870411.349    21870420.166
 02  4  5  2  2  0.0000000  0  9G21G14G17G 9G31G 3G15G18G29
  21114821.093   -23491013.10149 -18282209.43248  21114820.474    21114829.569
  20663894.038   -22427860.10549 -17179679.91248  20663893.524    20663901.718
  22639146.115   -15284407.79749 -11450036.29446  22639145.536    22639158.132
  23253619.116    -8424366.15949  -6201132.58046  23253618.725    23253629.556
  22822138.497   -10438394.17449  -7893805.18246  22822137.943    22822149.101
  22023785.275   -17822376.44649 -13861977.78847  22023784.911    22023795.613
  21735387.779   -20113077.36549 -15435588.23747  21735387.045    21735397.515
  22144621.205   -17520553.92249 -13089901.78647  22144620.678    22144629.127
  21884470.600   -15888034.97249 -11179482.14747  21884470.326    21884479.142
 02  4  5  2  2 30.0000000  0  9G21G14G17G 9G31G 3G15G18G29
  21115362.025   -23488170.25049 -18279994.19048  21115361.400    21115370.512
  20654898.037   -22475133.93749 -17216516.58848  20654897.532    20654905.725
  22655397.365   -15199007.28349 -11383490.49646  22655396.735    22655409.396
  23257393.946    -8404529.67249  -6185675.53346  23257393.512    23257404.236
  22818052.565   -10459866.20049  -7910536.59246  22818051.951    22818063.060
  22031627.233   -17781166.88949 -13829866.47347  22031626.852    22031637.569
  21749304.710   -20039943.58749 -15378600.90247  21749303.960    21749314.408
  22155695.536   -17462357.72749 -13044554.10647  22155695.011    22155703.445
  21898582.437   -15813876.62849 -11121696.41147  21898582.187    21898590.999
 02  4  5  2  3  0.0000000  0  9G21G14G17G 9G31G 3G15G18G29
  21115928.072   -23485195.38949 -18277676.08248  21115927.468    21115936.580
  20645996.303   -22521912.52749 -17252967.36048  20645995.795    20646003.997
  22671707.234   -15113298.40649 -11316704.39246  22671706.624    22671719.253
  23261280.870    -8384102.96649  -6169758.56646  23261280.571    23261291.273
  22814073.944   -10480774.56149  -7926828.76746  22814073.206    22814084.284
  22039559.269   -17739483.79849 -13797386.17447  22039558.881    22039569.599
  21763288.415   -19966458.89049 -15321340.15247  21763287.649    21763298.100
  22166789.522   -17404058.34049 -12999126.01547  22166789.021    22166797.488
  21912747.211   -15739440.41449 -11063694.15947  21912746.931    21912755.725
 02  4  5  2  3 30.0000000  0  9G21G14G17G 9G31G 3G15G18G29
  21116518.704   -23482091.49049 -18275257.42548  21116518.089    21116527.200
  20637188.466   -22568197.70949 -17289033.65748  20637187.952    20637196.139
  22688075.086   -15027285.13949 -11249681.14246  22688074.473    22688087.201
  23265279.527    -8363088.97649  -6153383.96646  23265279.293    23265290.111
  22810201.923   -10501121.48549  -7942683.46646  22810201.236    22810212.342
  22047580.503   -17697332.01449 -13764540.66047  22047580.108    22047590.830
  21777338.237   -19892626.59049 -15263808.54447  21777337.503    21777347.950
  22177902.641   -17345658.58149 -12953619.70747  22177902.098    22177910.564
  21926963.792   -15664731.66949 -11005479.54447  21926963.509    21926972.323
 02  4  5  2  4  0.0000000  0  9G21G14G17G 9G31G 3G15G18G29
  21117133.684   -23478859.57049 -18272739.00648  21117133.083    21117142.170
  20628474.481   -22613989.83149 -17324715.75148  20628473.955    20628482.110
  22704500.508   -14940969.03149 -11182421.87046  22704499.902    22704512.575
  23269389.961    -8341488.68449  -6136552.51145  23269389.567    23269400.412
  22806436.713   -10520907.34249  -7958100.97146  22806436.083    22806447.129
  22055690.455   -17654714.11249 -13731331.93847  22055690.054    22055700.803
  21791453.941   -19818448.39049 -15206007.36847  21791453.151    21791463.586
  22189034.654   -17287159.53249 -12908036.02847  22189034.121    22189042.602
  21941231.677   -15589753.48349 -10947054.97447  21941231.381    21941240.202
 02  4  5  2  4 30.0000000  0  9G21G14G17G 9G31G 3G15G18G29
  21117774.086   -23475494.13349 -18270116.55048  21117773.480    21117782.557
  20619855.526   -22659282.46149 -17360008.62748  20619855.002    20619863.122
  22720984.316   -14854345.53349 -11114923.07346  22720983.820    22720996.476
  23273612.780    -8319296.87949  -6119260.14345  23273612.473    23273623.310
  22802779.488   -10540126.28649  -7973076.71046  22802778.825    22802789.903
  22063889.743   -17611626.64549 -13697757.32047  22063889.357    22063900.099
  21805636.356   -19743919.23549 -15147932.72647  21805635.603    21805646.066
  22200186.489   -17228556.19449 -12862371.08547  22200185.981    22200194.435
  21955551.427   -15514502.38549 -10888417.74547  21955551.168    21955559.970
 02  4  5  2  5  0.0000000  0  9G21G14G17G 9G31G 3G15G18G29
  21118438.768   -23472000.87749 -18267394.48648  21118438.170    21118447.239
  20611330.659   -22704080.60249 -17394916.18448  20611330.123    20611338.228
  22737525.454   -14767421.18849 -11047189.86946  22737524.929    22737537.651
  23277947.177    -8296518.82749  -6101510.97746  23277946.993    23277957.729
  22799229.016   -10558783.43149  -7987614.68846  22799228.422    22799239.513
  22072177.009   -17568076.90349 -13663822.48147  22072176.620    22072187.383
  21819884.341   -19669045.55749 -15089589.62947  21819883.579    21819894.092
  22211357.077   -17169854.15549 -12816629.23147  22211356.608    22211365.038
  21969921.676   -15438986.13149 -10829573.89947  21969921.430    21969930.230
 02  4  5  2  5 30.0000000  0  9G21G14G17G 9G31G 3G15G18G29
  21119127.671   -23468380.55649 -18264573.41348  21119127.083    21119136.137
  20602899.712   -22748385.14649 -17429439.12248  20602899.180    20602907.277
  22754123.558   -14680198.40049 -10979224.11446  22754123.027    22754135.570
  23282392.821    -8273156.45349  -6083306.50246  23282392.805    23282403.405
  22795785.507   -10576880.08249  -8001715.89146  22795784.757    22795795.741
  22080551.500   -17524068.67049 -13629530.38347  22080551.113    22080561.887
  21834197.465   -19593829.60449 -15030979.81947  21834196.710    21834207.230
  22222546.157   -17111055.22649 -12770811.87847  22222545.662    22222554.123
  21984341.668   -15363208.72449 -10770526.55747  21984341.407    21984350.190
 02  4  5  2  6  0.0000000  0  9G21G14G17G 9G31G 3G15G18G29
  21119841.706   -23464628.16349 -18261649.43448  21119841.098    21119850.137
  20594563.720   -22792190.57849 -17463573.15048  20594563.191    20594571.279
  22770779.069   -14592673.30349 -10911022.78946  22770778.478    22770791.144
  23286950.929    -8249204.93449  -6064642.96646  23286950.639    23286961.221
  22792449.555   -10594411.06849  -8015376.34446  22792448.656    22792459.749
  22089013.867   -17479599.00949 -13594878.72647  22089013.464    22089024.224
  21848576.469   -19518267.34549 -14972100.16447  21848575.746    21848586.295
  22233754.574   -17052154.73149 -12724915.39047  22233754.082    22233762.513
  21998811.893   -15287167.41649 -10711273.59447  21998811.630    21998820.356
 02  4  5  2  6 30.0000000  0  9G21G14G17G 9G31G 3G15G18G29
  21120580.189   -23460747.08749 -18258625.17348  21120579.587    21120588.612
  20586322.322   -22835499.04949 -17497319.92748  20586321.806    20586329.857
  22787491.341   -14504849.73949 -10842588.89846  22787490.759    22787503.479
  23291620.188    -8224667.24849  -6045522.64646  23291619.897    23291630.499
  22789220.473   -10611378.77149  -8028597.86046  22789219.712    22789230.827
  22097563.007   -17434672.89349 -13559871.38347  22097562.616    22097573.405
  21863020.821   -19442362.36149 -14912953.44947  21863020.026    21863030.547
  22244981.661   -16993155.84249 -12678942.21947  22244981.180    22244989.635
  22013331.383   -15210867.21049 -10651818.88047  22013331.048    22013339.777
 02  4  5  2  7  0.0000000  0  9G21G14G17G 9G31G 3G15G18G29
  21121343.882   -23456733.65849 -18255497.78448  21121343.298    21121352.310
  20578176.211   -22878306.86949 -17530676.59448  20578175.696    20578183.730
  22804260.780   -14416725.56549 -10773920.80145  22804260.239    22804272.966
  23296401.516    -8199540.97849  -6025943.71546  23296401.257    23296411.864
  22786099.333   -10627779.78549  -8041377.80446  22786098.612    22786109.736
  22106199.202   -17389289.34749 -13524507.60547  22106198.787    22106209.634
  21877530.660   -19366112.38249 -14853537.93647  21877529.921    21877540.435
  22256228.037   -16934055.77849 -12632890.21147  22256227.574    22256236.014
  22027900.160   -15134307.48149 -10592161.95347  22027899.862    22027908.629
 02  4  5  2  7 30.0000000  0  9G21G14G17G 9G31G 3G15G18G29
  21122131.804   -23452592.86849 -18252271.14848  21122131.223    21122140.253
  20570124.593   -22920618.17549 -17563646.36148  20570124.050    20570132.081
  22821086.455   -14328306.70049 -10705023.03545  22821085.900    22821098.592
  23301293.842    -8173830.98949  -6005909.91446  23301293.730    23301304.267
  22783085.261   -10643618.86549  -8053719.86346  22783084.558    22783095.532
  22114921.198   -17343455.16449 -13488792.68447  22114920.779    22114931.642
  21892105.206   -19289523.01749 -14793857.94447  21892104.442    21892114.949
  22267492.691   -16874859.69649 -12586763.37147  22267492.196    22267500.624
  22042516.993   -15057495.19849 -10532308.22747  22042516.703    22042525.494
 02  4  5  2  8  0.0000000  0  9G21G14G17G 9G31G 3G15G18G29
  21122944.608   -23448321.45949 -18248942.73248  21122944.000    21122953.023
  20562168.076   -22962429.56249 -17596226.58448  20562167.558    20562175.555
  22837968.724   -14239591.01149 -10635893.95945  22837968.123    22837980.627
  23306298.011    -8147534.86649  -5985419.37746  23306297.666    23306308.216
  22780178.821   -10658892.65149  -8065621.43946  22780178.031    22780188.909
  22123729.135   -17297169.43349 -13452725.90047  22123728.701    22123739.549
  21906744.774   -19212591.96049 -14733911.69547  21906743.967    21906754.489
  22278776.168   -16815564.46349 -12540559.26347  22278775.724    22278784.154
  22057182.089   -14980429.43949 -10472256.98747  22057181.811    22057190.629
 02  4  5  2  8 30.0000000  0  9G21G14G17G 9G31G 3G15G18G29
  21123781.703   -23443922.34349 -18245514.80148  21123781.091    21123790.089
  20554306.348   -23003742.93949 -17628418.74248  20554305.820    20554313.783
  22854906.518   -14150582.23849 -10566536.53645  22854905.888    22854918.508
  23311412.893    -8120655.51849  -5964474.38446  23311412.575    23311423.213
  22777379.428   -10673603.50749  -8077084.37346  22777378.569    22777389.512
  22132622.107   -17250436.82749 -13416310.90447  22132621.645    22132632.474
  21921448.532   -19135322.75049 -14673701.94747  21921447.807    21921458.396
  22290077.919   -16756173.23349 -12494280.35847  22290077.451    22290085.888
  22071894.503   -14903115.16749 -10412012.11247  22071894.226    22071903.027
 02  4  5  2  9  0.0000000  0  9G21G14G17G 9G31G 3G15G18G29
  21124643.567   -23439393.01549 -18241985.41648  21124642.954    21124651.945
  20546539.948   -23044555.43049 -17660220.60848  20546539.417    20546547.324
  22871900.441   -14061278.95549 -10496949.61045  22871899.753    22871912.406
  23316638.983    -8093190.73249  -5943073.22546  23316638.857    23316649.574
  22774687.324   -10687749.08849  -8088106.83846  22774686.653    22774697.637
  22141600.119   -17203257.03949 -13379547.46647  22141599.679    22141610.514
  21936217.085   -19057713.72749 -14613227.43047  21936216.343    21936226.933
  22301398.372   -16696683.69249 -12447924.85547  22301397.933    22301406.294
  22086654.219   -14825552.21149 -10351573.44947  22086653.958    22086662.762
 02  4  5  2  9 30.0000000  0  9G21G14G17G 9G31G 3G15G18G29
  21125530.574   -23434731.50249 -18238353.02248  21125529.970    21125538.954
  20538869.268   -23084865.00949 -17691630.58948  20538868.727    20538876.613
  22888950.414   -13971680.52649 -10427132.69745  22888949.839    22888962.464
  23321976.682    -8065139.17349  -5921214.83046  23321976.801    23321987.590
  22772103.447   -10701327.47949  -8098687.33646  22772102.732    22772113.764
  22150663.093   -17155630.71849 -13342436.06547  22150662.665    22150673.490
  21951050.425   -18979764.11449 -14552487.51247  21951049.704    21951060.271
  22312737.815   -16637094.52449 -12401491.70847  22312737.353    22312745.725
  22101461.157   -14747741.15049 -10290941.45847  22101460.927    22101469.753
 02  4  5  2 10  0.0000000  0  9G21G14G17G 9G31G 3G15G18G29
  21126442.077   -23429941.43249 -18234620.46248  21126441.469    21126450.437
  20531293.634   -23124674.90949 -17722651.20948  20531293.092    20531300.943
  22906055.751   -13881792.01849 -10357089.74545  22906055.178    22906067.812
  23327425.403    -8036505.25749  -5898902.65846  23327425.630    23327436.365
  22769626.573   -10714342.71749  -8108829.00546  22769625.986    22769637.004
  22159809.980   -17107563.50749 -13304981.12547  22159809.583    22159820.388
  21965947.762   -18901478.59649 -14491485.84247  21965946.951    21965957.511
  22324095.401   -16577409.83849 -12354984.13047  22324094.911    22324103.305
  22116314.210   -14669688.07049 -10230120.88447  22116313.944    22116322.714
 02  4  5  2 10 30.0000000  0  9G21G14G17G 9G31G 3G15G18G29
  21127378.151   -23425022.25249 -18230787.30348  21127377.531    21127386.493
  20523813.242   -23163984.24149 -17753281.78248  20523812.710    20523820.542
  22923216.180   -13791613.94649 -10286821.16745  22923215.478    22923228.132
  23332985.098    -8007289.03749  -5876136.72846  23332985.271    23332996.080
  22767257.072   -10726794.21249  -8118531.40746  22767256.407    22767267.441
  22169040.388   -17059057.37049 -13267184.16947  22169039.993    22169050.804
  21980908.809   -18822857.53549 -14430222.67947  21980908.074    21980918.648
  22335471.271   -16517629.18349 -12308401.78747  22335470.795    22335479.215
  22131212.910   -14591394.70449 -10169113.08247  22131212.640    22131221.441
 02  4  5  2 11  0.0000000  0  9G21G14G17G 9G31G 3G15G18G29
  21128338.808   -23419973.57449 -18226853.22948  21128338.206    21128347.161
  20516428.329   -23202791.91049 -17783521.44248  20516427.803    20516435.618
  22940431.405   -13701146.73049 -10216327.29245  22940430.820    22940443.650
  23338655.849    -7977490.46249  -5852917.01646  23338655.735    23338666.518
  22764994.876   -10738681.39549  -8127794.07946  22764994.343    22765005.365
  22178354.018   -17010113.96149 -13229046.47247  22178353.626    22178364.458
  21995933.753   -18743901.32249 -14368698.36947  21995932.943    21995943.494
  22346865.452   -16457752.21249 -12261744.39046  22346864.967    22346873.418
  22146157.085   -14512862.81749 -10107919.40447  22146156.775    22146165.571
 02  4  5  2 11 30.0000000  0  9G21G14G17G 9G31G 3G15G18G29
  21129324.014   -23414796.13149 -18222818.82448  21129323.414    21129332.356
  20509138.768   -23241098.53649 -17813370.68748  20509138.239    20509146.036
  22957701.442   -13610392.47649 -10145609.72245  22957700.834    22957713.530
  23344436.962    -7947111.15049  -5829244.78746  23344436.713    23344447.461
  22762839.981   -10750005.22349  -8136617.78546  22762839.464    22762850.456
  22187750.306   -16960736.33449 -13190570.44347  22187749.940    22187760.744
  22011022.019   -18664611.90349 -14306914.43447  22011021.277    22011031.807
  22358277.692   -16397780.28749 -12215013.01346  22358277.197    22358285.689
  22161146.004   -14434095.49849 -10046542.28147  22161145.668    22161154.493
 02  4  5  2 12  0.0000000  0  9G21G14G17G 9G31G 3G15G18G29
  21130334.141   -23409487.79649 -18218682.42748  21130333.525    21130342.453
  20501945.000   -23278901.68449 -17842827.60448  20501944.459    20501952.228
  22975026.185   -13519350.26049 -10074667.76945  22975025.680    22975038.309
  23350328.446    -7916149.23149  -5805118.58146  23350328.574    23350339.242
  22760792.861   -10760763.53049  -8145000.81646  22760792.231    22760803.113
  22197229.194   -16910924.60049 -13151756.14047  22197228.798    22197239.601
  22026173.926   -18584988.24349 -14244870.05947  22026173.167    22026183.712
  22369708.427   -16337711.27149 -12168205.95946  22369707.903    22369716.409
  22176179.627   -14355093.05249  -9984981.93847  22176179.331    22176188.163
 02  4  5  2 12 30.0000000  0  9G21G14G17G 9G31G 3G15G18G29
  21131368.928   -23404049.82949 -18214445.01948  21131368.308    21131377.223
  20494846.811   -23316202.61549 -17871893.18948  20494846.283    20494854.021
  22992405.263   -13428022.89549 -10003503.63745  22992404.710    22992417.513
  23356330.990    -7884606.97349  -5780540.15446  23356330.869    23356341.442
  22758852.860   -10770957.89849  -8152944.41546  22758852.244    22758863.137
  22206789.907   -16860682.84349 -13112606.76347  22206789.489    22206800.318
  22041388.977   -18505032.94149 -14182567.25147  22041388.214    22041398.706
  22381157.239   -16277547.21449 -12121324.85346  22381156.718    22381165.247
  22191257.359   -14275859.10649  -9923241.20847  22191257.052    22191265.893
 02  4  5  2 13  0.0000000  0  9G21G14G17G 9G31G 3G15G18G29
  21132428.466   -23398481.84749 -18210106.29948  21132427.865    21132436.753
  20487844.338   -23353000.57349 -17900566.85248  20487843.791    20487851.513
  23009838.467   -13336411.19649  -9932117.91245  23009837.920    23009850.542
  23362444.070    -7852484.91849  -5755509.93946  23362443.467    23362453.947
  22757020.272   -10780587.89849  -8160448.25546  22757019.653    22757030.488
  22216432.127   -16810012.92649 -13073123.75047  22216431.664    22216442.551
  22056666.962   -18424746.54449 -14120006.46147  22056666.198    22056676.770
  22392624.153   -16217287.97649 -12074369.59046  22392623.639    22392632.151
  22206378.647   -14196395.88949  -9861321.82647  22206378.404    22206387.268
 02  4  5  2 13 30.0000000  0  9G21G14G17G 9G31G 3G15G18G29
  21133512.450   -23392785.31549 -18205667.40848  21133511.844    21133520.737
  20480937.359   -23389296.67849 -17928849.45448  20480936.823    20480944.522
  23027325.175   -13244517.65449  -9860512.58045  23027324.615    23027337.340
  23368666.398    -7819784.89349  -5730029.35246  23368665.960    23368676.497
  22755294.753   -10789655.20249  -8167513.63046  22755294.128    22755304.969
  22226155.064   -16758918.61349 -13033310.03247  22226154.623    22226165.505
  22072007.639   -18344131.07149 -14057189.22847  22072006.828    22072017.430
  22404108.908   -16156935.00449 -12027341.27246  22404108.419    22404116.909
  22221543.016   -14116706.71449  -9799226.37147  22221542.776    22221551.616
 02  4  5  2 14  0.0000000  0  9G21G14G17G 9G31G 3G15G18G29
  21134621.184   -23386958.68049 -18201127.14648  21134620.587    21134629.446
  20474126.165   -23425089.42249 -17956739.83148  20474125.628    20474133.302
  23044865.748   -13152342.22449  -9788687.58545  23044865.073    23044877.740
  23374998.902    -7786506.38649  -5704098.02746  23374998.595    23375009.166
  22753676.631   -10798158.62849  -8174139.62146  22753675.958    22753686.811
  22235958.560   -16707400.86249 -12993166.37347  22235958.157    22235969.048
  22087410.824   -18263186.32549 -13994115.42747  22087410.084    22087420.744
  22415611.727   -16096487.37949 -11980239.21746  22415611.195    22415619.668
  22236750.110   -14036792.86149  -9736955.84047  22236749.868    22236758.717
 02  4  5  2 14 30.0000000  0  9G21G14G17G 9G31G 3G15G18G29
  21135755.180   -23380999.65549 -18196483.72348  21135754.552    21135763.395
  20467411.240   -23460376.26649 -17984236.00248  20467410.707    20467418.356
  23062459.935   -13059883.74249  -9716642.08145  23062459.282    23062472.116
  23381442.172    -7752647.65449  -5677714.57046  23381441.595    23381452.215
  22752166.175   -10806095.81549  -8180324.38146  22752165.464    22752176.282
  22245842.674   -16655459.55049 -12952692.65947  22245842.294    22245853.204
  22102877.058   -18181911.13149 -13930784.13646  22102876.267    22102886.891
  22427132.968   -16035942.77949 -11933061.59846  22427132.429    22427140.875
  22252000.030   -13956653.97649  -9674509.96747  22251999.811    22252008.644
 02  4  5  2 15  0.0000000  0  9G21G14G17G 9G31G 3G15G18G29
  21136912.925   -23374915.41449 -18191742.72948  21136912.280    21136921.137
  20460791.247   -23495164.25649 -18011343.45748  20460790.709    20460798.339
  23080106.449   -12967150.72749  -9644382.62545  23080105.805    23080118.660
  23387994.281    -7718217.04249  -5650885.49145  23387993.509    23388004.145
  22750761.855   -10813474.60349  -8186074.04046  22750761.226    22750772.132
  22255805.583   -16603104.39749 -12911896.47347  22255805.187    22255816.090
  22118404.470   -18100313.97049 -13867201.98046  22118403.688    22118414.352
  22438671.187   -15975309.05749 -11885814.53646  22438670.631    22438679.050
  22267290.954   -13876299.71049  -9611896.26447  22267290.715    22267299.534
 02  4  5  2 15 30.0000000  0  9G21G14G17G 9G31G 3G15G18G29
  21138096.375   -23368696.12349 -18186896.50048  21138095.751    21138104.603
  20454268.046   -23529443.62449 -18038054.58248  20454267.505    20454275.122
  23097806.833   -12874135.09849  -9571902.93945  23097806.142    23097818.995
  23394656.409    -7683205.58849  -5623603.83745  23394655.837    23394666.565
  22749465.714   -10820285.81249  -8191381.41546  22749465.063    22749475.883
  22265848.571   -16550328.27349 -12870772.26147  22265848.184    22265859.090
  22133994.800   -18018386.24749 -13803362.23546  22133994.005    22134004.661
  22450228.173   -15914576.79649 -11838490.68746  22450227.621    22450236.025
  22282624.246   -13795722.96649  -9549109.19947  22282623.980    22282632.771
 02  4  5  2 16  0.0000000  0  9G21G14G17G 9G31G 3G15G18G29
  21139303.862   -23362350.48949 -18181951.82048  21139303.255    21139312.112
  20447840.012   -23563222.83649 -18064375.97248  20447839.475    20447847.067
  23115559.064   -12780846.41249  -9499210.46345  23115558.402    23115571.223
  23401427.208    -7647622.94049  -5595877.08745  23401426.899    23401437.667
  22748275.928   -10826538.25249  -8196253.39446  22748275.237    22748286.033
  22275969.609   -16497142.31649 -12829328.68947  22275969.198    22275980.107
  22149646.204   -17936137.70149 -13739272.48846  22149645.439    22149656.033
  22461802.244   -15853754.74849 -11791096.86546  22461801.678    22461810.070
  22297997.736   -13714934.54949  -9486157.19247  22297997.468    22298006.310
 02  4  5  2 16 30.0000000  0  9G21G14G17G 9G31G 3G15G18G29
  21140536.802   -23355871.26749 -18176903.05048  21140536.171    21140545.032
  20441508.583   -23596494.53549 -18090301.89948  20441508.049    20441515.624
  23133364.265   -12687279.06849  -9426300.85845  23133363.617    23133376.481
  23408308.274    -7611462.85949  -5567700.37646  23408307.966    23408318.791
  22747193.606   -10832225.00049  -8200684.57946  22747193.026    22747203.795
  22286169.420   -16443541.88949 -12787562.16147  22286169.016    22286179.944
  22165359.800   -17853562.19749 -13674927.95946  22165359.041    22165369.663
  22473394.665   -15792835.84749 -11743627.58146  22473394.143    22473402.520
  22313412.459   -13633929.57849  -9423036.45047  22313412.226    22313421.042
 02  4  5  2 17  0.0000000  0  9G21G14G17G 9G31G 3G15G18G29
  21141794.336   -23349262.79149 -18171753.56248  21141793.711    21141802.554
  20435272.880   -23629262.93149 -18115835.64048  20435272.355    20435279.904
  23151221.518   -12593438.48549  -9353178.37345  23151220.804    23151233.866
  23415298.550    -7574730.25649  -5539077.55146  23415298.017    23415308.845
  22746218.335   -10837350.62149  -8204678.51946  22746217.671    22746228.382
  22296446.937   -16389533.44049 -12745477.69147  22296446.541    22296457.446
  22181134.571   -17770665.22949 -13610332.94146  22181133.840    22181144.467
  22485004.640   -15731825.00749 -11696086.66746  22485004.125    22485012.510
  22328867.140   -13552714.66849  -9359752.11747  22328866.887    22328875.711
 02  4  5  2 17 30.0000000  0  9G21G14G17G 9G31G 3G15G18G29
  21143076.123   -23342526.89449 -18166504.78748  21143075.473    21143084.320
  20429132.595   -23661530.14149 -18140978.84548  20429132.056    20429139.598
  23169130.014   -12499328.25449  -9279845.76445  23169129.414    23169142.433
  23422396.882    -7537428.14649  -5510010.94246  23422396.452    23422407.271
  22745349.189   -10841917.66249  -8208237.19846  22745348.523    22745359.279
  22306801.166   -16335121.48749 -12703078.79947  22306800.753    22306811.752
  22196969.826   -17687450.14549 -13545490.04146  22196969.178    22196979.861
  22496631.730   -15670724.27949 -11648475.70246  22496631.176    22496639.577
  22344360.972   -13471294.14249  -9296307.56647  22344360.701    22344369.538
 02  4  5  2 18  0.0000000  0  9G21G14G17G 9G31G 3G15G18G29
  21144383.177   -23335658.19349 -18161152.52448  21144382.539    21144391.342
  20423088.641   -23693290.85249 -18165727.37348  20423088.130    20423095.643
  23187090.671   -12404944.40249  -9206299.92245  23187090.060    23187103.105
  23429604.530    -7499552.19649  -5480497.17646  23429604.112    23429614.769
  22744587.356   -10845921.10749  -8211356.70646  22744586.680    22744597.357
  22317232.718   -16280303.55649 -12660363.56947  22317232.301    22317243.304
  22212866.549   -17603912.63049 -13480395.90046  22212865.813    22212876.521
  22508276.817   -15609528.80049 -11600790.91646  22508276.275    22508284.677
  22359894.447   -13389665.23549  -9232700.64247  22359894.177    22359903.022
 02  4  5  2 18 30.0000000  0  9G21G14G17G 9G31G 3G15G18G29
  21145715.336   -23328657.56649 -18155697.47048  21145714.706    21145723.478
  20417140.974   -23724545.92649 -18190081.90348  20417140.448    20417147.945
  23205103.025   -12310289.21449  -9132542.62845  23205102.511    23205115.434
  23436920.787    -7461104.75049  -5450538.09946  23436920.318    23436931.024
  22743932.406   -10849362.47349  -8214038.23646  22743931.704    22743942.397
  22327740.850   -16225082.92149 -12617334.54447  22327740.457    22327751.465
  22228824.247   -17520054.78349 -13415052.15146  22228823.516    22228834.181
  22519939.712   -15548239.84049 -11553033.28646  22519939.210    22519947.562
  22375466.948   -13307831.06849  -9168933.77947  22375466.707    22375475.571
 02  4  5  2 19  0.0000000  0  9G21G14G17G 9G31G 3G15G18G29
  21147071.958   -23321528.36449 -18150142.22048  21147071.327    21147080.076
  20411288.834   -23755298.86249 -18214045.15148  20411288.309    20411295.786
  23223166.010   -12215367.58249  -9058577.72745  23223165.469    23223178.392
  23444344.931    -7422089.94949  -5420136.93046  23444344.578    23444355.248
  22743383.683   -10852245.85849  -8216284.96446  22743382.994    22743393.663
  22338324.485   -16169465.86349 -12573996.61647  22338324.070    22338335.093
  22244841.935   -17435881.34949 -13349462.51146  22244841.207    22244851.884
  22531619.754   -15486861.08049 -11505205.69346  22531619.215    22531627.528
  22391077.445   -13225797.38549  -9105011.44047  22391077.200    22391086.072
 02  4  5  2 19 30.0000000  0  9G21G14G17G 9G31G 3G15G18G29
  21148453.944   -23314265.93549 -18144483.16148  21148453.320    21148462.065
  20405533.082   -23785545.09849 -18237613.57448  20405532.554    20405540.006
  23241280.394   -12120176.14549  -8984402.61545  23241279.818    23241292.873
  23451877.877    -7382504.38349  -5389291.00646  23451877.533    23451888.170
  22742941.857   -10854566.86549  -8218093.47246  22742941.269    22742951.946
  22348983.898   -16113450.46149 -12530348.29647  22348983.501    22348994.478
  22260920.399   -17351389.03549 -13283624.38146  22260919.556    22260930.305
  22543317.698   -15425387.91349 -11457304.51846  22543317.146    22543325.506
  22406726.332   -13143561.92749  -9040931.87546  22406726.126    22406734.969
 02  4  5  2 20  0.0000000  0  9G21G14G17G 9G31G 3G15G18G29
  21149860.631   -23306873.63049 -18138722.90148  21149860.007    21149868.748
  20399873.128   -23815288.19649 -18260789.94248  20399872.582    20399880.010
  23259445.108   -12024720.09549  -8910021.29345  23259444.402    23259457.558
  23459518.284    -7342352.76449  -5358004.01045  23459518.073    23459528.739
  22742606.441   -10856329.64549  -8219466.98246  22742605.772    22742616.450
  22359717.943   -16057042.76849 -12486394.29047  22359717.579    22359728.556
  22277058.471   -17266582.51749 -13217541.41946  22277057.744    22277068.482
  22555032.922   -15363824.17149 -11409332.78446  22555032.356    22555040.684
  22422412.563   -13061130.55049  -8976699.64746  22422412.317    22422421.168
 02  4  5  2 20 30.0000000  0  9G21G14G17G 9G31G 3G15G18G29
  21151292.473   -23299349.09949 -18132859.60548  21151291.825    21151300.598
  20394309.288   -23844526.04849 -18283572.61648  20394308.754    20394316.141
  23277660.223   -11928998.57349  -8835433.10545  23277659.622    23277672.519
  23467266.870    -7301633.92149  -5326275.00246  23467266.599    23467277.211
  22742377.463   -10857532.45149  -8220404.16346  22742376.820    22742387.487
  22370526.609   -16000242.94149 -12442134.72746  22370526.237    22370537.262
  22293256.656   -17181460.78349 -13151212.82546  22293255.850    22293266.648
  22566765.622   -15302168.13149 -11361289.10946  22566765.103    22566773.453
  22438136.056   -12978503.19349  -8912314.70846  22438135.812    22438144.645
 02  4  5  2 21  0.0000000  0  9G21G14G17G 9G31G 3G15G18G29
  21152748.705   -23291696.43149 -18126896.46148  21152748.067    21152756.818
  20388840.784   -23873263.11249 -18305965.06948  20388840.240    20388847.611
  23295924.867   -11833017.13149  -8760642.40245  23295924.376    23295937.179
  23475122.380    -7260353.31049  -5294108.27746  23475121.952    23475132.634
  22742254.082   -10858180.60049  -8220909.14246  22742253.426    22742264.110
  22381408.582   -15943057.78749 -12397574.89946  22381408.203    22381419.216
  22309513.696   -17096029.48049 -13084643.01246  22309512.936    22309523.653
  22578515.107   -15240424.18449 -11313176.94546  22578514.579    22578522.979
  22453895.520   -12895686.68949  -8847782.38146  22453895.272    22453904.109
 02  4  5  2 21 30.0000000  0  9G21G14G17G 9G31G 3G15G18G29
  21154231.053   -23283906.59249 -18120826.42848  21154230.411    21154239.173
  20383469.300   -23901490.08149 -18327960.04248  20383468.748    20383476.110
  23314240.448   -11736768.05749  -8685643.14345  23314239.967    23314252.861
  23483086.108    -7218502.80249  -5261497.46646  23483085.828    23483096.472
  22742237.953   -10858265.31849  -8220975.08746  22742237.276    22742247.964
  22392365.169   -15885480.77549 -12352709.73246  22392364.748    22392375.775
  22325831.232   -17010280.55449 -13017825.69546  22325830.459    22325841.163
  22590282.934   -15178583.33649 -11264989.26646  22590282.483    22590290.877
  22469692.360   -12812673.87749  -8783097.08946  22469692.116    22469700.934
 02  4  5  2 22  0.0000000  0  9G21G14G17G 9G31G 3G15G18G29
  21155737.946   -23275987.65849 -18114655.79548  21155737.328    21155746.068
  20378193.310   -23929215.37449 -18349564.09148  20378192.761    20378200.096
  23332605.162   -11640261.15249  -8610442.96645  23332604.704    23332617.545
  23491156.723    -7176091.81449  -5228449.91446  23491156.351    23491167.006
  22742327.381   -10857795.42549  -8220608.85846  22742326.655    22742337.299
  22403394.188   -15827522.95149 -12307547.82146  22403393.763    22403404.805
  22342207.380   -16924223.47249 -12950768.24046  22342206.612    22342217.332
  22602067.647   -15116654.15649 -11216732.74946  22602067.184    22602075.603
  22485524.506   -12729475.50949  -8718267.20246  22485524.265    22485533.103
 02  4  5  2 22 30.0000000  0 10G25G21G14G17G 9G31G 3G15G18G29
  24572371.201    -3916071.31649  -3013779.05545  24572370.792    24572389.123
  21157268.544   -23267944.12949 -18108388.07548  21157267.928    21157276.663
  20373011.886   -23956443.66449 -18370780.86848  20373011.348    20373018.657
  23351017.822   -11543502.17649  -8535046.39145  23351017.347    23351030.052
  23499332.664    -7133126.01349  -5194970.03346  23499332.401    23499343.131
  22742521.253   -10856775.91149  -8219814.36546  22742520.581    22742531.232
  22414494.408   -15769191.12149 -12262094.49046  22414493.989    22414505.030
  22358641.085   -16837863.93549 -12883475.13846  22358640.315    22358651.069
  22613868.350   -15054641.13449 -11168410.90046  22613867.875    22613876.275
  22501390.706   -12646098.18349  -8653297.85846  22501390.451    22501399.315
 02  4  5  2 23  0.0000000  0 10G25G21G14G17G 9G31G 3G15G18G29
  24553569.063    -4014874.75049  -3090768.15645  24553568.689    24553586.887
  21158824.178   -23259769.13549 -18102017.92148  21158823.551    21158832.294
  20367926.212   -23983168.78949 -18391605.57348  20367925.669    20367932.951
  23369479.394   -11446486.44349  -8459449.76345  23369478.956    23369491.869
  23507615.327    -7089600.60349  -5161054.08746  23507615.007    23507625.684
  22742820.780   -10855201.49749  -8218587.49046  22742820.113    22742830.696
  22425666.444   -15710481.91649 -12216347.10946  22425666.014    22425677.043
  22375133.331   -16751197.01149 -12815942.51546  22375132.488    22375143.287
  22625686.098   -14992538.54949 -11120019.25746  22625685.614    22625693.997
  22517291.673   -12562538.09049  -8588186.11446  22517291.403    22517300.269
 02  4  5  2 23 30.0000000  0 10G25G21G14G17G 9G31G 3G15G18G29
  24534756.483    -4113732.71949  -3167799.78045  24534756.212    24534774.062
  21160405.892   -23251457.13149 -18095540.99948  21160405.256    21160413.981
  20362937.350   -24009385.25349 -18412033.90748  20362936.792    20362944.060
  23387990.588   -11349209.67549  -8383649.72445  23387990.051    23388003.048
  23516005.160    -7045510.99649  -5126698.53846  23516004.898    23516015.665
  22743226.846   -10853067.27449  -8216924.40246  22743226.223    22743236.763
  22436910.868   -15651392.24049 -12170303.23546  22436910.430    22436921.460
  22391684.888   -16664218.07249 -12748166.75646  22391684.130    22391694.866
  22637521.969   -14930340.69549 -11071553.37046  22637521.460    22637529.846
  22533228.121   -12478791.73149  -8522929.21246  22533227.831    22533236.690
 02  4  5  2 24  0.0000000  0 10G25G21G14G17G 9G31G 3G15G18G29
  24515934.094    -4212642.67449  -3244871.92045  24515933.773    24515951.461
  21162013.692   -23243007.95749 -18088957.19748  21162013.053    21162021.752
  20358045.208   -24035093.23249 -18432066.03048  20358044.659    20358051.910
  23406551.065   -11251673.35049  -8307647.40145  23406550.592    23406563.567
  23524502.312    -7000858.26449  -5091904.17346  23524501.996    23524512.688
  22743739.476   -10850373.37649  -8214825.21846  22743738.808    22743749.323
  22448227.224   -15591924.53849 -12123964.81146  22448226.796    22448237.850
  22408295.567   -16576928.54649 -12680148.97746  22408294.771    22408305.483
  22649375.855   -14868047.88349 -11023013.50546  22649375.384    22649383.755
  22549199.581   -12394861.28949  -8457528.88046  22549199.264    22549208.099
 02  4  5  2 24 30.0000000  0 10G25G21G14G17G 9G31G 3G15G18G29
  24497100.707    -4311611.06749  -3321989.58945  24497100.421    24497117.890
  21163645.957   -23234430.23249 -18082273.21548  21163645.313    21163654.005
  20353248.069   -24060302.09049 -18451709.21548  20353247.520    20353254.739
  23425158.970   -11153888.04149  -8231451.05845  23425158.471    23425171.370
  23533104.498    -6955653.11149  -5056679.34546  23533104.211    23533114.930
  22744356.632   -10847129.93149  -8212297.81746  22744355.990    22744366.458
  22459613.235   -15532090.65249 -12077341.02346  22459612.803    22459623.897
  22424963.324   -16489338.95849 -12611897.35546  22424962.531    22424973.274
  22661246.055   -14805669.24649 -10974406.74746  22661245.616    22661253.978
  22565203.893   -12310758.03149  -8391993.87246  22565203.595    22565212.449
 02  4  5  2 25  0.0000000  0 10G25G21G14G17G 9G31G 3G15G18G29
  24478257.917    -4410628.24749  -3399145.29945  24478257.536    24478274.907
  21165304.185   -23225716.19949 -18075483.02148  21165303.505    21165312.184
  20348547.330   -24085004.53249 -18470957.79648  20348546.764    20348553.969
  23443815.415   -11055847.63749  -8155055.98245  23443814.884    23443828.017
  23541813.170    -6909889.08849  -5021019.04046  23541812.842    23541823.500
  22745079.688   -10843330.25449  -8209336.98946  22745079.020    22745089.455
  22471069.903   -15471885.91649 -12030428.27146  22471069.422    22471080.523
  22441689.317   -16401443.16149 -12543407.16346  22441688.572    22441699.264
  22673134.097   -14743197.32249 -10925727.28946  22673133.586    22673141.947
  22581242.045   -12226476.69549  -8326320.09646  22581241.752    22581250.638
 02  4  5  2 25 30.0000000  0 10G25G21G14G17G 9G31G 3G15G18G29
  24459405.692    -4509695.13249  -3476339.77245  24459405.307    24459422.484
  21166987.569   -23216869.69149 -18068589.60448  21166986.920    21166995.584
  20343942.198   -24109204.23249 -18489814.64148  20343941.642    20343948.832
  23462519.756   -10957556.94749  -8078465.85945  23462519.026    23462532.125
  23550627.371    -6863570.90649  -4984926.92346  23550626.970    23550637.556
  22745907.792   -10838978.49149  -8205945.98346  22745907.086    22745917.478
  22482595.970   -15411316.28149 -11983231.19346  22482595.473    22482606.565
  22458472.829   -16313245.55549 -12474681.77846  22458472.043    22458482.759
  22685039.149   -14680635.90449 -10876978.09946  22685038.625    22685047.014
  22597312.987   -12142022.94149  -8260511.97546  22597312.736    22597321.679
 02  4  5  2 26  0.0000000  0 10G25G21G14G17G 9G31G 3G15G18G29
  24440544.948    -4608807.22849  -3553569.48345  24440544.614    24440561.670
  21168696.574   -23207888.39849 -18061591.15848  21168695.937    21168704.613
  20339433.122   -24132899.44949 -18508278.38348  20339432.564    20339439.723
  23481271.513   -10859015.88349  -8001680.62045  23481270.865    23481283.842
  23559546.730    -6816698.30249  -4948402.79646  23559546.475    23559557.035
  22746841.117   -10834073.59749  -8202123.97046  22746840.430    22746850.847
  22494191.322   -15350382.35949 -11935750.25646  22494190.846    22494201.880
  22475313.811   -16224745.77649 -12405720.96646  22475313.024    22475323.808
  22696961.520   -14617983.17849 -10828157.77246  22696961.031    22696969.383
  22613416.783   -12057397.22949  -8194569.87346  22613416.478    22613425.430
 02  4  5  2 26 30.0000000  0 10G25G21G14G17G 9G31G 3G15G18G29
  24421675.375    -4707964.92749  -3630834.70045  24421675.107    24421692.086
  21170430.885   -23198774.48049 -18054489.36848  21170430.236    21170438.930
  20335019.376   -24156093.40749 -18526351.53648  20335018.830    20335025.965
  23500070.215   -10760228.55349  -7924703.49445  23500069.550    23500082.442
  23568571.217    -6769275.12049  -4911449.62646  23568570.857    23568581.386
  22747879.049   -10828619.02349  -8197873.63046  22747878.381    22747888.754
  22505854.913   -15289089.63349 -11887989.73046  22505854.461    22505865.535
  22492211.451   -16135947.88249 -12336527.83946  22492210.706    22492221.534
  22708900.730   -14555242.15549 -10779268.64646  22708900.246    22708908.588
  22629552.301   -11972604.31749  -8128497.47046  22629552.027    22629560.955
 02  4  5  2 27  0.0000000  0 10G25G21G14G17G 9G31G 3G15G18G29
  24402797.478    -4807166.78149  -3708134.39545  24402797.256    24402814.010
  21172190.165   -23189529.18249 -18047285.20648  21172189.518    21172198.188
  20330700.815   -24178787.45449 -18544035.14548  20330700.259    20330707.389
  23518915.274   -10661197.32149  -7847536.33945  23518914.504    23518927.426
  23577699.779    -6721303.76649  -4874069.32846  23577699.448    23577709.996
  22749021.246   -10822616.95349  -8193196.68946  22749020.501    22749030.874
  22517586.016   -15227442.23549 -11839952.83146  22517585.590    22517596.698
  22509165.363   -16046854.33749 -12267104.34046  22509164.689    22509175.502
  22720856.503   -14492414.22249 -10730311.78046  22720855.979    22720864.319
  22645718.941   -11887647.74049  -8062297.54746  22645718.665    22645727.620
 02  4  5  2 27 30.0000000  0 10G25G21G14G17G 9G31G 3G15G18G29
  24383913.000    -4906403.28249  -3785461.07545  24383912.710    24383929.310
  21173975.779   -23180145.42349 -18039973.15448  21173975.162    21173983.831
  20326478.600   -24200974.88649 -18561323.99348  20326478.052    20326485.168
  23537807.631   -10561917.21849  -7770175.22645  23537806.864    23537819.862
  23586933.846    -6672779.06549  -4836257.83046  23586933.326    23586943.863
  22750268.734   -10816061.36049  -8188088.43246  22750268.007    22750278.377
  22529385.521   -15165435.93549 -11791636.28046  22529385.081    22529396.177
  22526176.689   -15957459.49849 -12197446.05746  22526175.973    22526186.779
  22732830.151   -14429492.42749 -10681281.77546  22732829.599    22732837.932
  22661917.668   -11802522.75049  -7995966.38446  22661917.421    22661926.390
 02  4  5  2 28  0.0000000  0 10G25G21G14G17G 9G31G 3G15G18G29
  24365021.069    -5005678.90849  -3862818.22245  24365020.738    24365037.452
  21175786.530   -23170629.68749 -18032558.26248  21175785.928    21175794.581
  20322351.448   -24222663.01649 -18578223.77148  20322350.909    20322358.003
  23556745.907   -10462396.53949  -7692626.64545  23556745.164    23556758.118
  23596271.356    -6623709.30949  -4798021.63246  23596271.031    23596281.491
  22751620.030   -10808959.95249  -8182554.85246  22751619.322    22751629.636
  22541251.470   -15103080.13549 -11743047.38646  22541251.046    22541262.154
  22543243.750   -15867771.79549 -12127559.58746  22543242.998    22543253.819
  22744820.286   -14366483.81249 -10632184.12646  22744819.699    22744828.052
  22678146.746   -11717238.39449  -7929511.04046  22678146.516    22678155.471
 02  4  5  2 28 30.0000000  0 10G25G21G14G17G 9G31G 3G15G18G29
  24346123.000    -5104987.34449  -3940200.97845  24346122.681    24346139.167
  21177623.053   -23160978.58449 -18025037.89348  21177622.437    21177631.079
  20318319.976   -24243848.42749 -18594731.82148  20318319.410    20318326.489
  23575730.050   -10362632.99449  -7614888.84845  23575729.381    23575742.406
  23605713.378    -6574091.93749  -4759358.72746  23605712.975    23605723.454
  22753075.779   -10801309.94749  -8176593.79446  22753075.084    22753085.439
  22553184.058   -15040374.19849 -11694185.66846  22553183.615    22553194.722
  22560366.925   -15777788.72849 -12057442.95346  22560366.183    22560377.062
  22756827.491   -14303385.06849 -10583016.25846  22756826.957    22756835.310
  22694406.477   -11631793.22449  -7862930.39646  22694406.209    22694415.128
 02  4  5  2 29  0.0000000  0 10G25G21G14G17G 9G31G 3G15G18G29
  24327218.506    -5204328.99249  -4017609.62945  24327218.248    24327234.569
  21179484.923   -23151194.34949 -18017413.78448  21179484.318    21179492.948
  20314383.563   -24264534.08449 -18610850.45048  20314383.015    20314390.066
  23594759.902   -10262630.81249  -7536965.08545  23594759.148    23594772.118
  23615258.591    -6523931.37149  -4720272.53546  23615258.217    23615268.664
  22754635.271   -10793114.86549  -8170208.00546  22754634.514    22754644.826
  22565182.238   -14977323.55849 -11645055.33046  22565181.800    22565192.922
  22577545.558   -15687514.42449 -11987099.38046  22577544.861    22577555.795
  22768851.397   -14240198.66349 -10533780.06546  22768850.892    22768859.226
  22710695.862   -11546192.02649  -7796228.16746  22710695.603    22710704.492
 02  4  5  2 29 30.0000000  0 10G25G21G14G17G 9G31G 3G15G18G29
  24308309.008    -5303696.72249  -4095038.59045  24308308.829    24308325.046
  21181373.055   -23141271.86149 -18009681.94948  21181372.441    21181381.078
  20310543.080   -24284715.59349 -18626576.23948  20310542.554    20310549.586
  23613835.732   -10162387.07049  -7458853.10745  23613834.951    23613848.045
  23624907.677    -6473224.54149  -4680760.70246  23624907.368    23624917.801
  22756299.117   -10784371.11749  -8163394.68546  22756298.383    22756308.708
  22577246.381   -14913926.34049 -11595654.94146  22577245.918    22577257.054
  22594780.245   -15596945.42749 -11916526.16146  22594779.550    22594790.515
  22780892.945   -14176919.93949 -10484471.94546  22780892.396    22780900.764
  22727015.404   -11460432.42749  -7729402.51446  22727015.105    22727023.973
 02  4  5  2 30  0.0000000  0 10G25G21G14G17G 9G31G 3G15G18G29
  24289394.345    -5403092.31049  -4172489.26445  24289394.084    24289410.190
  21183286.725   -23131215.37449 -18001845.68948  21183286.116    21183294.743
  20306797.422   -24304398.83049 -18641913.75748  20306796.897    20306803.911
  23632956.187   -10061908.10449  -7380557.83345  23632955.454    23632968.608
  23634659.490    -6421977.96049  -4640828.27046  23634659.216    23634669.577
  22758066.190   -10775084.87149  -8156158.62846  22758065.449    22758075.775
  22589375.098   -14850189.67649 -11545990.03446  22589374.621    22589385.758
  22612069.816   -15506088.20249 -11845728.36546  22612069.101    22612080.047
  22792950.986   -14113554.45449 -10435096.20146  22792950.439    22792958.775
  22743363.768   -11374521.46049  -7662458.91246  22743363.467    22743372.286
 02  4  5  2 30 30.0000000  0 10G25G21G14G17G 9G31G 3G15G18G29
  24270474.829    -5502513.19449  -4249959.66045  24270474.651    24270490.444
  21185225.988   -23121024.44649 -17993904.67648  21185225.374    21185233.975
  20303146.737   -24323583.17249 -18656862.53548  20303146.204    20303153.187
  23652121.527    -9961194.85049  -7302079.93945  23652120.638    23652133.497
  23644513.968    -6370192.39649  -4600475.86345  23644513.534    23644524.041
  22759936.492   -10765256.30549  -8148499.98646  22759935.804    22759946.082
  22601567.916   -14786115.89549 -11496062.44446  22601567.480    22601578.647
  22629414.024   -15414943.68949 -11774706.69546  22629413.353    22629424.308
  22805025.690   -14050101.20449 -10385652.08046  22805025.150    22805033.465
  22759740.597   -11288460.63649  -7595398.54646  22759740.280    22759749.082
 02  4  5  2 31  0.0000000  0 10G25G21G14G17G 9G31G 3G15G18G29
  24251551.715    -5601953.45549  -4327445.16645  24251551.440    24251567.159
  21187191.417   -23110695.81549 -17985856.35948  21187190.813    21187199.423
  20299591.406   -24342266.22449 -18671420.69548  20299590.866    20299597.845
  23671331.230    -9860245.97049  -7223418.50745  23671330.549    23671343.456
  23654471.097    -6317866.49149  -4559702.41146  23654470.801    23654481.237
  22761910.443   -10754883.45749  -8140417.21846  22761909.688    22761920.013
  22613824.822   -14721705.01849 -11445872.18646  22613824.425    22613835.640
  22646813.293   -15323510.38349 -11703459.98846  22646812.578    22646823.519
  22817117.611   -13986557.55149 -10336137.52046  22817117.059    22817125.351
  22776146.103   -11202249.20249  -7528220.82246  22776145.782    22776154.616
 02  4  5  2 31 30.0000000  0 10G25G21G14G17G 9G31G 3G15G18G29
  24232624.830    -5701413.36749  -4404945.93745  24232624.494    24232640.227
  21189182.596   -23100232.02949 -17977702.72748  21189181.975    21189190.576
  20296130.886   -24360451.26849 -18685590.80348  20296130.331    20296137.288
  23690585.241    -9759066.02549  -7144577.00845  23690584.550    23690597.557
  23664530.450    -6265004.50549  -4518511.22845  23664530.137    23664540.454
  22763987.101   -10743970.23749  -8131913.37746  22763986.390    22763996.678
  22626144.946   -14656962.67049 -11395423.64646  22626144.546    22626155.716
  22664266.678   -15231792.29749 -11631991.36246  22664265.985    22664276.943
  22829226.154   -13922926.44649 -10286554.80146  22829225.606    22829233.879
  22792579.298   -11115892.14949  -7460929.62846  22792578.986    22792587.815
 02  4  5  2 32  0.0000000  0 10G25G21G14G17G 9G31G 3G15G18G29
  24213695.176    -5800887.77649  -4482458.06745  24213694.788    24213710.369
  21191200.059   -23089630.12049 -17969441.46048  21191199.418    21191208.024
  20292765.529   -24378136.03549 -18699371.08248  20292764.991    20292771.942
  23709883.396    -9657653.68149  -7065554.41445  23709882.750    23709895.708
  23674691.871    -6211605.67949  -4476901.71545  23674691.562    23674701.873
  22766166.955   -10732515.05349  -8122987.21846  22766166.181    22766176.507
  22638528.196   -14591888.64349 -11344716.65146  22638527.753    22638538.928
  22681774.583   -15139788.09249 -11560299.77246  22681773.845    22681784.725
  22841351.881   -13859205.33649 -10236901.95946  22841351.352    22841359.579
  22809040.331   -11029388.80849  -7393524.43746  22809040.040    22809048.835
 02  4  5  2 32 30.0000000  0 10G25G21G14G17G 9G31G 3G15G18G29
  24194763.019    -5900375.99349  -4559980.96045  24194762.565    24194777.801
  21193243.534   -23078891.26249 -17961073.48948  21193242.933    21193251.529
  20289494.977   -24395322.64649 -18712763.19348  20289494.435    20289501.376
  23729225.042    -9556012.24549  -6986353.29445  23729224.439    23729237.273
  23684954.935    -6157672.91749  -4434876.18245  23684954.598    23684964.916
  22768449.374   -10720520.43149  -8113640.73846  22768448.671    22768458.999
  22650973.666   -14526487.54849 -11293754.80746  22650973.228    22650984.397
  22699336.334   -15047500.91549 -11488387.72346  22699335.517    22699346.392
  22853494.350   -13795395.99349 -10187180.38646  22853493.865    22853502.036
  22825528.500   -10942742.92449  -7326008.18846  22825528.196    22825537.039
 02  4  5  2 33  0.0000000  0 10G25G21G14G17G 9G31G 3G15G18G29
  24175827.935    -5999877.68149  -4637514.27045  24175827.574    24175842.976
  21195312.670   -23068017.80049 -17952600.61448  21195312.061    21195320.649
  20286318.629   -24412014.28549 -18725769.60048  20286318.094    20286325.008
  23748609.737    -9454145.68649  -6906976.78945  23748609.090    23748622.017
  23695318.598    -6103210.39949  -4392437.82345  23695318.492    23695328.747
  22770833.805   -10707990.12749  -8103876.83246  22770833.090    22770843.407
  22663480.309   -14460764.69349 -11242542.23446  22663479.889    22663491.096
  22716951.125   -14954934.81849 -11416258.31846  22716950.332    22716961.157
  22865653.122   -13731501.15049 -10137392.16446  22865652.668    22865660.832
  22842042.882   -10855959.07449  -7258384.42046  22842042.603    22842051.454
 02  4  5  2 33 30.0000000  0 10G25G21G14G17G 9G31G 3G15G18G29
  24156892.230    -6099383.99749  -4715051.25845  24156891.883    24156907.037
  21197408.737   -23057002.86649 -17944017.51348  21197408.110    21197416.685
  20283237.574   -24428205.15849 -18738385.80448  20283237.027    20283243.921
  23768037.832    -9352049.71149  -6827421.53345  23768037.150    23768050.473
  23705784.245    -6048213.64149  -4349583.19345  23705784.017    23705794.300
  22773321.096   -10694919.32449  -8093691.76046  22773320.379    22773330.721
  22676048.887   -14394716.67049 -11191076.28146  22676048.438    22676059.674
  22734619.810   -14862085.14049 -11343907.94546  22734619.031    22734629.861
  22877829.364   -13667514.67949 -10087532.57246  22877828.868    22877837.030
  22858584.200   -10769033.62249  -7190650.32446  22858584.012    22858592.855
 02  4  5  2 34  0.0000000  0 10G25G21G14G17G 9G31G 3G15G18G29
  24137954.638    -6198899.91349  -4792595.71345  24137954.263    24137969.321
  21199530.276   -23045853.85949 -17935329.93648  21199529.671    21199538.216
  20280250.269   -24443903.14549 -18750617.94048  20280249.725    20280256.611
  23787508.215    -9249733.14949  -6747694.31345  23787507.591    23787520.501
  23716349.594    -5992692.05949  -4306319.58945  23716349.443    23716359.691
  22775909.600   -10681316.49549  -8083092.12646  22775908.906    22775919.251
  22688677.358   -14328353.72549 -11139364.92546  22688676.906    22688688.135
  22752340.918   -14768960.58649 -11271343.39746  22752340.133    22752350.911
  22890021.656   -13603443.85149 -10037607.21546  22890021.128    22890029.332
  22875150.728   -10681975.74849  -7122813.04446  22875150.523    22875159.465
 02  4  5  2 34 30.0000000  0 10G25G21G14G17G 9G31G 3G15G18G29
  24119017.185    -6298415.18449  -4870139.64345  24119016.833    24119031.986
  21201678.932   -23034562.52149 -17926531.44748  21201678.314    21201686.833
  20277358.143   -24459101.11849 -18762460.45648  20277357.608    20277364.484
  23807021.544    -9147189.80349  -6667790.46545  23807020.981    23807033.789
  23727016.122    -5936639.50549  -4262642.28545  23727015.869    23727026.133
  22778600.541   -10667175.05949  -8072072.78946  22778599.883    22778610.244
  22701366.671   -14261671.02249 -11087404.41546  22701366.201    22701377.490
  22770115.533   -14675554.58049 -11198559.51146  22770114.698    22770125.467
  22902231.430   -13539281.04949  -9987610.21346  22902230.915    22902239.063
  22891743.600   -10594779.75549  -7054868.12046  22891743.386    22891752.303
 02  4  5  2 35  0.0000000  0 10G25G21G14G17G 9G31G 3G15G18G29
  24100079.319    -6397932.80049  -4947685.41745  24100079.004    24100094.020
  21203853.581   -23023134.60749 -17917626.53748  21203852.958    21203861.468
  20274559.976   -24473805.35849 -18773918.24248  20274559.445    20274566.308
  23826576.563    -9044427.01649  -6587715.61045  23826576.044    23826589.087
  23737782.302    -5880063.11049  -4218556.74745  23737782.026    23737792.145
  22781392.766   -10652501.79849  -8060639.05646  22781392.080    22781402.415
  22714115.267   -14194676.67749 -11035201.05446  22714114.805    22714126.087
  22787942.228   -14581874.47149 -11125562.03046  22787941.476    22787952.248
  22914457.628   -13475032.05449  -9937546.03146  22914457.072    22914465.211
  22908361.258   -10507453.45749  -6986821.68146  22908361.022    22908369.984
 02  4  5  2 35 30.0000000  0 10G25G21G14G17G 9G31G 3G15G18G29
  24081141.892    -6497447.56549  -5025228.96845  24081141.543    24081156.501
  21206054.663   -23011567.52949 -17908613.19048  21206054.044    21206062.552
  20271856.079   -24488014.15549 -18784989.97548  20271855.537    20271862.391
  23846173.512    -8941444.12549  -6507469.22045  23846173.037    23846186.001
  23748648.162    -5822962.31349  -4174062.60445  23748647.993    23748658.065
  22784286.427   -10637295.75349  -8048790.16346  22784285.698    22784295.989
  22726923.057   -14127371.51649 -10982755.49746  22726922.619    22726933.860
  22805821.316   -14487919.60449 -11052350.46646  22805820.499    22805831.281
  22926700.532   -13410694.66749  -9887412.96246  22926700.006    22926708.144
  22925003.788   -10419996.60549  -6918673.49046  22925003.560    22925012.530
 02  4  5  2 36  0.0000000  0 10G25G21G14G17G 9G31G 3G15G18G29
  24062205.223    -6596959.68349  -5102770.45045  24062204.833    24062219.722
  21208281.889   -22999863.23549 -17899492.92248  21208281.282    21208289.790
  20269245.928   -24501730.49349 -18795677.97448  20269245.383    20269252.226
  23865811.490    -8838245.42049  -6427054.68745  23865810.952    23865824.178
  23759613.052    -5765341.30849  -4129163.10245  23759612.782    23759622.885
  22787280.642   -10621560.65949  -8036529.02346  22787279.944    22787290.255
  22739788.916   -14059761.05349 -10930072.04446  22739788.492    22739799.777
  22823751.841   -14393693.91149 -10978927.88546  22823751.086    22823761.883
  22938959.839   -13346271.38049  -9837212.96546  22938959.339    22938967.412
  22941670.215   -10332413.98249  -6850427.31246  22941670.012    22941678.984
 02  4  5  2 36 30.0000000  0 10G25G21G14G17G 9G31G 3G15G18G29
  24043270.056    -6696462.06949  -5180304.35645  24043269.662    24043284.565
  21210536.168   -22988016.78649 -17890261.88348  21210535.562    21210544.032
  20266730.135   -24514950.72249 -18805979.39348  20266729.585    20266736.420
  23885491.206    -8734828.01049  -6346469.71845  23885490.569    23885503.743
  23770677.397    -5707197.47949  -4083856.20545  23770677.162    23770687.242
  22790376.225   -10605293.25949  -8023853.10246  22790375.482    22790385.844
  22752713.235   -13991843.39449 -10877149.22046  22752712.785    22752724.059
  22841734.444   -14299194.38649 -10905291.94546  22841733.697    22841744.605
  22951236.382   -13281757.78049  -9786942.60746  22951235.850    22951243.925
  22958361.086   -10244703.12149  -6782081.20246  22958360.877    22958369.830
 02  4  5  2 37  0.0000000  0 10G25G21G14G17G 9G31G 3G15G18G29
  24024336.741    -6795955.83849  -5257831.56345  24024336.418    24024350.998
  21212816.816   -22976031.68149 -17880922.80048  21212816.203    21212824.672
  20264307.998   -24527678.98749 -18815897.46048  20264307.442    20264314.250
  23905211.646    -8631197.24949  -6265718.50145  23905211.088    23905224.043
  23781840.241    -5648536.40549  -4038146.27145  23781839.964    23781850.110
  22793572.024   -10588498.66949  -8010766.38746  22793571.389    22793581.688
  22765694.795   -13923624.95249 -10823992.01446  22765694.328    22765705.622
  22859768.275   -14204426.13649 -10831446.57146  22859767.533    22859778.440
  22963529.311   -13217157.73449  -9736604.89546  22963528.770    22963536.900
  22975075.254   -10156869.71049  -6713639.59046  22975074.967    22975083.953
 02  4  5  2 37 30.0000000  0 10G25G21G14G17G 9G31G 3G15G18G29
  24005405.852    -6895436.90749  -5335348.83045  24005405.355    24005420.035
  21215124.217   -22963906.12049 -17871474.27248  21215123.586    21215132.051
  20261979.606   -24539914.57049 -18825431.62448  20261979.054    20261985.847
  23924972.613    -8527353.23949  -6184801.11345  23924972.107    23924984.909
  23793101.388    -5589358.61349  -3992033.70045  23793101.089    23793111.356
  22796868.208   -10571176.76449  -7997268.76946  22796867.587    22796877.907
  22778733.267   -13855107.12349 -10770601.52346  22778732.831    22778744.142
  22877853.129   -14109389.36449 -10757391.95946  22877852.403    22877863.334
  22975839.053   -13152469.50549  -9686198.47546  22975838.478    22975846.641
  22991812.648   -10068914.23949  -6645102.87846  22991812.369    22991821.371
 02  4  5  2 38  0.0000000  0 10G25G21G14G17G 9G31G 3G15G18G29
  23986477.677    -6994903.18649  -5412854.62445  23986477.338    23986491.736
  21217458.302   -22951640.21049 -17861916.38548  21217457.680    21217466.144
  20259744.711   -24551658.72149 -18834582.85448  20259744.151    20259750.923
  23944773.702    -8423298.20949  -6103719.32345  23944773.158    23944785.981
  23804460.447    -5529666.47749  -3945520.33145  23804460.115    23804470.383
  22800264.520   -10553329.33549  -7983361.66346  22800263.836    22800274.137
  22791828.125   -13786293.56549 -10716980.59846  22791827.656    22791838.986
  22895988.676   -14014086.14149 -10683129.75146  22895987.977    22895998.902
  22988165.452   -13087693.93549  -9635723.99046  22988164.854    22988172.984
  23008572.780    -9980839.39949  -6576473.14646  23008572.487    23008581.475
 02  4  5  2 38 30.0000000  0 10G25G21G14G17G 9G31G 3G15G18G29
  23967553.143    -7094351.08549  -5490346.09445  23967552.700    23967566.980
  21219819.224   -22939233.32349 -17852248.63648  21219818.615    21219827.084
  20257603.362   -24562911.35749 -18843351.07848  20257602.794    20257609.561
  23964614.684    -8319033.08449  -6022473.82645  23964614.082    23964627.080
  23815917.081    -5469460.94649  -3898606.92045  23815916.785    23815927.055
  22803760.587   -10534957.02949  -7969045.55846  22803759.935    22803770.277
  22804978.738   -13717186.51249 -10663130.96546  22804978.292    22804989.651
  22914174.857   -13918517.23349 -10608660.50846  22914174.137    22914185.149
  23000508.650   -13022830.14149  -9585180.76646  23000508.060    23000516.112
  23025355.319    -9892646.39849  -6507751.34546  23025355.038    23025364.081
 02  4  5  2 39  0.0000000  0 10G25G21G14G17G 9G31G 3G15G18G29
  23948632.573    -7193777.12149  -5567820.51145  23948632.268    23948646.528
  21222207.371   -22926683.40949 -17842469.45048  21222206.762    21222215.209
  20255555.645   -24573671.96649 -18851735.91748  20255555.081    20255561.833
  23984495.344    -8214558.60349  -5941065.19745  23984494.779    23984507.884
  23827471.300    -5408742.93749  -3851294.17245  23827471.045    23827481.258
  22807356.556   -10516060.19449  -7954320.72446  22807355.876    22807366.199
  22818184.957   -13647787.53649 -10609053.86846  22818184.520    22818195.840
  22932411.575   -13822682.78449 -10533984.36146  22932410.862    22932421.896
  23012868.774   -12957877.15749  -9534568.04446  23012868.213    23012876.239
  23042160.183    -9804336.32649  -6438938.31746  23042159.935    23042168.966
 02  4  5  2 39 30.0000000  0 10G25G21G14G17G 9G31G 3G15G18G29
  23929716.220    -7293181.54949  -5645278.12645  23929715.933    23929729.940
  21224622.325   -22913992.53949 -17832580.42048  21224621.710    21224630.134
  20253600.760   -24583944.61649 -18859740.51948  20253600.204    20253606.953
  24004415.127    -8109879.32249  -5859496.96245  24004414.739    24004427.793
  23839122.229    -5347517.08049  -3803585.70845  23839121.890    23839132.182
  22811051.378   -10496643.45749  -7939190.78146  22811050.728    22811061.055
  22831445.571   -13578102.75549 -10554754.04346  22831445.129    22831456.438
  22950697.947   -13726587.60449 -10459105.03246  22950697.213    22950708.171
  23025245.282   -12892838.27649  -9483888.37546  23025244.695    23025252.754
  23058986.385    -9715914.26449  -6370038.01346  23058986.076    23058995.127
 02  4  5  2 40  0.0000000  0 10G25G21G14G17G 9G31G 3G15G18G29
  23910804.651    -7392560.53149  -5722715.89545  23910804.446    23910818.304
  21227064.402   -22901159.44949 -17822580.57947  21227063.769    21227072.167
  20251738.887   -24593728.58249 -18867364.33848  20251738.333    20251745.071
  24024373.849    -8004995.78649  -5777769.59145  24024373.432    24024386.162
  23850869.629    -5285784.14349  -3755482.13045  23850869.237    23850879.501
  22814845.177   -10476706.74149  -7923655.66046  22814844.522    22814854.837
  22844760.251   -13508133.54149 -10500232.60446  22844759.812    22844771.149
  22969033.901   -13630231.91149 -10384022.71746  22969033.119    22969044.121
  23037638.381   -12827712.05349  -9433140.65046  23037637.825    23037645.876
  23075833.728    -9627380.72849  -6301050.85946  23075833.453    23075842.450
 02  4  5  2 40 30.0000000  0 10G25G21G14G17G 9G31G 3G15G18G29
  23891898.471    -7491911.10449  -5800131.52945  23891898.313    23891912.207
  21229533.596   -22888183.54849 -17812469.44547  21229532.960    21229541.359
  20249969.965   -24603024.08649 -18874607.52748  20249969.408    20249976.143
  24044371.144    -7899909.13549  -5695883.96245  24044370.689    24044383.710
  23862713.245    -5223545.76349  -3706984.67345  23862712.918    23862723.015
  22818737.771   -10456250.99149  -7907716.09946  22818737.117    22818747.430
  22858128.566   -13437882.40449 -10445491.48146  22858128.157    22858139.507
  22987419.134   -13533616.63649 -10308738.13046  22987418.440    22987429.478
  23050048.131   -12762498.26149  -9382324.67546  23050047.614    23050055.688
  23092701.961    -9538737.45249  -6231978.17946  23092701.695    23092710.754
 02  4  5  2 41  0.0000000  0 10G25G21G14G17G 9G31G 3G15G18G29
  23872998.494    -7591229.73949  -5877522.31745  23872998.338    23873011.949
  21232030.166   -22875063.92849 -17802246.33147  21232029.522    21232037.903
  20248293.935   -24611831.44949 -18881470.35348  20248293.368    20248300.088
  24064407.076    -7794620.63949  -5613841.01145  24064406.508    24064419.486
  23874652.687    -5160803.19849  -3658094.38945  23874652.311    23874662.511
  22822728.851   -10435277.43149  -7891373.04746  22822728.224    22822738.551
  22871550.092   -13367351.72549 -10390532.53646  22871549.686    22871561.054
  23005853.548   -13436743.21249 -10233252.38646  23005852.889    23005863.923
  23062474.729   -12697196.13949  -9331439.88446  23062474.142    23062482.255
  23109590.718    -9449986.10549  -6162821.29846  23109590.513    23109599.570
 02  4  5  2 41 30.0000000  0 10G25G21G14G17G 9G31G 3G15G18G29
  23854104.750    -7690515.11149  -5954887.15545  23854104.607    23854118.328
  21234553.896   -22861801.38349 -17791911.84547  21234553.265    21234561.631
  20246710.409   -24620152.58349 -18887954.29648  20246709.865    20246716.556
  24084480.866    -7689133.16149  -5531643.01545  24084480.231    24084493.039
  23886687.611    -5097559.62949  -3608813.65245  23886687.221    23886697.341
  22826818.084   -10413788.55949  -7874628.46146  22826817.423    22826827.693
  22885024.075   -13296545.65149 -10335358.99046  22885023.618    22885035.005
  23024336.717   -13339614.04249 -10157567.34546  23024336.013    23024346.964
  23074917.833   -12631807.03249  -9280487.31546  23074917.178    23074925.368
  23126499.635    -9361129.54749  -6093582.43246  23126499.377    23126508.439
 02  4  5  2 42  0.0000000  0 10G25G21G14G17G 9G31G 3G15G18G29
  23835218.106    -7789763.80449  -6032223.42845  23835217.963    23835231.535
  21237105.073   -22848394.61849 -17781464.98047  21237104.449    21237112.827
  20245219.413   -24627987.65049 -18894059.48148  20245218.867    20245225.540
  24104592.136    -7583447.57949  -5449290.71945  24104591.588    24104604.437
  23898817.465    -5033816.10349  -3559143.40045  23898817.072    23898827.355
  22831005.191   -10391785.05249  -7857482.86546  22831004.584    22831014.818
  22898550.098   -13225466.05549 -10279972.31946  22898549.654    22898561.035
  23042868.309   -13242230.09749 -10081683.80646  23042867.554    23042878.586
  23087377.579   -12566330.01049  -9229466.24146  23087376.992    23087385.212
  23143428.333    -9272168.89349  -6024262.44346  23143428.048    23143437.077
 02  4  5  2 42 30.0000000  0 10G25G21G14G17G 9G31G 3G15G18G29
  23816338.936    -7888973.60049  -6109529.40645  23816338.752    23816352.094
  21239683.802   -22834843.20249 -17770905.39747  21239683.183    21239691.547
  20243820.638   -24635337.98049 -18899786.95148  20243820.085    20243826.741
  24124740.542    -7477566.06749  -5366785.67645  24124740.128    24124752.802
  23911042.246    -4969575.17149  -3509085.47445  23911041.841    23911052.012
  22835289.890   -10369268.95349  -7839937.84246  22835289.208    22835299.468
  22912127.497   -13154116.64949 -10224375.40246  22912127.054    22912138.427
  23061447.969   -13144593.46149 -10005603.36546  23061447.192    23061458.366
  23099853.994   -12500765.71649  -9178377.14546  23099853.404    23099861.677
  23160376.297    -9183106.75849  -5954863.38446  23160376.035    23160384.987
 02  4  5  2 43  0.0000000  0 10G25G21G14G17G 9G31G 3G15G18G29
  23797467.634    -7988140.97149  -6186802.31345  23797467.487    23797480.816
  21242290.187   -22821146.22249 -17760232.39047  21242289.569    21242297.937
  20242514.146   -24642203.48549 -18905136.63848  20242513.599    20242520.239
  24144926.405    -7371489.53349  -5284128.71645  24144925.716    24144938.400
  23923361.138    -4904837.98849  -3458640.97745  23923360.742    23923371.194
  22839671.907   -10346240.93449  -7821993.92946  22839671.235    22839681.523
  22925755.772   -13082499.39449 -10168569.78846  22925755.340    22925766.697
  23080075.606   -13046704.90249  -9929326.60546  23080074.816    23080085.866
  23112347.239   -12435113.24949  -9127219.38146  23112346.646    23112354.911
  23177343.348    -9093944.27649  -5885386.13846  23177343.089    23177352.049
 02  4  5  2 43 30.0000000  0 10G25G21G14G17G 9G31G 3G15G18G29
  23778604.935    -8087263.40349  -6264040.22545  23778604.825    23778618.087
  21244924.308   -22807303.78849 -17749446.03747  21244923.685    21244932.052
  20241299.737   -24648584.97949 -18910109.17448  20241299.200    20241305.818
  24165149.026    -7265220.00349  -5201321.34545  24165148.256    24165161.161
  23935774.406    -4839606.83149  -3407811.47145  23935773.889    23935784.220
  22844151.092   -10322702.82449  -7803652.52746  22844150.434    22844160.636
  22939434.479   -13010617.29349 -10112557.79846  22939434.061    22939445.450
  23098750.846   -12948565.87849  -9852854.67546  23098750.108    23098761.078
  23124857.165   -12369372.66349  -9075992.90446  23124856.625    23124864.913
  23194329.143    -9004683.55049  -5815832.31946  23194328.860    23194337.805
 02  4  5  2 44  0.0000000  0 10G25G21G14G17G 9G31G 3G15G18G29
  23759751.095    -8186339.96849  -6341242.40245  23759750.868    23759763.997
  21247585.768   -22793317.49649 -17738547.59747  21247585.153    21247593.495
  20240176.891   -24654485.43349 -18914706.88448  20240176.338    20240182.946
  24185407.421    -7158760.87249  -5118366.23645  24185406.761    24185419.467
  23948280.622    -4773885.63749  -3356600.17445  23948280.111    23948290.508
  22848726.698   -10298658.00149  -7784916.30546  22848725.976    22848736.241
  22953162.714   -12938475.10349 -10056343.14746  22953162.267    22953173.689
  23117473.068   -12850180.08049  -9776190.48146  23117472.307    23117483.317
  23137383.594   -12303545.94049  -9024699.33046  23137383.023    23137391.311
  23211332.853    -8915328.37749  -5746204.92846  23211332.579    23211341.563
 02  4  5  2 44 30.0000000  0  9G25G21G14G 9G31G 3G15G18G29
  23740906.541    -8285367.13449  -6418406.06545  23740906.313    23740919.332
  21250275.122   -22779184.87849 -17727535.12847  21250274.491    21250282.836
  20239145.656   -24659904.33449 -18918929.35048  20239145.112    20239151.720
  23960879.966    -4707675.19149  -3305007.61545  23960879.508    23960889.953
  22853398.625   -10274106.83749  -7765785.52346  22853397.931    22853408.197
  22966940.188   -12866074.39649  -9999927.04646  22966939.689    22966951.149
  23136242.180   -12751547.98149  -9699334.34046  23136241.424    23136252.452
  23149926.629   -12237631.75249  -8973337.60746  23149926.060    23149934.336
  23228354.450    -8825879.39849  -5676504.43146  23228354.165    23228363.158
 02  4  5  2 45  0.0000000  0  9G25G21G14G 9G31G 3G15G18G29
  23722072.573    -8384339.31849  -6495526.91645  23722072.341    23722085.265
  21252992.751   -22764903.43349 -17716406.69247  21252992.110    21253000.461
  20238206.334   -24664840.22749 -18922775.45448  20238205.812    20238212.388
  23973572.538    -4640974.81649  -3253033.29445  23973572.222    23973582.489
  22858167.081   -10249048.42449  -7746259.48746  22858166.361    22858176.611
  22980766.748   -12793415.59449  -9943309.84146  22980766.256    22980777.679
  23155058.325   -12652668.30349  -9622285.27546  23155057.587    23155068.575
  23162486.843   -12171627.52349  -8921905.70046  23162486.254    23162494.506
  23245394.000    -8736335.96349  -5606730.33246  23245393.719    23245402.670
 02  4  5  2 45 30.0000000  0  9G25G21G14G 9G31G 3G15G18G29
  23703248.894    -8483256.83249  -6572605.15745  23703248.662    23703261.463
  21255738.237   -22750475.53749 -17705164.13547  21255737.609    21255745.936
  20237358.276   -24669296.77849 -18926248.03748  20237357.719    20237364.280
  23986357.427    -4573789.63949  -3200681.20945  23986357.151    23986367.473
  22863031.084   -10223487.56549  -7726341.94346  22863030.393    22863040.681
  22994641.218   -12720504.85549  -9886496.32546  22994640.732    22994652.179
  23173920.736   -12553546.21249  -9545047.30846  23173919.989    23173930.979
  23175063.532   -12105536.41749  -8870406.10946  23175062.898    23175071.160
  23262450.576    -8646703.18349  -5536886.61146  23262450.271    23262459.191
 02  4  5  2 46  0.0000000  0  9G25G21G14G 9G31G 3G15G18G29
  23684436.173    -8582117.64749  -6649639.22345  23684435.947    23684448.564
  21258511.646   -22735901.07249 -17693807.36947  21258511.019    21258519.334
  20236601.044   -24673275.78249 -18929348.50348  20236600.493    20236607.042
  23999234.071    -4506122.66249  -3147953.68845  23999233.786    23999244.019
  22867990.286   -10197426.53549  -7706034.64146  22867989.620    22867999.962
  23008562.945   -12647345.81549  -9829489.33346  23008562.464    23008573.895
  23192828.848   -12454183.71449  -9467622.02046  23192828.109    23192839.147
  23187656.597   -12039359.14349  -8818839.37746  23187656.000    23187664.208
  23279523.681    -8556983.50449  -5466975.16946  23279523.322    23279532.272
 02  4  5  2 46 30.0000000  0  9G25G21G14G 9G31G 3G15G18G29
  23665634.859    -8680918.15949  -6726626.30045  23665634.533    23665647.180
  21261313.160   -22721178.86249 -17682335.47847  21261312.540    21261320.835
  20235934.703   -24676777.22749 -18932076.84948  20235934.154    20235940.683
  24012202.140    -4437975.06049  -3094851.66745  24012201.809    24012211.948
  22873044.574   -10170866.25249  -7685338.30446  22873043.861    22873054.233
  23022531.594   -12573940.18249  -9772290.17846  23022531.103    23022542.526
  23211782.615   -12354581.38949  -9390009.84646  23211781.798    23211792.854
  23200266.343   -11973094.55549  -8767204.62846  23200265.710    23200273.939
  23296613.103    -8467177.95149  -5396996.82846  23296612.781    23296621.712
 02  4  5  2 47  0.0000000  0  9G25G21G14G 9G31G 3G15G18G29
  23646845.466    -8779655.83349  -6803564.42545  23646845.110    23646857.627
  21264142.883   -22706308.28349 -17670747.97247  21264142.261    21264150.569
  20235359.081   -24679801.90349 -18934433.68648  20235358.533    20235365.053
  24025261.325    -4369348.74149  -3041376.61845  24025260.928    24025271.116
  22878193.566   -10143807.95849  -7664253.90846  22878192.897    22878203.217
  23036546.619   -12500290.91349  -9714901.18846  23036546.151    23036557.625
  23230781.611   -12254740.86649  -9312212.05346  23230780.805    23230791.887
  23212892.709   -11906742.48449  -8715501.70246  23212892.119    23212900.253
  23313718.585    -8377288.22249  -5326952.89546  23313718.209    23313727.187
 02  4  5  2 47 30.0000000  0  9G25G21G14G 9G31G 3G15G18G29
  23628068.749    -8878326.68649  -6880450.46545  23628068.410    23628080.900
  21267001.145   -22691287.91049 -17659043.74447  21267000.512    21267008.807
  20234874.176   -24682349.94849 -18936419.12148  20234873.619    20234880.133
  24038411.290    -4300245.08649  -2987529.61545  24038411.034    24038421.053
  22883437.230   -10116252.60349  -7642782.19046  22883436.507    22883446.872
  23050607.635   -12426399.93649  -9657323.83946  23050607.197    23050618.655
  23249825.803   -12154663.01649  -9234229.35246  23249825.010    23249836.181
  23225535.831   -11840302.09849  -8663729.95346  23225535.217    23225543.401
  23330839.820    -8287315.51049  -5256844.28846  23330839.466    23330848.369
 02  4  5  2 48  0.0000000  0  9G25G21G14G 9G31G 3G15G18G29
  23609305.207    -8976928.34349  -6957282.59945  23609304.809    23609317.235
  21269888.046   -22676117.05349 -17647222.26047  21269887.403    21269895.679
  20234479.782   -24684422.26349 -18938033.86248  20234479.232    20234485.725
  24051651.676    -4230666.15649  -2933312.27445  24051651.448    24051661.554
  22888775.067   -10088202.01849  -7620924.59246  22888774.321    22888784.677
  23064714.228   -12352269.98849  -9599560.27646  23064713.691    23064725.118
  23268914.801   -12054349.47349  -9156062.95746  23268914.006    23268925.218
  23238195.823   -11773773.40949  -8611889.38746  23238195.222    23238203.383
  23347976.477    -8197261.43449  -5186672.29546  23347976.202    23347985.066
 02  4  5  2 48 30.0000000  0  9G25G21G14G 9G31G 3G15G18G29
  23590555.222    -9075459.32149  -7034059.66546  23590554.780    23590567.029
  21272803.279   -22660797.25049 -17635284.70847  21272802.645    21272810.915
  20234175.473   -24686021.30149 -18939279.81448  20234174.912    20234181.391
  24064981.895    -4160615.65849  -2878727.46445  24064981.620    24064991.856
  22894206.534   -10059659.35049  -7598683.54746  22894205.811    22894216.116
  23078865.319   -12277905.54549  -9541613.98446  23078864.835    23078876.265
  23288048.151   -11953803.27549  -9077715.28046  23288047.260    23288058.418
  23250872.333   -11707157.81549  -8559981.11046  23250871.766    23250879.885
  23365128.030    -8107129.37349  -5116439.52346  23365127.749    23365136.665
 02  4  5  2 49  0.0000000  0 10G25G21G14G 9G31G 3G15G11G18G29
  23571818.814    -9173917.42249  -7110779.94846  23571818.500    23571830.748
  21275746.808   -22645328.97849 -17623231.47147  21275746.147    21275754.410
  20233960.792   -24687149.05949 -18940158.53848  20233960.251    20233966.705
  24078401.345    -4090096.44049  -2823777.42045  24078400.990    24078411.284
  22899731.207   -10030627.25349  -7576061.12946  22899730.467    22899740.788
  23093060.314   -12203310.50249  -9483488.02746  23093059.837    23093071.245
  23307225.276   -11853026.79749  -8999188.19246  23307224.464    23307235.701
  24701276.199    -5570546.08749  -4077307.39145  24701275.933    24701287.476
  23263565.272   -11640455.78749  -8508005.49346  23263564.659    23263572.837
  23382293.843    -8016921.98149  -5046148.07846  23382293.655    23382302.537
 02  4  5  2 49 30.0000000  0 10G25G21G14G 9G31G 3G15G11G18G29
  23553096.601    -9272302.59849  -7187443.41746  23553096.242    23553108.306
  21278718.305   -22629713.39449 -17611063.43547  21278717.650    21278725.904
  20233835.268   -24687808.65949 -18940672.45648  20233834.708    20233841.153
  24091909.011    -4019113.05149  -2768465.69545  24091908.529    24091918.970
  22905348.174   -10001109.68549  -7553060.41346  22905347.438    22905357.771
  23107298.152   -12128490.19449  -9425186.52246  23107297.701    23107309.169
  23326445.373   -11752024.13949  -8920484.83346  23326444.668    23326455.980
  24682013.726    -5671769.95849  -4156182.99045  24682013.378    24682024.921
  23276274.231   -11573669.80449  -8455964.42946  23276273.641    23276281.753
  23399473.324    -7926643.47149  -4975801.19246  23399473.082    23399482.059
 02  4  5  2 50  0.0000000  0 10G25G21G14G 9G31G 3G15G11G18G29
  23534390.182    -9370604.32349  -7264041.82746  23534389.842    23534401.899
  21281719.376   -22613942.40849 -17598774.31247  21281718.733    21281726.977
  20233800.044   -24687993.55749 -18940816.48048  20233799.482    20233805.889
  24105505.960    -3947660.29649  -2712788.20545  24105505.576    24105515.955
  22911058.625    -9971100.97649  -7529676.99446  22911057.915    22911068.284
  23121579.768   -12053439.93049  -9366705.84746  23121579.363    23121590.797
  23345709.745   -11650789.46549  -8841600.68946  23345709.022    23345720.261
  24662767.294    -5772909.64349  -4234993.01445  24662766.962    24662778.362
  23289000.507   -11506792.35549  -8403852.12646  23288999.970    23289008.098
  23416667.486    -7836288.13549  -4905394.44446  23416667.148    23416676.090
 02  4  5  2 50 30.0000000  0 10G25G21G14G 9G31G 3G15G11G18G29
  23515699.483    -9468823.18449  -7340575.69446  23515699.191    23515711.103
  21284749.501   -22598018.83649 -17586366.28947  21284748.875    21284757.110
  20233854.351   -24687708.11349 -18940594.00348  20233853.775    20233860.171
  24119191.236    -3875743.57149  -2656749.19845  24119190.862    24119201.343
  22916861.495    -9940606.31249  -7505914.90946  22916860.828    22916871.143
  23135903.981   -11978165.89449  -9308050.80946  23135903.537    23135914.998
  23365017.255   -11549327.44649  -8762539.40846  23365016.605    23365027.884
  24643536.750    -5873966.03249  -4313738.05245  24643536.474    24643547.909
  23301743.677   -11439826.47249  -8351670.90846  23301743.139    23301751.193
  23433875.269    -7745860.79949  -4834931.58546  23433874.906    23433883.888
 02  4  5  2 51  0.0000000  0 10G25G21G14G 9G31G 3G15G11G18G29
  23497024.988    -9566956.44149  -7417042.85246  23497024.769    23497036.689
  21287808.723   -22581942.04249 -17573838.87447  21287808.127    21287816.361
  20233997.946   -24686953.14549 -18940005.66548  20233997.395    20234003.777
  24132964.489    -3803365.05849  -2600350.36445  24132964.117    24132974.486
  22922756.607    -9909627.34849  -7481775.46446  22922755.956    22922766.284
  23150270.199   -11902670.89649  -9249223.58246  23150269.762    23150281.295
  23384367.926   -11447639.77149  -8683302.29646  23384367.140    23384378.392
  24624322.548    -5974936.99249  -4392416.58845  24624322.277    24624333.499
  23314503.766   -11372771.83649  -8299420.53446  23314503.175    23314511.217
  23451096.324    -7655363.32649  -4764414.08446  23451095.984    23451105.019
 02  4  5  2 51 30.0000000  0 10G25G21G14G 9G31G 3G15G11G18G29
  23478367.258    -9665002.80849  -7493442.32546  23478366.946    23478378.748
  21290897.122   -22565712.40649 -17561192.35747  21290896.529    21290904.739
  20234230.452   -24685731.28149 -18939053.51248  20234229.894    20234236.255
  24146824.829    -3730528.14049  -2543594.32845  24146824.481    24146834.941
  22928743.196    -9878167.36749  -7457261.19146  22928742.542    22928752.861
  23164677.584   -11826959.36449  -9190227.60946  23164677.187    23164688.726
  23403760.741   -11345729.58049  -8603891.78246  23403760.084    23403771.169
  24605124.751    -6075821.76849  -4471027.94445  24605124.496    24605135.550
  23327280.560   -11305630.08349  -8247102.26646  23327279.880    23327287.854
  23468330.192    -7564798.87449  -4693844.39846  23468329.803    23468338.820
 02  4  5  2 52  0.0000000  0 10G25G21G14G 9G31G 3G15G11G18G29
  23459726.711    -9762959.01049  -7569771.51846  23459726.290    23459738.035
  21294014.684   -22549329.25349 -17548426.22147  21294014.071    21294022.280
  20234551.634   -24684043.15349 -18937738.03948  20234551.082    20234557.431
  24160772.068    -3657234.83649  -2486482.65045  24160771.815    24160782.151
  22934821.071    -9846227.89749  -7432373.29846  22934820.434    22934830.716
  23179125.770   -11751033.92649  -9131064.97546  23179125.366    23179136.875
  23423195.721   -11243598.05149  -8524308.83445  23423194.989    23423206.262
  24585943.772    -6176617.95949  -4549570.25345  24585943.336    24585954.463
  23340073.849   -11238400.37749  -8194715.48946  23340073.293    23340081.200
  23485576.586    -7474168.91349  -4623223.65246  23485576.154    23485585.229
 02  4  5  2 52 30.0000000  0 10G25G21G14G 9G31G 3G15G11G18G29
  23441104.000    -9860820.81549  -7646027.18146  23441103.552    23441115.203
  21297161.771   -22532791.09649 -17535539.29847  21297161.152    21297169.358
  20234961.593   -24681888.55849 -18936059.08348  20234961.028    20234967.382
  24174805.990    -3583485.71849  -2429015.79645  24174805.860    24174816.152
  22940990.188    -9813809.25449  -7407112.02046  22940989.503    22940999.783
  23193614.388   -11674895.80249  -9071736.62246  23193613.995    23193625.504
  23442672.796   -11141245.35249  -8444553.52745  23442672.006    23442683.288
  24566780.280    -6277321.77449  -4628040.63045  24566780.013    24566790.931
  23352884.227   -11171081.57449  -8142259.26646  23352883.675    23352891.497
  23502835.264    -7383473.68249  -4552552.05946  23502834.846    23502843.962
 02  4  5  2 53  0.0000000  0 10G25G21G14G 9G31G 3G15G11G18G29
  23422499.460    -9958587.09149  -7722208.39046  23422498.982    23422510.687
  21300338.126   -22516098.93049 -17522532.37147  21300337.503    21300345.711
  20235459.818   -24679270.10049 -18934018.68148  20235459.263    20235465.618
  24188926.078    -3509284.97449  -2371197.03745  24188925.816    24188936.143
  22947249.698    -9780915.23849  -7381480.32746  22947249.020    22947259.349
  23208142.674   -11598549.55249  -9012246.08646  23208142.188    23208153.752
  23462191.421   -11038675.27149  -8364628.83645  23462190.575    23462201.826
  24547634.444    -6377932.86649  -4706438.69545  24547634.107    24547645.323
  23365711.237   -11103675.26549  -8089734.87446  23365710.705    23365718.526
  23520105.695    -7292716.87349  -4481832.47346  23520105.340    23520114.346
 02  4  5  2 53 30.0000000  0 10G25G21G14G 9G31G 3G15G11G18G29
  23403913.731   -10056254.64849  -7798312.70446  23403913.309    23403924.844
  21303544.020   -22499251.65349 -17509404.57847  21303543.404    21303551.606
  20236046.177   -24676188.51249 -18931617.39348  20236045.627    20236051.968
  24203131.656    -3434634.56849  -2313027.88245  24203131.261    24203141.651
  22953599.353    -9747547.39749  -7355479.42846  22953598.694    22953608.978
  23222710.005   -11521997.79949  -8952595.42246  23222709.553    23222721.095
  23481751.036   -10935888.92349  -8284535.62745  23481750.133    23481761.440
  24528506.823    -6478448.73149  -4784762.63045  24528506.488    24528517.513
  23378554.938   -11036180.90249  -8037141.85246  23378554.443    23378562.268
  23537387.613    -7201899.72749  -4411065.86246  23537387.246    23537396.230
 02  4  5  2 54  0.0000000  0 10G25G21G14G 9G31G 3G15G11G18G29
  23385347.272   -10153820.90349  -7874338.04846  23385346.802    23385358.435
  21306779.625   -22482248.34549 -17496155.20247  21306779.004    21306787.193
  20236720.436   -24672644.95449 -18928856.12848  20236719.890    20236726.232
  24217422.211    -3359536.87349  -2254510.19345  24217421.898    24217432.207
  22960038.920    -9713707.56949  -7329110.74146  22960038.196    22960048.470
  23237315.920   -11445243.53249  -8892786.96346  23237315.461    23237327.029
  23501351.667   -10832887.60249  -8204274.87945  23501350.704    23501361.978
  24509397.707    -6578867.02349  -4863010.50045  24509397.338    24509408.446
  23391415.498   -10968598.29349  -7984480.06146  23391414.921    23391422.846
  23554680.714    -7111023.80249  -4340253.47346  23554680.365    23554689.389
 02  4  5  2 54 30.0000000  0 10G25G21G14G 9G31G 3G15G11G18G29
  23366800.364   -10251284.38049  -7950283.34646  23366799.932    23366811.382
  21310044.686   -22465090.11049 -17482785.10047  21310044.064    21310052.229
  20237482.111   -24668642.12749 -18925736.98948  20237481.563    20237487.900
  24231797.283    -3283995.68849  -2195646.92445  24231796.897    24231807.366
  22966567.551    -9679399.34549  -7302377.07846  22966566.846    22966577.141
  23251959.525   -11368291.28849  -8832824.22246  23251959.024    23251970.635
  23520992.304   -10729674.73749  -8123849.32745  23520991.446    23521002.791
  24490307.463    -6679186.98349  -4941181.76345  24490307.083    24490318.176
  23404292.537   -10900928.88149  -7931750.67046  23404291.946    23404299.894
  23571984.433    -7020092.40449  -4269397.83846  23571983.995    23571993.042
 02  4  5  2 55  0.0000000  0 10G25G21G14G 9G31G 3G15G11G18G29
  23348274.340   -10348638.30149  -8026143.26146  23348273.897    23348285.203
  21313340.192   -22447771.97849 -17469290.41047  21313339.562    21313347.721
  20238331.779   -24664176.79549 -18922257.45948  20238331.225    20238337.564
  24246257.027    -3208009.05549  -2136436.55945  24246256.656    24246267.130
  22973185.777    -9644620.26149  -7275276.50046  22973185.105    22973195.390
  23266640.989   -11291139.56049  -8772706.04346  23266640.510    23266652.160
  23540673.800   -10626247.94949  -8043257.06445  23540673.011    23540684.291
  24471237.037    -6779401.99649  -5019271.25545  24471236.685    24471247.629
  23417186.947   -10833168.28549  -7878950.20646  23417186.359    23417194.271
  23589299.152    -6929103.00049  -4198497.01546  23589298.698    23589307.719
 02  4  5  2 55 30.0000000  0 10G25G21G14G 9G31G 3G15G11G18G29
  23329768.488   -10445886.05649  -8101920.46146  23329767.968    23329779.273
  21316665.071   -22430299.28949 -17455675.28247  21316664.450    21316672.597
  20239268.150   -24659256.10849 -18918423.10948  20239267.587    20239273.898
  24260800.033    -3131585.24649  -2076885.52745  24260799.678    24260809.973
  22979892.081    -9609378.43249  -7247815.36746  22979891.382    22979901.679
  23281358.808   -11213797.23449  -8712439.34546  23281358.331    23281370.032
  23560394.514   -10522614.89949  -7962504.07345  23560393.748    23560405.017
  24452185.977    -6879515.92949  -5097281.95445  24452185.535    24452196.474
  23430097.561   -10765322.29749  -7826083.20146  23430096.951    23430104.914
  23606623.399    -6838063.37749  -4127557.06246  23606622.935    23606631.997
 02  4  5  2 56  0.0000000  0 10G25G21G14G 9G31G 3G15G11G18G29
  23311284.246   -10543020.48749  -8177609.35446  23311283.735    23311294.910
  21320020.165   -22412667.97749 -17441936.54847  21320019.548    21320027.692
  20240291.586   -24653877.53449 -18914231.96048  20240291.038    20240297.356
  24275426.353    -3054722.77249  -2016992.68445  24275425.952    24275436.476
  22986686.772    -9573671.95549  -7219992.14746  22986686.089    22986696.428
  23296112.990   -11136263.59149  -8652023.57746  23296112.527    23296124.225
  23580154.904   -10418773.62349  -7881588.82345  23580154.129    23580165.335
  24433155.174    -6979522.90449  -5175209.30645  24433154.749    24433165.563
  23443025.254   -10697386.90849  -7773146.52046  23443024.652    23443032.667
  23623957.593    -6746971.32249  -4056576.23546  23623957.176    23623966.257
 02  4  5  2 56 30.0000000  0 10G25G21G14G 9G31G 3G15G11G18G29
  23292821.819   -10640039.60949  -8253208.40546  23292821.376    23292832.470
  21323405.501   -22394877.67449 -17428073.93247  21323404.874    21323413.025
  20241401.832   -24648042.95149 -18909685.48448  20241401.289    20241407.577
  24290135.793    -2977424.62949  -1956760.36045  24290135.409    24290145.880
  22993569.456    -9537503.52949  -7191808.97246  22993568.733    22993579.051
  23310902.945   -11058541.97449  -8591461.33846  23310902.488    23310914.199
  23599954.524   -10314726.11249  -7800512.88445  23599953.662    23599965.057
  24414145.166    -7079421.28649  -5253052.01845  24414144.710    24414155.410
  23455969.738   -10629362.89649  -7720140.78246  23455969.131    23455977.172
  23641301.379    -6655829.05849  -3985556.30246  23641300.978    23641310.067
 02  4  5  2 57  0.0000000  0 10G25G21G14G 9G31G 3G15G11G18G29
  23274382.060   -10736940.28249  -8328715.16846  23274381.552    23274392.605
  21326821.292   -22376927.39049 -17414086.65547  21326820.669    21326828.811
  20242598.778   -24641752.80049 -18904784.02148  20242598.231    20242604.508
  24304927.654    -2899692.44849  -1896189.82445  24304927.308    24304937.803
  23000539.717    -9500874.77949  -7163267.09646  23000539.008    23000549.263
  23325728.270   -10980634.70149  -8530754.43246  23325727.775    23325739.493
  23619793.047   -10210473.62749  -7719277.20245  23619792.378    23619803.703
  24395156.119    -7179207.95449  -5330807.67345  24395155.745    24395166.464
  23468931.277   -10561249.45649  -7667065.36146  23468930.688    23468938.730
  23658654.522    -6564637.87249  -3914498.24745  23658654.095    23658663.131
 02  4  5  2 57 30.0000000  0 10G25G21G14G 9G31G 3G15G11G18G29
  23255965.049   -10833721.26449  -8404128.66746  23255964.531    23255975.457
  21330267.314   -22358818.32249 -17399975.65047  21330266.684    21330274.816
  20243881.823   -24635010.23349 -18899530.02548  20243881.273    20243887.524
  24319801.397    -2821530.52649  -1835284.42845  24319801.022    24319811.350
  23007596.811    -9463789.43449  -7134369.42546  23007596.093    23007606.341
  23340588.033   -10902546.72149  -8469906.69846  23340587.527    23340599.216
  23639669.837   -10106019.86049  -7637884.68045  23639669.286    23639680.574
  24376188.505    -7278882.56949  -5408475.99245  24376188.186    24376198.846
  23481909.527   -10493048.26349  -7613921.56946  23481908.963    23481917.016
  23676016.262    -6473401.21349  -3843404.74345  23676015.905    23676024.848
 02  4  5  2 58  0.0000000  0 10G25G21G14G 9G31G 3G15G11G18G29
  23237571.505   -10930379.00949  -8479446.13146  23237571.025    23237581.919
  21333743.887   -22340548.65749 -17385739.50547  21333743.237    21333751.361
  20245250.871   -24627815.61349 -18893923.78448  20245250.315    20245256.557
  24334756.520    -2742940.77749  -1774045.66245  24334756.109    24334766.508
  23014740.615    -9426248.59849  -7105116.81446  23014739.858    23014750.120
  23355481.740   -10824280.29549  -8408919.92746  23355481.177    23355492.885
  23659584.857   -10001365.88649  -7556336.18145  23659584.310    23659595.605
  24357242.852    -7378442.28449  -5486054.78345  24357242.482    24357253.160
  23494904.664   -10424758.45949  -7560708.71146  23494904.086    23494912.182
  23693386.527    -6382119.86649  -3772276.43345  23693386.240    23693395.102
